<?xml version="1.0" encoding="UTF-8" standalone="no" ?>
<gpx xmlns="http://www.topografix.com/GPX/1/1" xmlns:xsi="http://www.w3.org/2001/XMLSchema-instance" xsi:schemaLocation="http://www.topografix.com/GPX/1/1 http://www.topografix.com/GPX/1/1/gpx.xsd" version="1.1" creator="VisuGPX - https://www.visugpx.com">
  <metadata>
    <name>Pelussin / Mont Ministre par Pavezin</name>
  </metadata>
  <trk>
    <name><![CDATA[Pelussin / Mont Ministre par Pavezin_1]]></name>
    <trkseg>
      <trkpt lat="45.40831" lon="4.6863">
        <ele>376.97</ele>
        <time>2021-01-09T12:19:30Z</time>
      </trkpt>
      <trkpt lat="45.40843" lon="4.68587">
        <ele>379.38</ele>
        <time>2021-01-09T12:19:43Z</time>
      </trkpt>
      <trkpt lat="45.40858" lon="4.68534">
        <ele>381.78</ele>
        <time>2021-01-09T12:20:00Z</time>
      </trkpt>
      <trkpt lat="45.40871" lon="4.68492">
        <ele>384.66</ele>
        <time>2021-01-09T12:20:15Z</time>
      </trkpt>
      <trkpt lat="45.40884" lon="4.68455">
        <ele>388.03</ele>
        <time>2021-01-09T12:20:29Z</time>
      </trkpt>
      <trkpt lat="45.40897" lon="4.68418">
        <ele>390.43</ele>
        <time>2021-01-09T12:20:43Z</time>
      </trkpt>
      <trkpt lat="45.40906" lon="4.68377">
        <ele>393.32</ele>
        <time>2021-01-09T12:20:58Z</time>
      </trkpt>
      <trkpt lat="45.40914" lon="4.68338">
        <ele>396.68</ele>
        <time>2021-01-09T12:21:12Z</time>
      </trkpt>
      <trkpt lat="45.40923" lon="4.68301">
        <ele>399.57</ele>
        <time>2021-01-09T12:21:26Z</time>
      </trkpt>
      <trkpt lat="45.40932" lon="4.68266">
        <ele>402.45</ele>
        <time>2021-01-09T12:21:40Z</time>
      </trkpt>
      <trkpt lat="45.40934" lon="4.68262">
        <ele>402.93</ele>
        <time>2021-01-09T12:21:42Z</time>
      </trkpt>
      <trkpt lat="45.4096" lon="4.68264">
        <ele>404.85</ele>
        <time>2021-01-09T12:21:57Z</time>
      </trkpt>
      <trkpt lat="45.40987" lon="4.68273">
        <ele>406.29</ele>
        <time>2021-01-09T12:22:10Z</time>
      </trkpt>
      <trkpt lat="45.41027" lon="4.68284">
        <ele>408.22</ele>
        <time>2021-01-09T12:22:28Z</time>
      </trkpt>
      <trkpt lat="45.41056" lon="4.68293">
        <ele>410.62</ele>
        <time>2021-01-09T12:22:42Z</time>
      </trkpt>
      <trkpt lat="45.41095" lon="4.68296">
        <ele>412.06</ele>
        <time>2021-01-09T12:22:59Z</time>
      </trkpt>
      <trkpt lat="45.41117" lon="4.68293">
        <ele>412.54</ele>
        <time>2021-01-09T12:23:09Z</time>
      </trkpt>
      <trkpt lat="45.41155" lon="4.68278">
        <ele>413.02</ele>
        <time>2021-01-09T12:23:22Z</time>
      </trkpt>
      <trkpt lat="45.41189" lon="4.68257">
        <ele>412.54</ele>
        <time>2021-01-09T12:23:33Z</time>
      </trkpt>
      <trkpt lat="45.41225" lon="4.68216">
        <ele>411.58</ele>
        <time>2021-01-09T12:23:43Z</time>
      </trkpt>
      <trkpt lat="45.41239" lon="4.68195">
        <ele>411.1</ele>
        <time>2021-01-09T12:23:47Z</time>
      </trkpt>
      <trkpt lat="45.41246" lon="4.68183">
        <ele>410.14</ele>
        <time>2021-01-09T12:23:49Z</time>
      </trkpt>
      <trkpt lat="45.41252" lon="4.68169">
        <ele>410.14</ele>
        <time>2021-01-09T12:23:51Z</time>
      </trkpt>
      <trkpt lat="45.41254" lon="4.68162">
        <ele>409.66</ele>
        <time>2021-01-09T12:23:52Z</time>
      </trkpt>
      <trkpt lat="45.41256" lon="4.68154">
        <ele>409.18</ele>
        <time>2021-01-09T12:23:53Z</time>
      </trkpt>
      <trkpt lat="45.41258" lon="4.68146">
        <ele>409.66</ele>
        <time>2021-01-09T12:23:54Z</time>
      </trkpt>
      <trkpt lat="45.4126" lon="4.68139">
        <ele>409.18</ele>
        <time>2021-01-09T12:23:55Z</time>
      </trkpt>
      <trkpt lat="45.41277" lon="4.68044">
        <ele>406.29</ele>
        <time>2021-01-09T12:24:06Z</time>
      </trkpt>
      <trkpt lat="45.41287" lon="4.67965">
        <ele>404.37</ele>
        <time>2021-01-09T12:24:15Z</time>
      </trkpt>
      <trkpt lat="45.41289" lon="4.67957">
        <ele>403.89</ele>
        <time>2021-01-09T12:24:16Z</time>
      </trkpt>
      <trkpt lat="45.41311" lon="4.67895">
        <ele>402.45</ele>
        <time>2021-01-09T12:24:24Z</time>
      </trkpt>
      <trkpt lat="45.41313" lon="4.67888">
        <ele>402.45</ele>
        <time>2021-01-09T12:24:25Z</time>
      </trkpt>
      <trkpt lat="45.41316" lon="4.67884">
        <ele>402.45</ele>
        <time>2021-01-09T12:24:26Z</time>
      </trkpt>
      <trkpt lat="45.41318" lon="4.67882">
        <ele>402.93</ele>
        <time>2021-01-09T12:24:27Z</time>
      </trkpt>
      <trkpt lat="45.41319" lon="4.67881">
        <ele>402.93</ele>
        <time>2021-01-09T12:24:28Z</time>
      </trkpt>
      <trkpt lat="45.41321" lon="4.6788">
        <ele>402.93</ele>
        <time>2021-01-09T12:24:29Z</time>
      </trkpt>
      <trkpt lat="45.41323" lon="4.67877">
        <ele>402.93</ele>
        <time>2021-01-09T12:24:30Z</time>
      </trkpt>
      <trkpt lat="45.41325" lon="4.67874">
        <ele>402.93</ele>
        <time>2021-01-09T12:24:31Z</time>
      </trkpt>
      <trkpt lat="45.41328" lon="4.67871">
        <ele>402.45</ele>
        <time>2021-01-09T12:24:32Z</time>
      </trkpt>
      <trkpt lat="45.41331" lon="4.67868">
        <ele>402.45</ele>
        <time>2021-01-09T12:24:33Z</time>
      </trkpt>
      <trkpt lat="45.41359" lon="4.67843">
        <ele>401.01</ele>
        <time>2021-01-09T12:24:40Z</time>
      </trkpt>
      <trkpt lat="45.41384" lon="4.67831">
        <ele>400.53</ele>
        <time>2021-01-09T12:24:45Z</time>
      </trkpt>
      <trkpt lat="45.41389" lon="4.67831">
        <ele>400.05</ele>
        <time>2021-01-09T12:24:46Z</time>
      </trkpt>
      <trkpt lat="45.414" lon="4.67831">
        <ele>400.05</ele>
        <time>2021-01-09T12:24:48Z</time>
      </trkpt>
      <trkpt lat="45.41404" lon="4.67831">
        <ele>399.57</ele>
        <time>2021-01-09T12:24:49Z</time>
      </trkpt>
      <trkpt lat="45.41417" lon="4.67828">
        <ele>399.08</ele>
        <time>2021-01-09T12:24:52Z</time>
      </trkpt>
      <trkpt lat="45.41422" lon="4.67829">
        <ele>399.08</ele>
        <time>2021-01-09T12:24:53Z</time>
      </trkpt>
      <trkpt lat="45.41437" lon="4.6783">
        <ele>398.6</ele>
        <time>2021-01-09T12:24:56Z</time>
      </trkpt>
      <trkpt lat="45.41441" lon="4.67831">
        <ele>398.6</ele>
        <time>2021-01-09T12:24:57Z</time>
      </trkpt>
      <trkpt lat="45.41506" lon="4.67851">
        <ele>400.53</ele>
        <time>2021-01-09T12:25:12Z</time>
      </trkpt>
      <trkpt lat="45.4155" lon="4.67865">
        <ele>402.93</ele>
        <time>2021-01-09T12:25:25Z</time>
      </trkpt>
      <trkpt lat="45.41613" lon="4.67884">
        <ele>405.33</ele>
        <time>2021-01-09T12:25:44Z</time>
      </trkpt>
      <trkpt lat="45.41665" lon="4.67899">
        <ele>407.74</ele>
        <time>2021-01-09T12:26:00Z</time>
      </trkpt>
      <trkpt lat="45.41707" lon="4.67907">
        <ele>408.7</ele>
        <time>2021-01-09T12:26:13Z</time>
      </trkpt>
      <trkpt lat="45.41747" lon="4.67922">
        <ele>409.66</ele>
        <time>2021-01-09T12:26:27Z</time>
      </trkpt>
      <trkpt lat="45.41758" lon="4.67921">
        <ele>410.14</ele>
        <time>2021-01-09T12:26:31Z</time>
      </trkpt>
      <trkpt lat="45.41761" lon="4.6792">
        <ele>410.14</ele>
        <time>2021-01-09T12:26:32Z</time>
      </trkpt>
      <trkpt lat="45.41763" lon="4.67918">
        <ele>410.62</ele>
        <time>2021-01-09T12:26:33Z</time>
      </trkpt>
      <trkpt lat="45.41767" lon="4.67918">
        <ele>410.14</ele>
        <time>2021-01-09T12:26:34Z</time>
      </trkpt>
      <trkpt lat="45.41771" lon="4.6792">
        <ele>410.14</ele>
        <time>2021-01-09T12:26:35Z</time>
      </trkpt>
      <trkpt lat="45.41774" lon="4.67923">
        <ele>410.14</ele>
        <time>2021-01-09T12:26:36Z</time>
      </trkpt>
      <trkpt lat="45.41778" lon="4.67926">
        <ele>410.14</ele>
        <time>2021-01-09T12:26:37Z</time>
      </trkpt>
      <trkpt lat="45.41781" lon="4.67929">
        <ele>410.14</ele>
        <time>2021-01-09T12:26:38Z</time>
      </trkpt>
      <trkpt lat="45.41785" lon="4.67931">
        <ele>410.14</ele>
        <time>2021-01-09T12:26:39Z</time>
      </trkpt>
      <trkpt lat="45.41792" lon="4.67934">
        <ele>410.14</ele>
        <time>2021-01-09T12:26:41Z</time>
      </trkpt>
      <trkpt lat="45.41795" lon="4.67932">
        <ele>410.14</ele>
        <time>2021-01-09T12:26:42Z</time>
      </trkpt>
      <trkpt lat="45.41798" lon="4.6793">
        <ele>410.14</ele>
        <time>2021-01-09T12:26:43Z</time>
      </trkpt>
      <trkpt lat="45.41799" lon="4.6793">
        <ele>410.62</ele>
        <time>2021-01-09T12:26:44Z</time>
      </trkpt>
      <trkpt lat="45.418" lon="4.6793">
        <ele>410.62</ele>
        <time>2021-01-09T12:26:45Z</time>
      </trkpt>
      <trkpt lat="45.41802" lon="4.6793">
        <ele>410.14</ele>
        <time>2021-01-09T12:26:46Z</time>
      </trkpt>
      <trkpt lat="45.41803" lon="4.67931">
        <ele>410.62</ele>
        <time>2021-01-09T12:26:47Z</time>
      </trkpt>
      <trkpt lat="45.41806" lon="4.6793">
        <ele>410.14</ele>
        <time>2021-01-09T12:26:48Z</time>
      </trkpt>
      <trkpt lat="45.41809" lon="4.67928">
        <ele>410.14</ele>
        <time>2021-01-09T12:26:49Z</time>
      </trkpt>
      <trkpt lat="45.41841" lon="4.67891">
        <ele>410.62</ele>
        <time>2021-01-09T12:27:01Z</time>
      </trkpt>
      <trkpt lat="45.41854" lon="4.67834">
        <ele>411.1</ele>
        <time>2021-01-09T12:27:13Z</time>
      </trkpt>
      <trkpt lat="45.41854" lon="4.67829">
        <ele>411.1</ele>
        <time>2021-01-09T12:27:14Z</time>
      </trkpt>
      <trkpt lat="45.41855" lon="4.67825">
        <ele>411.1</ele>
        <time>2021-01-09T12:27:15Z</time>
      </trkpt>
      <trkpt lat="45.41858" lon="4.67822">
        <ele>411.1</ele>
        <time>2021-01-09T12:27:16Z</time>
      </trkpt>
      <trkpt lat="45.4186" lon="4.67819">
        <ele>411.1</ele>
        <time>2021-01-09T12:27:17Z</time>
      </trkpt>
      <trkpt lat="45.41864" lon="4.67818">
        <ele>411.1</ele>
        <time>2021-01-09T12:27:18Z</time>
      </trkpt>
      <trkpt lat="45.41868" lon="4.67818">
        <ele>411.1</ele>
        <time>2021-01-09T12:27:19Z</time>
      </trkpt>
      <trkpt lat="45.41872" lon="4.67816">
        <ele>411.1</ele>
        <time>2021-01-09T12:27:20Z</time>
      </trkpt>
      <trkpt lat="45.41875" lon="4.67812">
        <ele>411.1</ele>
        <time>2021-01-09T12:27:21Z</time>
      </trkpt>
      <trkpt lat="45.41876" lon="4.67807">
        <ele>411.1</ele>
        <time>2021-01-09T12:27:22Z</time>
      </trkpt>
      <trkpt lat="45.41876" lon="4.67802">
        <ele>411.1</ele>
        <time>2021-01-09T12:27:23Z</time>
      </trkpt>
      <trkpt lat="45.41875" lon="4.67796">
        <ele>411.58</ele>
        <time>2021-01-09T12:27:24Z</time>
      </trkpt>
      <trkpt lat="45.41874" lon="4.67791">
        <ele>411.1</ele>
        <time>2021-01-09T12:27:25Z</time>
      </trkpt>
      <trkpt lat="45.41874" lon="4.67786">
        <ele>411.58</ele>
        <time>2021-01-09T12:27:26Z</time>
      </trkpt>
      <trkpt lat="45.41874" lon="4.67781">
        <ele>412.06</ele>
        <time>2021-01-09T12:27:27Z</time>
      </trkpt>
      <trkpt lat="45.41874" lon="4.67777">
        <ele>412.06</ele>
        <time>2021-01-09T12:27:28Z</time>
      </trkpt>
      <trkpt lat="45.4189" lon="4.67717">
        <ele>414.95</ele>
        <time>2021-01-09T12:27:42Z</time>
      </trkpt>
      <trkpt lat="45.41928" lon="4.67662">
        <ele>417.35</ele>
        <time>2021-01-09T12:28:01Z</time>
      </trkpt>
      <trkpt lat="45.41966" lon="4.67627">
        <ele>419.75</ele>
        <time>2021-01-09T12:28:16Z</time>
      </trkpt>
      <trkpt lat="45.42012" lon="4.67582">
        <ele>421.19</ele>
        <time>2021-01-09T12:28:34Z</time>
      </trkpt>
      <trkpt lat="45.42035" lon="4.67521">
        <ele>419.75</ele>
        <time>2021-01-09T12:28:48Z</time>
      </trkpt>
      <trkpt lat="45.42052" lon="4.67477">
        <ele>422.64</ele>
        <time>2021-01-09T12:28:59Z</time>
      </trkpt>
      <trkpt lat="45.42079" lon="4.6742">
        <ele>424.56</ele>
        <time>2021-01-09T12:29:16Z</time>
      </trkpt>
      <trkpt lat="45.42087" lon="4.67377">
        <ele>425.52</ele>
        <time>2021-01-09T12:29:26Z</time>
      </trkpt>
      <trkpt lat="45.42106" lon="4.6733">
        <ele>427.44</ele>
        <time>2021-01-09T12:29:39Z</time>
      </trkpt>
      <trkpt lat="45.42134" lon="4.6729">
        <ele>429.85</ele>
        <time>2021-01-09T12:29:54Z</time>
      </trkpt>
      <trkpt lat="45.42171" lon="4.67258">
        <ele>432.25</ele>
        <time>2021-01-09T12:30:10Z</time>
      </trkpt>
      <trkpt lat="45.42208" lon="4.67227">
        <ele>434.17</ele>
        <time>2021-01-09T12:30:25Z</time>
      </trkpt>
      <trkpt lat="45.42259" lon="4.67183">
        <ele>436.58</ele>
        <time>2021-01-09T12:30:47Z</time>
      </trkpt>
      <trkpt lat="45.4229" lon="4.67148">
        <ele>438.5</ele>
        <time>2021-01-09T12:31:02Z</time>
      </trkpt>
      <trkpt lat="45.42314" lon="4.67096">
        <ele>441.38</ele>
        <time>2021-01-09T12:31:18Z</time>
      </trkpt>
      <trkpt lat="45.42324" lon="4.67036">
        <ele>443.79</ele>
        <time>2021-01-09T12:31:34Z</time>
      </trkpt>
      <trkpt lat="45.42319" lon="4.66979">
        <ele>445.71</ele>
        <time>2021-01-09T12:31:49Z</time>
      </trkpt>
      <trkpt lat="45.42311" lon="4.66947">
        <ele>446.67</ele>
        <time>2021-01-09T12:31:58Z</time>
      </trkpt>
      <trkpt lat="45.42313" lon="4.66944">
        <ele>446.67</ele>
        <time>2021-01-09T12:31:59Z</time>
      </trkpt>
      <trkpt lat="45.42316" lon="4.66942">
        <ele>446.19</ele>
        <time>2021-01-09T12:32:00Z</time>
      </trkpt>
      <trkpt lat="45.42319" lon="4.6694">
        <ele>446.19</ele>
        <time>2021-01-09T12:32:01Z</time>
      </trkpt>
      <trkpt lat="45.42324" lon="4.66939">
        <ele>446.19</ele>
        <time>2021-01-09T12:32:02Z</time>
      </trkpt>
      <trkpt lat="45.42328" lon="4.66938">
        <ele>445.71</ele>
        <time>2021-01-09T12:32:03Z</time>
      </trkpt>
      <trkpt lat="45.42348" lon="4.66936">
        <ele>443.79</ele>
        <time>2021-01-09T12:32:07Z</time>
      </trkpt>
      <trkpt lat="45.42353" lon="4.66937">
        <ele>443.79</ele>
        <time>2021-01-09T12:32:08Z</time>
      </trkpt>
      <trkpt lat="45.42358" lon="4.66938">
        <ele>443.79</ele>
        <time>2021-01-09T12:32:09Z</time>
      </trkpt>
      <trkpt lat="45.42411" lon="4.6695">
        <ele>445.23</ele>
        <time>2021-01-09T12:32:24Z</time>
      </trkpt>
      <trkpt lat="45.42454" lon="4.6694">
        <ele>447.63</ele>
        <time>2021-01-09T12:32:39Z</time>
      </trkpt>
      <trkpt lat="45.42483" lon="4.66931">
        <ele>451</ele>
        <time>2021-01-09T12:32:52Z</time>
      </trkpt>
      <trkpt lat="45.42493" lon="4.66921">
        <ele>452.92</ele>
        <time>2021-01-09T12:32:59Z</time>
      </trkpt>
      <trkpt lat="45.42511" lon="4.6691">
        <ele>455.8</ele>
        <time>2021-01-09T12:33:12Z</time>
      </trkpt>
      <trkpt lat="45.42531" lon="4.66921">
        <ele>457.72</ele>
        <time>2021-01-09T12:33:23Z</time>
      </trkpt>
      <trkpt lat="45.42563" lon="4.66928">
        <ele>458.69</ele>
        <time>2021-01-09T12:33:37Z</time>
      </trkpt>
      <trkpt lat="45.42603" lon="4.66936">
        <ele>462.05</ele>
        <time>2021-01-09T12:33:54Z</time>
      </trkpt>
      <trkpt lat="45.42634" lon="4.66942">
        <ele>463.97</ele>
        <time>2021-01-09T12:34:08Z</time>
      </trkpt>
      <trkpt lat="45.42671" lon="4.6693">
        <ele>464.45</ele>
        <time>2021-01-09T12:34:21Z</time>
      </trkpt>
      <trkpt lat="45.42719" lon="4.66887">
        <ele>464.45</ele>
        <time>2021-01-09T12:34:37Z</time>
      </trkpt>
      <trkpt lat="45.42762" lon="4.66849">
        <ele>466.86</ele>
        <time>2021-01-09T12:34:52Z</time>
      </trkpt>
      <trkpt lat="45.42788" lon="4.66822">
        <ele>465.9</ele>
        <time>2021-01-09T12:35:02Z</time>
      </trkpt>
      <trkpt lat="45.42827" lon="4.6678">
        <ele>463.49</ele>
        <time>2021-01-09T12:35:14Z</time>
      </trkpt>
      <trkpt lat="45.42841" lon="4.66765">
        <ele>460.61</ele>
        <time>2021-01-09T12:35:18Z</time>
      </trkpt>
      <trkpt lat="45.42857" lon="4.66751">
        <ele>458.69</ele>
        <time>2021-01-09T12:35:21Z</time>
      </trkpt>
      <trkpt lat="45.42884" lon="4.66735">
        <ele>456.28</ele>
        <time>2021-01-09T12:35:25Z</time>
      </trkpt>
      <trkpt lat="45.42891" lon="4.66731">
        <ele>455.8</ele>
        <time>2021-01-09T12:35:26Z</time>
      </trkpt>
      <trkpt lat="45.42898" lon="4.66724">
        <ele>454.84</ele>
        <time>2021-01-09T12:35:27Z</time>
      </trkpt>
      <trkpt lat="45.42911" lon="4.66709">
        <ele>451.48</ele>
        <time>2021-01-09T12:35:29Z</time>
      </trkpt>
      <trkpt lat="45.42925" lon="4.66693">
        <ele>450.52</ele>
        <time>2021-01-09T12:35:31Z</time>
      </trkpt>
      <trkpt lat="45.42962" lon="4.66622">
        <ele>451.48</ele>
        <time>2021-01-09T12:35:41Z</time>
      </trkpt>
      <trkpt lat="45.42986" lon="4.66551">
        <ele>452.92</ele>
        <time>2021-01-09T12:35:55Z</time>
      </trkpt>
      <trkpt lat="45.43013" lon="4.66465">
        <ele>455.32</ele>
        <time>2021-01-09T12:36:13Z</time>
      </trkpt>
      <trkpt lat="45.43039" lon="4.66425">
        <ele>458.21</ele>
        <time>2021-01-09T12:36:27Z</time>
      </trkpt>
      <trkpt lat="45.43066" lon="4.66391">
        <ele>461.09</ele>
        <time>2021-01-09T12:36:41Z</time>
      </trkpt>
      <trkpt lat="45.43069" lon="4.66385">
        <ele>462.05</ele>
        <time>2021-01-09T12:36:43Z</time>
      </trkpt>
      <trkpt lat="45.43078" lon="4.66337">
        <ele>464.45</ele>
        <time>2021-01-09T12:36:58Z</time>
      </trkpt>
      <trkpt lat="45.43081" lon="4.66293">
        <ele>464.93</ele>
        <time>2021-01-09T12:37:10Z</time>
      </trkpt>
      <trkpt lat="45.43096" lon="4.66238">
        <ele>468.3</ele>
        <time>2021-01-09T12:37:25Z</time>
      </trkpt>
      <trkpt lat="45.43126" lon="4.6621">
        <ele>470.7</ele>
        <time>2021-01-09T12:37:39Z</time>
      </trkpt>
      <trkpt lat="45.43165" lon="4.66188">
        <ele>472.14</ele>
        <time>2021-01-09T12:37:55Z</time>
      </trkpt>
      <trkpt lat="45.43183" lon="4.66183">
        <ele>469.74</ele>
        <time>2021-01-09T12:38:01Z</time>
      </trkpt>
      <trkpt lat="45.43187" lon="4.6618">
        <ele>469.26</ele>
        <time>2021-01-09T12:38:02Z</time>
      </trkpt>
      <trkpt lat="45.43191" lon="4.66175">
        <ele>468.78</ele>
        <time>2021-01-09T12:38:03Z</time>
      </trkpt>
      <trkpt lat="45.43195" lon="4.6617">
        <ele>468.3</ele>
        <time>2021-01-09T12:38:04Z</time>
      </trkpt>
      <trkpt lat="45.43199" lon="4.66164">
        <ele>467.82</ele>
        <time>2021-01-09T12:38:05Z</time>
      </trkpt>
      <trkpt lat="45.43206" lon="4.66149">
        <ele>465.9</ele>
        <time>2021-01-09T12:38:07Z</time>
      </trkpt>
      <trkpt lat="45.43219" lon="4.66111">
        <ele>462.05</ele>
        <time>2021-01-09T12:38:11Z</time>
      </trkpt>
      <trkpt lat="45.43224" lon="4.66101">
        <ele>461.57</ele>
        <time>2021-01-09T12:38:12Z</time>
      </trkpt>
      <trkpt lat="45.43234" lon="4.66082">
        <ele>460.61</ele>
        <time>2021-01-09T12:38:14Z</time>
      </trkpt>
      <trkpt lat="45.43239" lon="4.66074">
        <ele>460.61</ele>
        <time>2021-01-09T12:38:15Z</time>
      </trkpt>
      <trkpt lat="45.43245" lon="4.66069">
        <ele>460.61</ele>
        <time>2021-01-09T12:38:16Z</time>
      </trkpt>
      <trkpt lat="45.43253" lon="4.66067">
        <ele>461.57</ele>
        <time>2021-01-09T12:38:17Z</time>
      </trkpt>
      <trkpt lat="45.43259" lon="4.66069">
        <ele>462.05</ele>
        <time>2021-01-09T12:38:18Z</time>
      </trkpt>
      <trkpt lat="45.43264" lon="4.66073">
        <ele>462.05</ele>
        <time>2021-01-09T12:38:19Z</time>
      </trkpt>
      <trkpt lat="45.43268" lon="4.66075">
        <ele>462.53</ele>
        <time>2021-01-09T12:38:20Z</time>
      </trkpt>
      <trkpt lat="45.4328" lon="4.66078">
        <ele>466.38</ele>
        <time>2021-01-09T12:38:25Z</time>
      </trkpt>
      <trkpt lat="45.43282" lon="4.66077">
        <ele>466.38</ele>
        <time>2021-01-09T12:38:26Z</time>
      </trkpt>
      <trkpt lat="45.433" lon="4.66071">
        <ele>469.74</ele>
        <time>2021-01-09T12:38:37Z</time>
      </trkpt>
      <trkpt lat="45.43316" lon="4.66066">
        <ele>472.63</ele>
        <time>2021-01-09T12:38:48Z</time>
      </trkpt>
      <trkpt lat="45.43342" lon="4.66049">
        <ele>475.99</ele>
        <time>2021-01-09T12:39:04Z</time>
      </trkpt>
      <trkpt lat="45.43344" lon="4.66046">
        <ele>476.95</ele>
        <time>2021-01-09T12:39:06Z</time>
      </trkpt>
      <trkpt lat="45.43359" lon="4.66017">
        <ele>479.84</ele>
        <time>2021-01-09T12:39:21Z</time>
      </trkpt>
      <trkpt lat="45.4338" lon="4.6599">
        <ele>482.72</ele>
        <time>2021-01-09T12:39:37Z</time>
      </trkpt>
      <trkpt lat="45.43398" lon="4.65959">
        <ele>485.6</ele>
        <time>2021-01-09T12:39:54Z</time>
      </trkpt>
      <trkpt lat="45.43411" lon="4.65918">
        <ele>488.97</ele>
        <time>2021-01-09T12:40:12Z</time>
      </trkpt>
      <trkpt lat="45.43427" lon="4.65881">
        <ele>489.93</ele>
        <time>2021-01-09T12:40:27Z</time>
      </trkpt>
      <trkpt lat="45.43445" lon="4.65842">
        <ele>490.41</ele>
        <time>2021-01-09T12:40:40Z</time>
      </trkpt>
      <trkpt lat="45.43469" lon="4.65814">
        <ele>492.33</ele>
        <time>2021-01-09T12:40:53Z</time>
      </trkpt>
      <trkpt lat="45.43487" lon="4.65801">
        <ele>495.7</ele>
        <time>2021-01-09T12:41:04Z</time>
      </trkpt>
      <trkpt lat="45.4351" lon="4.65794">
        <ele>499.06</ele>
        <time>2021-01-09T12:41:16Z</time>
      </trkpt>
      <trkpt lat="45.43512" lon="4.65794">
        <ele>499.06</ele>
        <time>2021-01-09T12:41:17Z</time>
      </trkpt>
      <trkpt lat="45.43523" lon="4.65796">
        <ele>502.43</ele>
        <time>2021-01-09T12:41:23Z</time>
      </trkpt>
      <trkpt lat="45.43553" lon="4.65816">
        <ele>500.98</ele>
        <time>2021-01-09T12:41:36Z</time>
      </trkpt>
      <trkpt lat="45.43556" lon="4.65816">
        <ele>500.98</ele>
        <time>2021-01-09T12:41:37Z</time>
      </trkpt>
      <trkpt lat="45.43588" lon="4.65813">
        <ele>500.98</ele>
        <time>2021-01-09T12:41:49Z</time>
      </trkpt>
      <trkpt lat="45.43648" lon="4.6582">
        <ele>498.1</ele>
        <time>2021-01-09T12:42:04Z</time>
      </trkpt>
      <trkpt lat="45.43651" lon="4.65823">
        <ele>498.1</ele>
        <time>2021-01-09T12:42:05Z</time>
      </trkpt>
      <trkpt lat="45.43655" lon="4.65828">
        <ele>498.1</ele>
        <time>2021-01-09T12:42:06Z</time>
      </trkpt>
      <trkpt lat="45.43657" lon="4.65834">
        <ele>497.62</ele>
        <time>2021-01-09T12:42:07Z</time>
      </trkpt>
      <trkpt lat="45.43667" lon="4.65856">
        <ele>495.22</ele>
        <time>2021-01-09T12:42:10Z</time>
      </trkpt>
      <trkpt lat="45.43676" lon="4.65877">
        <ele>492.81</ele>
        <time>2021-01-09T12:42:13Z</time>
      </trkpt>
      <trkpt lat="45.43677" lon="4.65886">
        <ele>490.89</ele>
        <time>2021-01-09T12:42:14Z</time>
      </trkpt>
      <trkpt lat="45.43677" lon="4.65895">
        <ele>489.45</ele>
        <time>2021-01-09T12:42:15Z</time>
      </trkpt>
      <trkpt lat="45.43677" lon="4.65914">
        <ele>487.05</ele>
        <time>2021-01-09T12:42:17Z</time>
      </trkpt>
      <trkpt lat="45.43678" lon="4.65923">
        <ele>487.05</ele>
        <time>2021-01-09T12:42:18Z</time>
      </trkpt>
      <trkpt lat="45.43677" lon="4.65932">
        <ele>487.05</ele>
        <time>2021-01-09T12:42:19Z</time>
      </trkpt>
      <trkpt lat="45.43674" lon="4.65939">
        <ele>487.53</ele>
        <time>2021-01-09T12:42:20Z</time>
      </trkpt>
      <trkpt lat="45.43671" lon="4.65944">
        <ele>488.01</ele>
        <time>2021-01-09T12:42:21Z</time>
      </trkpt>
      <trkpt lat="45.43668" lon="4.65948">
        <ele>488.97</ele>
        <time>2021-01-09T12:42:22Z</time>
      </trkpt>
      <trkpt lat="45.43651" lon="4.65995">
        <ele>492.33</ele>
        <time>2021-01-09T12:42:33Z</time>
      </trkpt>
      <trkpt lat="45.43648" lon="4.66055">
        <ele>494.26</ele>
        <time>2021-01-09T12:42:45Z</time>
      </trkpt>
      <trkpt lat="45.43641" lon="4.6611">
        <ele>490.89</ele>
        <time>2021-01-09T12:42:53Z</time>
      </trkpt>
      <trkpt lat="45.4363" lon="4.66167">
        <ele>489.45</ele>
        <time>2021-01-09T12:43:00Z</time>
      </trkpt>
      <trkpt lat="45.43617" lon="4.66221">
        <ele>488.01</ele>
        <time>2021-01-09T12:43:07Z</time>
      </trkpt>
      <trkpt lat="45.43615" lon="4.66228">
        <ele>488.01</ele>
        <time>2021-01-09T12:43:08Z</time>
      </trkpt>
      <trkpt lat="45.43612" lon="4.66235">
        <ele>488.01</ele>
        <time>2021-01-09T12:43:09Z</time>
      </trkpt>
      <trkpt lat="45.43591" lon="4.66303">
        <ele>487.05</ele>
        <time>2021-01-09T12:43:18Z</time>
      </trkpt>
      <trkpt lat="45.43583" lon="4.66335">
        <ele>487.53</ele>
        <time>2021-01-09T12:43:22Z</time>
      </trkpt>
      <trkpt lat="45.43581" lon="4.66343">
        <ele>487.53</ele>
        <time>2021-01-09T12:43:23Z</time>
      </trkpt>
      <trkpt lat="45.43571" lon="4.66405">
        <ele>488.01</ele>
        <time>2021-01-09T12:43:31Z</time>
      </trkpt>
      <trkpt lat="45.43571" lon="4.66412">
        <ele>488.01</ele>
        <time>2021-01-09T12:43:32Z</time>
      </trkpt>
      <trkpt lat="45.43569" lon="4.66434">
        <ele>488.49</ele>
        <time>2021-01-09T12:43:35Z</time>
      </trkpt>
      <trkpt lat="45.43569" lon="4.66441">
        <ele>488.49</ele>
        <time>2021-01-09T12:43:36Z</time>
      </trkpt>
      <trkpt lat="45.43569" lon="4.66448">
        <ele>488.49</ele>
        <time>2021-01-09T12:43:37Z</time>
      </trkpt>
      <trkpt lat="45.43573" lon="4.66511">
        <ele>490.89</ele>
        <time>2021-01-09T12:43:49Z</time>
      </trkpt>
      <trkpt lat="45.43583" lon="4.66555">
        <ele>492.33</ele>
        <time>2021-01-09T12:44:01Z</time>
      </trkpt>
      <trkpt lat="45.43589" lon="4.66601">
        <ele>493.29</ele>
        <time>2021-01-09T12:44:12Z</time>
      </trkpt>
      <trkpt lat="45.43602" lon="4.66665">
        <ele>493.77</ele>
        <time>2021-01-09T12:44:27Z</time>
      </trkpt>
      <trkpt lat="45.43612" lon="4.66681">
        <ele>494.26</ele>
        <time>2021-01-09T12:44:33Z</time>
      </trkpt>
      <trkpt lat="45.43621" lon="4.66669">
        <ele>495.22</ele>
        <time>2021-01-09T12:44:40Z</time>
      </trkpt>
      <trkpt lat="45.43654" lon="4.66652">
        <ele>497.62</ele>
        <time>2021-01-09T12:44:57Z</time>
      </trkpt>
      <trkpt lat="45.43683" lon="4.66638">
        <ele>500.5</ele>
        <time>2021-01-09T12:45:12Z</time>
      </trkpt>
      <trkpt lat="45.43707" lon="4.66622">
        <ele>503.39</ele>
        <time>2021-01-09T12:45:26Z</time>
      </trkpt>
      <trkpt lat="45.43726" lon="4.66608">
        <ele>506.75</ele>
        <time>2021-01-09T12:45:38Z</time>
      </trkpt>
      <trkpt lat="45.43743" lon="4.66594">
        <ele>509.64</ele>
        <time>2021-01-09T12:45:49Z</time>
      </trkpt>
      <trkpt lat="45.43749" lon="4.66596">
        <ele>510.6</ele>
        <time>2021-01-09T12:45:53Z</time>
      </trkpt>
      <trkpt lat="45.43753" lon="4.66603">
        <ele>511.56</ele>
        <time>2021-01-09T12:45:57Z</time>
      </trkpt>
      <trkpt lat="45.43766" lon="4.66619">
        <ele>514.44</ele>
        <time>2021-01-09T12:46:08Z</time>
      </trkpt>
      <trkpt lat="45.43782" lon="4.66641">
        <ele>517.81</ele>
        <time>2021-01-09T12:46:23Z</time>
      </trkpt>
      <trkpt lat="45.43804" lon="4.6667">
        <ele>519.25</ele>
        <time>2021-01-09T12:46:38Z</time>
      </trkpt>
      <trkpt lat="45.43812" lon="4.66708">
        <ele>521.17</ele>
        <time>2021-01-09T12:46:51Z</time>
      </trkpt>
      <trkpt lat="45.43827" lon="4.66755">
        <ele>523.09</ele>
        <time>2021-01-09T12:47:08Z</time>
      </trkpt>
      <trkpt lat="45.43835" lon="4.66765">
        <ele>524.54</ele>
        <time>2021-01-09T12:47:14Z</time>
      </trkpt>
      <trkpt lat="45.4384" lon="4.6676">
        <ele>525.5</ele>
        <time>2021-01-09T12:47:19Z</time>
      </trkpt>
      <trkpt lat="45.43844" lon="4.66735">
        <ele>528.86</ele>
        <time>2021-01-09T12:47:31Z</time>
      </trkpt>
      <trkpt lat="45.43845" lon="4.66725">
        <ele>530.3</ele>
        <time>2021-01-09T12:47:36Z</time>
      </trkpt>
      <trkpt lat="45.43847" lon="4.66715">
        <ele>531.27</ele>
        <time>2021-01-09T12:47:41Z</time>
      </trkpt>
      <trkpt lat="45.43856" lon="4.66678">
        <ele>531.27</ele>
        <time>2021-01-09T12:47:58Z</time>
      </trkpt>
      <trkpt lat="45.4386" lon="4.66636">
        <ele>533.67</ele>
        <time>2021-01-09T12:48:15Z</time>
      </trkpt>
      <trkpt lat="45.43865" lon="4.66603">
        <ele>537.03</ele>
        <time>2021-01-09T12:48:30Z</time>
      </trkpt>
      <trkpt lat="45.43874" lon="4.66584">
        <ele>539.92</ele>
        <time>2021-01-09T12:48:41Z</time>
      </trkpt>
      <trkpt lat="45.43879" lon="4.66568">
        <ele>542.32</ele>
        <time>2021-01-09T12:48:50Z</time>
      </trkpt>
      <trkpt lat="45.43887" lon="4.66549">
        <ele>545.69</ele>
        <time>2021-01-09T12:49:02Z</time>
      </trkpt>
      <trkpt lat="45.43887" lon="4.66547">
        <ele>545.69</ele>
        <time>2021-01-09T12:49:03Z</time>
      </trkpt>
      <trkpt lat="45.43889" lon="4.66539">
        <ele>546.65</ele>
        <time>2021-01-09T12:49:08Z</time>
      </trkpt>
      <trkpt lat="45.43894" lon="4.66518">
        <ele>550.01</ele>
        <time>2021-01-09T12:49:20Z</time>
      </trkpt>
      <trkpt lat="45.43902" lon="4.66496">
        <ele>552.9</ele>
        <time>2021-01-09T12:49:33Z</time>
      </trkpt>
      <trkpt lat="45.43912" lon="4.66471">
        <ele>555.78</ele>
        <time>2021-01-09T12:49:47Z</time>
      </trkpt>
      <trkpt lat="45.43921" lon="4.66449">
        <ele>558.66</ele>
        <time>2021-01-09T12:50:02Z</time>
      </trkpt>
      <trkpt lat="45.43922" lon="4.66443">
        <ele>560.11</ele>
        <time>2021-01-09T12:50:06Z</time>
      </trkpt>
      <trkpt lat="45.43927" lon="4.66432">
        <ele>562.03</ele>
        <time>2021-01-09T12:50:13Z</time>
      </trkpt>
      <trkpt lat="45.43932" lon="4.66406">
        <ele>565.87</ele>
        <time>2021-01-09T12:50:28Z</time>
      </trkpt>
      <trkpt lat="45.43937" lon="4.66399">
        <ele>566.83</ele>
        <time>2021-01-09T12:50:33Z</time>
      </trkpt>
      <trkpt lat="45.43938" lon="4.66396">
        <ele>567.8</ele>
        <time>2021-01-09T12:50:35Z</time>
      </trkpt>
      <trkpt lat="45.43943" lon="4.66388">
        <ele>569.72</ele>
        <time>2021-01-09T12:50:41Z</time>
      </trkpt>
      <trkpt lat="45.43957" lon="4.66368">
        <ele>571.16</ele>
        <time>2021-01-09T12:50:55Z</time>
      </trkpt>
      <trkpt lat="45.43969" lon="4.66343">
        <ele>575.01</ele>
        <time>2021-01-09T12:51:11Z</time>
      </trkpt>
      <trkpt lat="45.43983" lon="4.66307">
        <ele>578.37</ele>
        <time>2021-01-09T12:51:30Z</time>
      </trkpt>
      <trkpt lat="45.44005" lon="4.66273">
        <ele>581.25</ele>
        <time>2021-01-09T12:51:50Z</time>
      </trkpt>
      <trkpt lat="45.44027" lon="4.66245">
        <ele>582.7</ele>
        <time>2021-01-09T12:52:05Z</time>
      </trkpt>
      <trkpt lat="45.44067" lon="4.66232">
        <ele>583.18</ele>
        <time>2021-01-09T12:52:20Z</time>
      </trkpt>
      <trkpt lat="45.44103" lon="4.66224">
        <ele>583.18</ele>
        <time>2021-01-09T12:52:33Z</time>
      </trkpt>
      <trkpt lat="45.4414" lon="4.66216">
        <ele>581.73</ele>
        <time>2021-01-09T12:52:45Z</time>
      </trkpt>
      <trkpt lat="45.44166" lon="4.66184">
        <ele>582.7</ele>
        <time>2021-01-09T12:52:57Z</time>
      </trkpt>
      <trkpt lat="45.44177" lon="4.6616">
        <ele>586.06</ele>
        <time>2021-01-09T12:53:07Z</time>
      </trkpt>
      <trkpt lat="45.44181" lon="4.66153">
        <ele>586.06</ele>
        <time>2021-01-09T12:53:11Z</time>
      </trkpt>
      <trkpt lat="45.44193" lon="4.66122">
        <ele>588.46</ele>
        <time>2021-01-09T12:53:26Z</time>
      </trkpt>
      <trkpt lat="45.44203" lon="4.66098">
        <ele>591.35</ele>
        <time>2021-01-09T12:53:38Z</time>
      </trkpt>
      <trkpt lat="45.44213" lon="4.6608">
        <ele>594.71</ele>
        <time>2021-01-09T12:53:49Z</time>
      </trkpt>
      <trkpt lat="45.44217" lon="4.66071">
        <ele>596.15</ele>
        <time>2021-01-09T12:53:54Z</time>
      </trkpt>
      <trkpt lat="45.44225" lon="4.66048">
        <ele>599.52</ele>
        <time>2021-01-09T12:54:07Z</time>
      </trkpt>
      <trkpt lat="45.4423" lon="4.66035">
        <ele>601.92</ele>
        <time>2021-01-09T12:54:15Z</time>
      </trkpt>
      <trkpt lat="45.44236" lon="4.66024">
        <ele>603.36</ele>
        <time>2021-01-09T12:54:58Z</time>
      </trkpt>
      <trkpt lat="45.44238" lon="4.66014">
        <ele>605.29</ele>
        <time>2021-01-09T12:55:04Z</time>
      </trkpt>
      <trkpt lat="45.44238" lon="4.66012">
        <ele>605.77</ele>
        <time>2021-01-09T12:55:05Z</time>
      </trkpt>
      <trkpt lat="45.44241" lon="4.66007">
        <ele>606.73</ele>
        <time>2021-01-09T12:55:08Z</time>
      </trkpt>
      <trkpt lat="45.44247" lon="4.65988">
        <ele>609.13</ele>
        <time>2021-01-09T12:55:21Z</time>
      </trkpt>
      <trkpt lat="45.4425" lon="4.65981">
        <ele>611.06</ele>
        <time>2021-01-09T12:55:26Z</time>
      </trkpt>
      <trkpt lat="45.44251" lon="4.65976">
        <ele>611.54</ele>
        <time>2021-01-09T12:55:29Z</time>
      </trkpt>
      <trkpt lat="45.44257" lon="4.65958">
        <ele>614.42</ele>
        <time>2021-01-09T12:55:42Z</time>
      </trkpt>
      <trkpt lat="45.44259" lon="4.65951">
        <ele>615.86</ele>
        <time>2021-01-09T12:55:47Z</time>
      </trkpt>
      <trkpt lat="45.44259" lon="4.65949">
        <ele>615.86</ele>
        <time>2021-01-09T12:55:48Z</time>
      </trkpt>
      <trkpt lat="45.4426" lon="4.65941">
        <ele>617.78</ele>
        <time>2021-01-09T12:56:01Z</time>
      </trkpt>
      <trkpt lat="45.44263" lon="4.65924">
        <ele>621.15</ele>
        <time>2021-01-09T12:56:15Z</time>
      </trkpt>
      <trkpt lat="45.44265" lon="4.65907">
        <ele>624.03</ele>
        <time>2021-01-09T12:56:29Z</time>
      </trkpt>
      <trkpt lat="45.44263" lon="4.65899">
        <ele>624.99</ele>
        <time>2021-01-09T12:56:53Z</time>
      </trkpt>
      <trkpt lat="45.44264" lon="4.65889">
        <ele>625.96</ele>
        <time>2021-01-09T12:56:58Z</time>
      </trkpt>
      <trkpt lat="45.44264" lon="4.65888">
        <ele>626.44</ele>
        <time>2021-01-09T12:56:59Z</time>
      </trkpt>
      <trkpt lat="45.44269" lon="4.65866">
        <ele>629.32</ele>
        <time>2021-01-09T12:57:12Z</time>
      </trkpt>
      <trkpt lat="45.4427" lon="4.65861">
        <ele>630.28</ele>
        <time>2021-01-09T12:57:15Z</time>
      </trkpt>
      <trkpt lat="45.44274" lon="4.65843">
        <ele>633.17</ele>
        <time>2021-01-09T12:57:27Z</time>
      </trkpt>
      <trkpt lat="45.44279" lon="4.65823">
        <ele>635.09</ele>
        <time>2021-01-09T12:57:38Z</time>
      </trkpt>
      <trkpt lat="45.44281" lon="4.65811">
        <ele>636.53</ele>
        <time>2021-01-09T12:57:45Z</time>
      </trkpt>
      <trkpt lat="45.44281" lon="4.65809">
        <ele>636.53</ele>
        <time>2021-01-09T12:57:46Z</time>
      </trkpt>
      <trkpt lat="45.44282" lon="4.65803">
        <ele>637.49</ele>
        <time>2021-01-09T12:57:50Z</time>
      </trkpt>
      <trkpt lat="45.44288" lon="4.65783">
        <ele>640.38</ele>
        <time>2021-01-09T12:58:03Z</time>
      </trkpt>
      <trkpt lat="45.44289" lon="4.65782">
        <ele>640.86</ele>
        <time>2021-01-09T12:58:04Z</time>
      </trkpt>
      <trkpt lat="45.4429" lon="4.6578">
        <ele>640.86</ele>
        <time>2021-01-09T12:58:05Z</time>
      </trkpt>
      <trkpt lat="45.44293" lon="4.65777">
        <ele>641.82</ele>
        <time>2021-01-09T12:58:08Z</time>
      </trkpt>
      <trkpt lat="45.44294" lon="4.65776">
        <ele>641.82</ele>
        <time>2021-01-09T12:58:09Z</time>
      </trkpt>
      <trkpt lat="45.443" lon="4.65763">
        <ele>645.18</ele>
        <time>2021-01-09T12:58:20Z</time>
      </trkpt>
      <trkpt lat="45.44301" lon="4.6576">
        <ele>645.66</ele>
        <time>2021-01-09T12:58:22Z</time>
      </trkpt>
      <trkpt lat="45.44301" lon="4.65758">
        <ele>645.66</ele>
        <time>2021-01-09T12:58:23Z</time>
      </trkpt>
      <trkpt lat="45.44305" lon="4.65736">
        <ele>647.1</ele>
        <time>2021-01-09T12:58:35Z</time>
      </trkpt>
      <trkpt lat="45.44303" lon="4.65706">
        <ele>649.51</ele>
        <time>2021-01-09T12:58:50Z</time>
      </trkpt>
      <trkpt lat="45.443" lon="4.65693">
        <ele>650.95</ele>
        <time>2021-01-09T12:58:59Z</time>
      </trkpt>
      <trkpt lat="45.44297" lon="4.65675">
        <ele>653.35</ele>
        <time>2021-01-09T12:59:10Z</time>
      </trkpt>
      <trkpt lat="45.44295" lon="4.65653">
        <ele>655.76</ele>
        <time>2021-01-09T12:59:24Z</time>
      </trkpt>
      <trkpt lat="45.44295" lon="4.65632">
        <ele>658.64</ele>
        <time>2021-01-09T12:59:39Z</time>
      </trkpt>
      <trkpt lat="45.44297" lon="4.65632">
        <ele>659.6</ele>
        <time>2021-01-09T12:59:48Z</time>
      </trkpt>
      <trkpt lat="45.44297" lon="4.65633">
        <ele>660.08</ele>
        <time>2021-01-09T12:59:49Z</time>
      </trkpt>
      <trkpt lat="45.44298" lon="4.65634">
        <ele>660.08</ele>
        <time>2021-01-09T12:59:50Z</time>
      </trkpt>
      <trkpt lat="45.44299" lon="4.65635">
        <ele>660.08</ele>
        <time>2021-01-09T12:59:51Z</time>
      </trkpt>
      <trkpt lat="45.443" lon="4.65636">
        <ele>660.08</ele>
        <time>2021-01-09T12:59:52Z</time>
      </trkpt>
      <trkpt lat="45.44301" lon="4.65638">
        <ele>661.04</ele>
        <time>2021-01-09T12:59:53Z</time>
      </trkpt>
      <trkpt lat="45.44301" lon="4.65639">
        <ele>660.56</ele>
        <time>2021-01-09T12:59:54Z</time>
      </trkpt>
      <trkpt lat="45.44304" lon="4.65644">
        <ele>661.04</ele>
        <time>2021-01-09T12:59:59Z</time>
      </trkpt>
      <trkpt lat="45.44305" lon="4.65645">
        <ele>661.52</ele>
        <time>2021-01-09T13:00:00Z</time>
      </trkpt>
      <trkpt lat="45.44306" lon="4.65647">
        <ele>661.52</ele>
        <time>2021-01-09T13:00:01Z</time>
      </trkpt>
      <trkpt lat="45.44307" lon="4.65648">
        <ele>662.01</ele>
        <time>2021-01-09T13:00:02Z</time>
      </trkpt>
      <trkpt lat="45.44313" lon="4.65655">
        <ele>662.49</ele>
        <time>2021-01-09T13:00:08Z</time>
      </trkpt>
      <trkpt lat="45.44314" lon="4.65656">
        <ele>662.97</ele>
        <time>2021-01-09T13:00:09Z</time>
      </trkpt>
      <trkpt lat="45.44315" lon="4.65658">
        <ele>662.97</ele>
        <time>2021-01-09T13:00:10Z</time>
      </trkpt>
      <trkpt lat="45.44317" lon="4.65663">
        <ele>663.45</ele>
        <time>2021-01-09T13:00:13Z</time>
      </trkpt>
      <trkpt lat="45.44317" lon="4.65665">
        <ele>663.45</ele>
        <time>2021-01-09T13:00:14Z</time>
      </trkpt>
      <trkpt lat="45.44317" lon="4.65666">
        <ele>663.93</ele>
        <time>2021-01-09T13:00:15Z</time>
      </trkpt>
      <trkpt lat="45.44318" lon="4.65668">
        <ele>663.93</ele>
        <time>2021-01-09T13:00:16Z</time>
      </trkpt>
      <trkpt lat="45.44335" lon="4.65692">
        <ele>665.37</ele>
        <time>2021-01-09T13:00:28Z</time>
      </trkpt>
      <trkpt lat="45.44353" lon="4.65723">
        <ele>666.81</ele>
        <time>2021-01-09T13:00:41Z</time>
      </trkpt>
      <trkpt lat="45.44353" lon="4.65725">
        <ele>667.29</ele>
        <time>2021-01-09T13:00:42Z</time>
      </trkpt>
      <trkpt lat="45.44353" lon="4.65726">
        <ele>667.29</ele>
        <time>2021-01-09T13:00:43Z</time>
      </trkpt>
      <trkpt lat="45.44354" lon="4.65739">
        <ele>668.73</ele>
        <time>2021-01-09T13:00:49Z</time>
      </trkpt>
      <trkpt lat="45.44356" lon="4.65767">
        <ele>670.18</ele>
        <time>2021-01-09T13:01:01Z</time>
      </trkpt>
      <trkpt lat="45.44358" lon="4.65789">
        <ele>672.58</ele>
        <time>2021-01-09T13:01:09Z</time>
      </trkpt>
      <trkpt lat="45.44359" lon="4.65792">
        <ele>672.58</ele>
        <time>2021-01-09T13:01:10Z</time>
      </trkpt>
      <trkpt lat="45.4436" lon="4.65796">
        <ele>672.58</ele>
        <time>2021-01-09T13:01:11Z</time>
      </trkpt>
      <trkpt lat="45.44362" lon="4.65798">
        <ele>672.58</ele>
        <time>2021-01-09T13:01:12Z</time>
      </trkpt>
      <trkpt lat="45.44363" lon="4.65801">
        <ele>673.06</ele>
        <time>2021-01-09T13:01:13Z</time>
      </trkpt>
      <trkpt lat="45.44365" lon="4.65804">
        <ele>673.06</ele>
        <time>2021-01-09T13:01:14Z</time>
      </trkpt>
      <trkpt lat="45.44367" lon="4.65807">
        <ele>673.54</ele>
        <time>2021-01-09T13:01:15Z</time>
      </trkpt>
      <trkpt lat="45.44369" lon="4.6581">
        <ele>673.54</ele>
        <time>2021-01-09T13:01:16Z</time>
      </trkpt>
      <trkpt lat="45.4437" lon="4.65812">
        <ele>674.02</ele>
        <time>2021-01-09T13:01:17Z</time>
      </trkpt>
      <trkpt lat="45.44372" lon="4.65815">
        <ele>674.02</ele>
        <time>2021-01-09T13:01:18Z</time>
      </trkpt>
      <trkpt lat="45.44373" lon="4.65818">
        <ele>674.02</ele>
        <time>2021-01-09T13:01:19Z</time>
      </trkpt>
      <trkpt lat="45.44375" lon="4.6582">
        <ele>674.5</ele>
        <time>2021-01-09T13:01:20Z</time>
      </trkpt>
      <trkpt lat="45.44376" lon="4.65823">
        <ele>674.5</ele>
        <time>2021-01-09T13:01:21Z</time>
      </trkpt>
      <trkpt lat="45.44378" lon="4.65826">
        <ele>674.98</ele>
        <time>2021-01-09T13:01:22Z</time>
      </trkpt>
      <trkpt lat="45.44381" lon="4.6583">
        <ele>675.46</ele>
        <time>2021-01-09T13:01:24Z</time>
      </trkpt>
      <trkpt lat="45.44381" lon="4.65832">
        <ele>675.94</ele>
        <time>2021-01-09T13:01:25Z</time>
      </trkpt>
      <trkpt lat="45.44382" lon="4.65834">
        <ele>675.94</ele>
        <time>2021-01-09T13:01:26Z</time>
      </trkpt>
      <trkpt lat="45.44383" lon="4.65836">
        <ele>675.94</ele>
        <time>2021-01-09T13:01:27Z</time>
      </trkpt>
      <trkpt lat="45.44384" lon="4.65838">
        <ele>676.42</ele>
        <time>2021-01-09T13:01:28Z</time>
      </trkpt>
      <trkpt lat="45.44385" lon="4.6584">
        <ele>676.42</ele>
        <time>2021-01-09T13:01:29Z</time>
      </trkpt>
      <trkpt lat="45.44386" lon="4.65842">
        <ele>676.91</ele>
        <time>2021-01-09T13:01:30Z</time>
      </trkpt>
      <trkpt lat="45.44387" lon="4.65844">
        <ele>676.91</ele>
        <time>2021-01-09T13:01:31Z</time>
      </trkpt>
      <trkpt lat="45.44388" lon="4.65847">
        <ele>677.39</ele>
        <time>2021-01-09T13:01:32Z</time>
      </trkpt>
      <trkpt lat="45.44404" lon="4.65876">
        <ele>679.79</ele>
        <time>2021-01-09T13:01:45Z</time>
      </trkpt>
      <trkpt lat="45.44407" lon="4.65876">
        <ele>680.27</ele>
        <time>2021-01-09T13:01:47Z</time>
      </trkpt>
      <trkpt lat="45.44408" lon="4.65874">
        <ele>680.27</ele>
        <time>2021-01-09T13:01:48Z</time>
      </trkpt>
      <trkpt lat="45.44407" lon="4.65843">
        <ele>683.15</ele>
        <time>2021-01-09T13:02:01Z</time>
      </trkpt>
      <trkpt lat="45.44396" lon="4.65792">
        <ele>683.15</ele>
        <time>2021-01-09T13:02:16Z</time>
      </trkpt>
      <trkpt lat="45.44388" lon="4.65749">
        <ele>684.6</ele>
        <time>2021-01-09T13:02:28Z</time>
      </trkpt>
      <trkpt lat="45.4438" lon="4.65704">
        <ele>685.56</ele>
        <time>2021-01-09T13:02:39Z</time>
      </trkpt>
      <trkpt lat="45.4437" lon="4.65651">
        <ele>687.96</ele>
        <time>2021-01-09T13:02:52Z</time>
      </trkpt>
      <trkpt lat="45.44365" lon="4.65626">
        <ele>688.44</ele>
        <time>2021-01-09T13:02:59Z</time>
      </trkpt>
      <trkpt lat="45.44363" lon="4.65596">
        <ele>691.81</ele>
        <time>2021-01-09T13:03:09Z</time>
      </trkpt>
      <trkpt lat="45.44363" lon="4.65592">
        <ele>691.81</ele>
        <time>2021-01-09T13:03:10Z</time>
      </trkpt>
      <trkpt lat="45.44362" lon="4.65589">
        <ele>691.81</ele>
        <time>2021-01-09T13:03:11Z</time>
      </trkpt>
      <trkpt lat="45.44361" lon="4.65585">
        <ele>692.77</ele>
        <time>2021-01-09T13:03:12Z</time>
      </trkpt>
      <trkpt lat="45.4436" lon="4.65582">
        <ele>692.77</ele>
        <time>2021-01-09T13:03:13Z</time>
      </trkpt>
      <trkpt lat="45.4436" lon="4.65579">
        <ele>693.25</ele>
        <time>2021-01-09T13:03:14Z</time>
      </trkpt>
      <trkpt lat="45.44361" lon="4.65575">
        <ele>693.73</ele>
        <time>2021-01-09T13:03:15Z</time>
      </trkpt>
      <trkpt lat="45.44361" lon="4.65572">
        <ele>693.73</ele>
        <time>2021-01-09T13:03:16Z</time>
      </trkpt>
      <trkpt lat="45.4436" lon="4.6557">
        <ele>694.21</ele>
        <time>2021-01-09T13:03:17Z</time>
      </trkpt>
      <trkpt lat="45.4436" lon="4.65568">
        <ele>694.21</ele>
        <time>2021-01-09T13:03:18Z</time>
      </trkpt>
      <trkpt lat="45.4436" lon="4.65565">
        <ele>694.69</ele>
        <time>2021-01-09T13:03:19Z</time>
      </trkpt>
      <trkpt lat="45.44361" lon="4.65563">
        <ele>695.17</ele>
        <time>2021-01-09T13:03:20Z</time>
      </trkpt>
      <trkpt lat="45.44361" lon="4.65561">
        <ele>695.17</ele>
        <time>2021-01-09T13:03:21Z</time>
      </trkpt>
      <trkpt lat="45.44362" lon="4.65559">
        <ele>695.65</ele>
        <time>2021-01-09T13:03:22Z</time>
      </trkpt>
      <trkpt lat="45.44363" lon="4.65558">
        <ele>695.65</ele>
        <time>2021-01-09T13:03:23Z</time>
      </trkpt>
      <trkpt lat="45.44364" lon="4.65557">
        <ele>696.13</ele>
        <time>2021-01-09T13:03:24Z</time>
      </trkpt>
      <trkpt lat="45.44365" lon="4.65556">
        <ele>696.61</ele>
        <time>2021-01-09T13:03:25Z</time>
      </trkpt>
      <trkpt lat="45.44366" lon="4.65556">
        <ele>696.61</ele>
        <time>2021-01-09T13:03:26Z</time>
      </trkpt>
      <trkpt lat="45.44367" lon="4.65557">
        <ele>697.09</ele>
        <time>2021-01-09T13:03:27Z</time>
      </trkpt>
      <trkpt lat="45.44369" lon="4.65558">
        <ele>697.09</ele>
        <time>2021-01-09T13:03:28Z</time>
      </trkpt>
      <trkpt lat="45.44369" lon="4.6556">
        <ele>697.57</ele>
        <time>2021-01-09T13:03:29Z</time>
      </trkpt>
      <trkpt lat="45.4437" lon="4.65561">
        <ele>697.57</ele>
        <time>2021-01-09T13:03:30Z</time>
      </trkpt>
      <trkpt lat="45.44371" lon="4.65563">
        <ele>698.05</ele>
        <time>2021-01-09T13:03:31Z</time>
      </trkpt>
      <trkpt lat="45.44372" lon="4.65564">
        <ele>698.05</ele>
        <time>2021-01-09T13:03:32Z</time>
      </trkpt>
      <trkpt lat="45.44373" lon="4.65566">
        <ele>698.53</ele>
        <time>2021-01-09T13:03:33Z</time>
      </trkpt>
      <trkpt lat="45.44374" lon="4.65568">
        <ele>699.02</ele>
        <time>2021-01-09T13:03:34Z</time>
      </trkpt>
      <trkpt lat="45.44375" lon="4.65569">
        <ele>699.02</ele>
        <time>2021-01-09T13:03:35Z</time>
      </trkpt>
      <trkpt lat="45.44376" lon="4.65571">
        <ele>699.5</ele>
        <time>2021-01-09T13:03:36Z</time>
      </trkpt>
      <trkpt lat="45.44376" lon="4.65573">
        <ele>699.5</ele>
        <time>2021-01-09T13:03:37Z</time>
      </trkpt>
      <trkpt lat="45.44377" lon="4.65574">
        <ele>699.98</ele>
        <time>2021-01-09T13:03:38Z</time>
      </trkpt>
      <trkpt lat="45.4438" lon="4.65579">
        <ele>700.46</ele>
        <time>2021-01-09T13:03:42Z</time>
      </trkpt>
      <trkpt lat="45.4438" lon="4.65581">
        <ele>700.94</ele>
        <time>2021-01-09T13:03:43Z</time>
      </trkpt>
      <trkpt lat="45.44385" lon="4.65588">
        <ele>702.38</ele>
        <time>2021-01-09T13:03:48Z</time>
      </trkpt>
      <trkpt lat="45.44391" lon="4.65596">
        <ele>703.34</ele>
        <time>2021-01-09T13:03:54Z</time>
      </trkpt>
      <trkpt lat="45.44392" lon="4.65597">
        <ele>703.34</ele>
        <time>2021-01-09T13:03:55Z</time>
      </trkpt>
      <trkpt lat="45.44393" lon="4.65598">
        <ele>703.82</ele>
        <time>2021-01-09T13:03:56Z</time>
      </trkpt>
      <trkpt lat="45.44394" lon="4.656">
        <ele>703.82</ele>
        <time>2021-01-09T13:03:57Z</time>
      </trkpt>
      <trkpt lat="45.44395" lon="4.65602">
        <ele>703.82</ele>
        <time>2021-01-09T13:03:58Z</time>
      </trkpt>
      <trkpt lat="45.44408" lon="4.65629">
        <ele>705.75</ele>
        <time>2021-01-09T13:04:11Z</time>
      </trkpt>
      <trkpt lat="45.44418" lon="4.65656">
        <ele>706.23</ele>
        <time>2021-01-09T13:04:22Z</time>
      </trkpt>
      <trkpt lat="45.44419" lon="4.65658">
        <ele>706.23</ele>
        <time>2021-01-09T13:04:23Z</time>
      </trkpt>
      <trkpt lat="45.4442" lon="4.6566">
        <ele>706.71</ele>
        <time>2021-01-09T13:04:24Z</time>
      </trkpt>
      <trkpt lat="45.44421" lon="4.65662">
        <ele>706.71</ele>
        <time>2021-01-09T13:04:25Z</time>
      </trkpt>
      <trkpt lat="45.44422" lon="4.65665">
        <ele>707.19</ele>
        <time>2021-01-09T13:04:26Z</time>
      </trkpt>
      <trkpt lat="45.44423" lon="4.65667">
        <ele>707.19</ele>
        <time>2021-01-09T13:04:27Z</time>
      </trkpt>
      <trkpt lat="45.44424" lon="4.6567">
        <ele>707.67</ele>
        <time>2021-01-09T13:04:28Z</time>
      </trkpt>
      <trkpt lat="45.44425" lon="4.65672">
        <ele>708.15</ele>
        <time>2021-01-09T13:04:29Z</time>
      </trkpt>
      <trkpt lat="45.44426" lon="4.65674">
        <ele>708.15</ele>
        <time>2021-01-09T13:04:30Z</time>
      </trkpt>
      <trkpt lat="45.44427" lon="4.65676">
        <ele>708.15</ele>
        <time>2021-01-09T13:04:31Z</time>
      </trkpt>
      <trkpt lat="45.44437" lon="4.65703">
        <ele>711.51</ele>
        <time>2021-01-09T13:04:44Z</time>
      </trkpt>
      <trkpt lat="45.44452" lon="4.65743">
        <ele>714.4</ele>
        <time>2021-01-09T13:05:00Z</time>
      </trkpt>
      <trkpt lat="45.44461" lon="4.65764">
        <ele>716.8</ele>
        <time>2021-01-09T13:05:10Z</time>
      </trkpt>
      <trkpt lat="45.4447" lon="4.65767">
        <ele>717.28</ele>
        <time>2021-01-09T13:05:15Z</time>
      </trkpt>
      <trkpt lat="45.44471" lon="4.65766">
        <ele>717.28</ele>
        <time>2021-01-09T13:05:16Z</time>
      </trkpt>
      <trkpt lat="45.44472" lon="4.65764">
        <ele>717.76</ele>
        <time>2021-01-09T13:05:17Z</time>
      </trkpt>
      <trkpt lat="45.44472" lon="4.65762">
        <ele>718.24</ele>
        <time>2021-01-09T13:05:18Z</time>
      </trkpt>
      <trkpt lat="45.44472" lon="4.6576">
        <ele>718.24</ele>
        <time>2021-01-09T13:05:19Z</time>
      </trkpt>
      <trkpt lat="45.44472" lon="4.65758">
        <ele>718.72</ele>
        <time>2021-01-09T13:05:20Z</time>
      </trkpt>
      <trkpt lat="45.44472" lon="4.65756">
        <ele>719.2</ele>
        <time>2021-01-09T13:05:21Z</time>
      </trkpt>
      <trkpt lat="45.44471" lon="4.65754">
        <ele>719.2</ele>
        <time>2021-01-09T13:05:22Z</time>
      </trkpt>
      <trkpt lat="45.44471" lon="4.65752">
        <ele>719.2</ele>
        <time>2021-01-09T13:05:23Z</time>
      </trkpt>
      <trkpt lat="45.4447" lon="4.6575">
        <ele>719.68</ele>
        <time>2021-01-09T13:05:24Z</time>
      </trkpt>
      <trkpt lat="45.44469" lon="4.65748">
        <ele>719.68</ele>
        <time>2021-01-09T13:05:25Z</time>
      </trkpt>
      <trkpt lat="45.4446" lon="4.65705">
        <ele>720.16</ele>
        <time>2021-01-09T13:05:39Z</time>
      </trkpt>
      <trkpt lat="45.44454" lon="4.65657">
        <ele>720.16</ele>
        <time>2021-01-09T13:05:51Z</time>
      </trkpt>
      <trkpt lat="45.44446" lon="4.65611">
        <ele>722.57</ele>
        <time>2021-01-09T13:06:04Z</time>
      </trkpt>
      <trkpt lat="45.44439" lon="4.65576">
        <ele>724.97</ele>
        <time>2021-01-09T13:06:16Z</time>
      </trkpt>
      <trkpt lat="45.44436" lon="4.65552">
        <ele>726.89</ele>
        <time>2021-01-09T13:06:25Z</time>
      </trkpt>
      <trkpt lat="45.44436" lon="4.65551">
        <ele>727.37</ele>
        <time>2021-01-09T13:06:28Z</time>
      </trkpt>
      <trkpt lat="45.44436" lon="4.65553">
        <ele>727.37</ele>
        <time>2021-01-09T13:06:29Z</time>
      </trkpt>
      <trkpt lat="45.44437" lon="4.65555">
        <ele>727.86</ele>
        <time>2021-01-09T13:06:30Z</time>
      </trkpt>
      <trkpt lat="45.44448" lon="4.65585">
        <ele>729.78</ele>
        <time>2021-01-09T13:06:43Z</time>
      </trkpt>
      <trkpt lat="45.4445" lon="4.6559">
        <ele>729.78</ele>
        <time>2021-01-09T13:06:45Z</time>
      </trkpt>
      <trkpt lat="45.44463" lon="4.65623">
        <ele>731.22</ele>
        <time>2021-01-09T13:06:57Z</time>
      </trkpt>
      <trkpt lat="45.44471" lon="4.65643">
        <ele>732.18</ele>
        <time>2021-01-09T13:07:03Z</time>
      </trkpt>
      <trkpt lat="45.44473" lon="4.65646">
        <ele>732.66</ele>
        <time>2021-01-09T13:07:04Z</time>
      </trkpt>
      <trkpt lat="45.44474" lon="4.65649">
        <ele>732.66</ele>
        <time>2021-01-09T13:07:05Z</time>
      </trkpt>
      <trkpt lat="45.44493" lon="4.65691">
        <ele>735.55</ele>
        <time>2021-01-09T13:07:18Z</time>
      </trkpt>
      <trkpt lat="45.44513" lon="4.65735">
        <ele>737.47</ele>
        <time>2021-01-09T13:07:32Z</time>
      </trkpt>
      <trkpt lat="45.4453" lon="4.65771">
        <ele>738.91</ele>
        <time>2021-01-09T13:07:45Z</time>
      </trkpt>
      <trkpt lat="45.44542" lon="4.65809">
        <ele>738.91</ele>
        <time>2021-01-09T13:07:58Z</time>
      </trkpt>
      <trkpt lat="45.44558" lon="4.65855">
        <ele>739.39</ele>
        <time>2021-01-09T13:08:08Z</time>
      </trkpt>
      <trkpt lat="45.44576" lon="4.65912">
        <ele>739.87</ele>
        <time>2021-01-09T13:08:20Z</time>
      </trkpt>
      <trkpt lat="45.44586" lon="4.65966">
        <ele>740.83</ele>
        <time>2021-01-09T13:08:31Z</time>
      </trkpt>
      <trkpt lat="45.44589" lon="4.66034">
        <ele>743.72</ele>
        <time>2021-01-09T13:08:46Z</time>
      </trkpt>
      <trkpt lat="45.44586" lon="4.66085">
        <ele>746.12</ele>
        <time>2021-01-09T13:08:58Z</time>
      </trkpt>
      <trkpt lat="45.44585" lon="4.66149">
        <ele>748.52</ele>
        <time>2021-01-09T13:09:11Z</time>
      </trkpt>
      <trkpt lat="45.44587" lon="4.66199">
        <ele>749.49</ele>
        <time>2021-01-09T13:09:22Z</time>
      </trkpt>
      <trkpt lat="45.44588" lon="4.6626">
        <ele>750.93</ele>
        <time>2021-01-09T13:09:36Z</time>
      </trkpt>
      <trkpt lat="45.44595" lon="4.66304">
        <ele>753.81</ele>
        <time>2021-01-09T13:09:48Z</time>
      </trkpt>
      <trkpt lat="45.44603" lon="4.66339">
        <ele>757.18</ele>
        <time>2021-01-09T13:09:59Z</time>
      </trkpt>
      <trkpt lat="45.44614" lon="4.66391">
        <ele>759.58</ele>
        <time>2021-01-09T13:10:15Z</time>
      </trkpt>
      <trkpt lat="45.44627" lon="4.66441">
        <ele>759.58</ele>
        <time>2021-01-09T13:10:28Z</time>
      </trkpt>
      <trkpt lat="45.44637" lon="4.66475">
        <ele>762.46</ele>
        <time>2021-01-09T13:10:39Z</time>
      </trkpt>
      <trkpt lat="45.4465" lon="4.66512">
        <ele>764.87</ele>
        <time>2021-01-09T13:10:51Z</time>
      </trkpt>
      <trkpt lat="45.44663" lon="4.6655">
        <ele>767.27</ele>
        <time>2021-01-09T13:11:03Z</time>
      </trkpt>
      <trkpt lat="45.44669" lon="4.6657">
        <ele>767.27</ele>
        <time>2021-01-09T13:11:09Z</time>
      </trkpt>
      <trkpt lat="45.44692" lon="4.66614">
        <ele>768.71</ele>
        <time>2021-01-09T13:11:22Z</time>
      </trkpt>
      <trkpt lat="45.44713" lon="4.66659">
        <ele>769.67</ele>
        <time>2021-01-09T13:11:35Z</time>
      </trkpt>
      <trkpt lat="45.44737" lon="4.6672">
        <ele>766.79</ele>
        <time>2021-01-09T13:11:47Z</time>
      </trkpt>
      <trkpt lat="45.44741" lon="4.6673">
        <ele>766.31</ele>
        <time>2021-01-09T13:11:49Z</time>
      </trkpt>
      <trkpt lat="45.44744" lon="4.66736">
        <ele>765.83</ele>
        <time>2021-01-09T13:11:50Z</time>
      </trkpt>
      <trkpt lat="45.44751" lon="4.66746">
        <ele>766.31</ele>
        <time>2021-01-09T13:11:52Z</time>
      </trkpt>
      <trkpt lat="45.44755" lon="4.66751">
        <ele>766.31</ele>
        <time>2021-01-09T13:11:53Z</time>
      </trkpt>
      <trkpt lat="45.44758" lon="4.66755">
        <ele>766.79</ele>
        <time>2021-01-09T13:11:54Z</time>
      </trkpt>
      <trkpt lat="45.44794" lon="4.66801">
        <ele>766.31</ele>
        <time>2021-01-09T13:12:06Z</time>
      </trkpt>
      <trkpt lat="45.44833" lon="4.66836">
        <ele>768.23</ele>
        <time>2021-01-09T13:12:19Z</time>
      </trkpt>
      <trkpt lat="45.44864" lon="4.66866">
        <ele>769.67</ele>
        <time>2021-01-09T13:12:30Z</time>
      </trkpt>
      <trkpt lat="45.44892" lon="4.66916">
        <ele>771.6</ele>
        <time>2021-01-09T13:12:43Z</time>
      </trkpt>
      <trkpt lat="45.44907" lon="4.66953">
        <ele>773.52</ele>
        <time>2021-01-09T13:12:54Z</time>
      </trkpt>
      <trkpt lat="45.4492" lon="4.66996">
        <ele>774</ele>
        <time>2021-01-09T13:13:05Z</time>
      </trkpt>
      <trkpt lat="45.4494" lon="4.67036">
        <ele>774.96</ele>
        <time>2021-01-09T13:13:16Z</time>
      </trkpt>
      <trkpt lat="45.44957" lon="4.67074">
        <ele>775.44</ele>
        <time>2021-01-09T13:13:26Z</time>
      </trkpt>
      <trkpt lat="45.44975" lon="4.67142">
        <ele>777.84</ele>
        <time>2021-01-09T13:13:41Z</time>
      </trkpt>
      <trkpt lat="45.44995" lon="4.67198">
        <ele>778.81</ele>
        <time>2021-01-09T13:13:52Z</time>
      </trkpt>
      <trkpt lat="45.45017" lon="4.67252">
        <ele>779.77</ele>
        <time>2021-01-09T13:14:04Z</time>
      </trkpt>
      <trkpt lat="45.4504" lon="4.67306">
        <ele>782.17</ele>
        <time>2021-01-09T13:14:18Z</time>
      </trkpt>
      <trkpt lat="45.4506" lon="4.67352">
        <ele>780.73</ele>
        <time>2021-01-09T13:14:29Z</time>
      </trkpt>
      <trkpt lat="45.45086" lon="4.67409">
        <ele>782.17</ele>
        <time>2021-01-09T13:14:42Z</time>
      </trkpt>
      <trkpt lat="45.45115" lon="4.67462">
        <ele>782.65</ele>
        <time>2021-01-09T13:14:54Z</time>
      </trkpt>
      <trkpt lat="45.45151" lon="4.67521">
        <ele>784.57</ele>
        <time>2021-01-09T13:15:09Z</time>
      </trkpt>
      <trkpt lat="45.45175" lon="4.67553">
        <ele>786.02</ele>
        <time>2021-01-09T13:15:20Z</time>
      </trkpt>
      <trkpt lat="45.45219" lon="4.67599">
        <ele>784.57</ele>
        <time>2021-01-09T13:15:35Z</time>
      </trkpt>
      <trkpt lat="45.45254" lon="4.67618">
        <ele>784.09</ele>
        <time>2021-01-09T13:15:46Z</time>
      </trkpt>
      <trkpt lat="45.45286" lon="4.67639">
        <ele>785.53</ele>
        <time>2021-01-09T13:15:57Z</time>
      </trkpt>
      <trkpt lat="45.45326" lon="4.67633">
        <ele>786.5</ele>
        <time>2021-01-09T13:16:09Z</time>
      </trkpt>
      <trkpt lat="45.45358" lon="4.67627">
        <ele>783.13</ele>
        <time>2021-01-09T13:16:18Z</time>
      </trkpt>
      <trkpt lat="45.45367" lon="4.67627">
        <ele>782.65</ele>
        <time>2021-01-09T13:16:20Z</time>
      </trkpt>
      <trkpt lat="45.45379" lon="4.67626">
        <ele>781.69</ele>
        <time>2021-01-09T13:16:23Z</time>
      </trkpt>
      <trkpt lat="45.45424" lon="4.67627">
        <ele>781.21</ele>
        <time>2021-01-09T13:16:33Z</time>
      </trkpt>
      <trkpt lat="45.45437" lon="4.67633">
        <ele>780.73</ele>
        <time>2021-01-09T13:16:36Z</time>
      </trkpt>
      <trkpt lat="45.45442" lon="4.67636">
        <ele>780.73</ele>
        <time>2021-01-09T13:16:37Z</time>
      </trkpt>
      <trkpt lat="45.45495" lon="4.67697">
        <ele>779.77</ele>
        <time>2021-01-09T13:16:52Z</time>
      </trkpt>
      <trkpt lat="45.45528" lon="4.67723">
        <ele>779.29</ele>
        <time>2021-01-09T13:17:04Z</time>
      </trkpt>
      <trkpt lat="45.45529" lon="4.67725">
        <ele>779.29</ele>
        <time>2021-01-09T13:17:05Z</time>
      </trkpt>
      <trkpt lat="45.45529" lon="4.67728">
        <ele>779.77</ele>
        <time>2021-01-09T13:17:16Z</time>
      </trkpt>
      <trkpt lat="45.4553" lon="4.67728">
        <ele>780.73</ele>
        <time>2021-01-09T13:17:34Z</time>
      </trkpt>
      <trkpt lat="45.45529" lon="4.67727">
        <ele>778.81</ele>
        <time>2021-01-09T13:17:50Z</time>
      </trkpt>
      <trkpt lat="45.45528" lon="4.67726">
        <ele>779.77</ele>
        <time>2021-01-09T13:18:19Z</time>
      </trkpt>
      <trkpt lat="45.45528" lon="4.67726">
        <ele>779.77</ele>
        <time>2021-01-09T13:18:41Z</time>
      </trkpt>
      <trkpt lat="45.45527" lon="4.67727">
        <ele>779.29</ele>
        <time>2021-01-09T13:19:10Z</time>
      </trkpt>
      <trkpt lat="45.45527" lon="4.67726">
        <ele>779.29</ele>
        <time>2021-01-09T13:19:31Z</time>
      </trkpt>
      <trkpt lat="45.45525" lon="4.67724">
        <ele>780.25</ele>
        <time>2021-01-09T13:19:45Z</time>
      </trkpt>
      <trkpt lat="45.45523" lon="4.67724">
        <ele>780.25</ele>
        <time>2021-01-09T13:19:46Z</time>
      </trkpt>
      <trkpt lat="45.45521" lon="4.67724">
        <ele>778.81</ele>
        <time>2021-01-09T13:19:47Z</time>
      </trkpt>
      <trkpt lat="45.45518" lon="4.67724">
        <ele>777.84</ele>
        <time>2021-01-09T13:19:48Z</time>
      </trkpt>
      <trkpt lat="45.45515" lon="4.67725">
        <ele>776.4</ele>
        <time>2021-01-09T13:19:49Z</time>
      </trkpt>
      <trkpt lat="45.45512" lon="4.67725">
        <ele>776.4</ele>
        <time>2021-01-09T13:19:50Z</time>
      </trkpt>
      <trkpt lat="45.45508" lon="4.67724">
        <ele>775.44</ele>
        <time>2021-01-09T13:19:51Z</time>
      </trkpt>
      <trkpt lat="45.45506" lon="4.67723">
        <ele>775.92</ele>
        <time>2021-01-09T13:19:52Z</time>
      </trkpt>
      <trkpt lat="45.45503" lon="4.67721">
        <ele>775.92</ele>
        <time>2021-01-09T13:19:53Z</time>
      </trkpt>
      <trkpt lat="45.45501" lon="4.6772">
        <ele>775.44</ele>
        <time>2021-01-09T13:19:54Z</time>
      </trkpt>
      <trkpt lat="45.45499" lon="4.67719">
        <ele>775.44</ele>
        <time>2021-01-09T13:19:55Z</time>
      </trkpt>
      <trkpt lat="45.45497" lon="4.67717">
        <ele>774.96</ele>
        <time>2021-01-09T13:19:56Z</time>
      </trkpt>
      <trkpt lat="45.45495" lon="4.67716">
        <ele>774.48</ele>
        <time>2021-01-09T13:19:57Z</time>
      </trkpt>
      <trkpt lat="45.45492" lon="4.67716">
        <ele>774</ele>
        <time>2021-01-09T13:19:58Z</time>
      </trkpt>
      <trkpt lat="45.45491" lon="4.67717">
        <ele>774</ele>
        <time>2021-01-09T13:19:59Z</time>
      </trkpt>
      <trkpt lat="45.45491" lon="4.6772">
        <ele>773.52</ele>
        <time>2021-01-09T13:20:00Z</time>
      </trkpt>
      <trkpt lat="45.45492" lon="4.67724">
        <ele>773.52</ele>
        <time>2021-01-09T13:20:01Z</time>
      </trkpt>
      <trkpt lat="45.45495" lon="4.67727">
        <ele>773.04</ele>
        <time>2021-01-09T13:20:02Z</time>
      </trkpt>
      <trkpt lat="45.45498" lon="4.6773">
        <ele>772.56</ele>
        <time>2021-01-09T13:20:03Z</time>
      </trkpt>
      <trkpt lat="45.45501" lon="4.67732">
        <ele>772.56</ele>
        <time>2021-01-09T13:20:04Z</time>
      </trkpt>
      <trkpt lat="45.45504" lon="4.67735">
        <ele>772.08</ele>
        <time>2021-01-09T13:20:05Z</time>
      </trkpt>
      <trkpt lat="45.45508" lon="4.67739">
        <ele>772.08</ele>
        <time>2021-01-09T13:20:06Z</time>
      </trkpt>
      <trkpt lat="45.45511" lon="4.67743">
        <ele>771.6</ele>
        <time>2021-01-09T13:20:07Z</time>
      </trkpt>
      <trkpt lat="45.45524" lon="4.67761">
        <ele>770.63</ele>
        <time>2021-01-09T13:20:11Z</time>
      </trkpt>
      <trkpt lat="45.45527" lon="4.67764">
        <ele>770.15</ele>
        <time>2021-01-09T13:20:12Z</time>
      </trkpt>
      <trkpt lat="45.45537" lon="4.67774">
        <ele>769.19</ele>
        <time>2021-01-09T13:20:15Z</time>
      </trkpt>
      <trkpt lat="45.45538" lon="4.67778">
        <ele>768.71</ele>
        <time>2021-01-09T13:20:16Z</time>
      </trkpt>
      <trkpt lat="45.4554" lon="4.67781">
        <ele>767.75</ele>
        <time>2021-01-09T13:20:17Z</time>
      </trkpt>
      <trkpt lat="45.45542" lon="4.67785">
        <ele>767.27</ele>
        <time>2021-01-09T13:20:18Z</time>
      </trkpt>
      <trkpt lat="45.45545" lon="4.67789">
        <ele>766.79</ele>
        <time>2021-01-09T13:20:19Z</time>
      </trkpt>
      <trkpt lat="45.45548" lon="4.67792">
        <ele>766.31</ele>
        <time>2021-01-09T13:20:20Z</time>
      </trkpt>
      <trkpt lat="45.45568" lon="4.67815">
        <ele>762.94</ele>
        <time>2021-01-09T13:20:27Z</time>
      </trkpt>
      <trkpt lat="45.45578" lon="4.67824">
        <ele>760.06</ele>
        <time>2021-01-09T13:20:31Z</time>
      </trkpt>
      <trkpt lat="45.45578" lon="4.67827">
        <ele>760.06</ele>
        <time>2021-01-09T13:20:32Z</time>
      </trkpt>
      <trkpt lat="45.45578" lon="4.67829">
        <ele>759.1</ele>
        <time>2021-01-09T13:20:34Z</time>
      </trkpt>
      <trkpt lat="45.45576" lon="4.6783">
        <ele>759.1</ele>
        <time>2021-01-09T13:20:35Z</time>
      </trkpt>
      <trkpt lat="45.45573" lon="4.6783">
        <ele>758.14</ele>
        <time>2021-01-09T13:20:36Z</time>
      </trkpt>
      <trkpt lat="45.4557" lon="4.67831">
        <ele>757.66</ele>
        <time>2021-01-09T13:20:37Z</time>
      </trkpt>
      <trkpt lat="45.45567" lon="4.67831">
        <ele>756.69</ele>
        <time>2021-01-09T13:20:38Z</time>
      </trkpt>
      <trkpt lat="45.45563" lon="4.67831">
        <ele>756.21</ele>
        <time>2021-01-09T13:20:39Z</time>
      </trkpt>
      <trkpt lat="45.45551" lon="4.67829">
        <ele>755.25</ele>
        <time>2021-01-09T13:20:42Z</time>
      </trkpt>
      <trkpt lat="45.45521" lon="4.6782">
        <ele>752.37</ele>
        <time>2021-01-09T13:20:52Z</time>
      </trkpt>
      <trkpt lat="45.45503" lon="4.67816">
        <ele>751.41</ele>
        <time>2021-01-09T13:20:57Z</time>
      </trkpt>
      <trkpt lat="45.455" lon="4.67817">
        <ele>750.93</ele>
        <time>2021-01-09T13:20:58Z</time>
      </trkpt>
      <trkpt lat="45.45497" lon="4.6782">
        <ele>750.93</ele>
        <time>2021-01-09T13:20:59Z</time>
      </trkpt>
      <trkpt lat="45.45495" lon="4.67824">
        <ele>749.97</ele>
        <time>2021-01-09T13:21:00Z</time>
      </trkpt>
      <trkpt lat="45.45493" lon="4.67827">
        <ele>749</ele>
        <time>2021-01-09T13:21:01Z</time>
      </trkpt>
      <trkpt lat="45.4549" lon="4.67829">
        <ele>748.52</ele>
        <time>2021-01-09T13:21:02Z</time>
      </trkpt>
      <trkpt lat="45.45488" lon="4.6783">
        <ele>748.52</ele>
        <time>2021-01-09T13:21:03Z</time>
      </trkpt>
      <trkpt lat="45.45475" lon="4.67835">
        <ele>745.16</ele>
        <time>2021-01-09T13:21:07Z</time>
      </trkpt>
      <trkpt lat="45.45464" lon="4.67837">
        <ele>742.76</ele>
        <time>2021-01-09T13:21:10Z</time>
      </trkpt>
      <trkpt lat="45.4546" lon="4.67839">
        <ele>741.79</ele>
        <time>2021-01-09T13:21:11Z</time>
      </trkpt>
      <trkpt lat="45.45456" lon="4.67841">
        <ele>741.31</ele>
        <time>2021-01-09T13:21:12Z</time>
      </trkpt>
      <trkpt lat="45.45452" lon="4.6784">
        <ele>740.35</ele>
        <time>2021-01-09T13:21:13Z</time>
      </trkpt>
      <trkpt lat="45.45449" lon="4.67839">
        <ele>739.39</ele>
        <time>2021-01-09T13:21:14Z</time>
      </trkpt>
      <trkpt lat="45.45435" lon="4.67826">
        <ele>736.51</ele>
        <time>2021-01-09T13:21:19Z</time>
      </trkpt>
      <trkpt lat="45.45431" lon="4.67827">
        <ele>736.51</ele>
        <time>2021-01-09T13:21:20Z</time>
      </trkpt>
      <trkpt lat="45.4543" lon="4.6783">
        <ele>736.03</ele>
        <time>2021-01-09T13:21:21Z</time>
      </trkpt>
      <trkpt lat="45.45429" lon="4.67833">
        <ele>735.55</ele>
        <time>2021-01-09T13:21:22Z</time>
      </trkpt>
      <trkpt lat="45.4543" lon="4.67836">
        <ele>735.55</ele>
        <time>2021-01-09T13:21:23Z</time>
      </trkpt>
      <trkpt lat="45.45432" lon="4.6784">
        <ele>735.55</ele>
        <time>2021-01-09T13:21:24Z</time>
      </trkpt>
      <trkpt lat="45.45433" lon="4.67843">
        <ele>735.07</ele>
        <time>2021-01-09T13:21:25Z</time>
      </trkpt>
      <trkpt lat="45.45435" lon="4.67847">
        <ele>734.58</ele>
        <time>2021-01-09T13:21:26Z</time>
      </trkpt>
      <trkpt lat="45.45437" lon="4.67849">
        <ele>734.1</ele>
        <time>2021-01-09T13:21:27Z</time>
      </trkpt>
      <trkpt lat="45.45439" lon="4.67851">
        <ele>732.66</ele>
        <time>2021-01-09T13:21:28Z</time>
      </trkpt>
      <trkpt lat="45.45441" lon="4.67854">
        <ele>732.66</ele>
        <time>2021-01-09T13:21:29Z</time>
      </trkpt>
      <trkpt lat="45.45442" lon="4.67856">
        <ele>731.7</ele>
        <time>2021-01-09T13:21:30Z</time>
      </trkpt>
      <trkpt lat="45.45444" lon="4.67858">
        <ele>731.22</ele>
        <time>2021-01-09T13:21:31Z</time>
      </trkpt>
      <trkpt lat="45.45446" lon="4.6786">
        <ele>731.22</ele>
        <time>2021-01-09T13:21:32Z</time>
      </trkpt>
      <trkpt lat="45.45448" lon="4.67863">
        <ele>730.26</ele>
        <time>2021-01-09T13:21:33Z</time>
      </trkpt>
      <trkpt lat="45.4545" lon="4.67867">
        <ele>729.3</ele>
        <time>2021-01-09T13:21:34Z</time>
      </trkpt>
      <trkpt lat="45.45459" lon="4.67887">
        <ele>725.93</ele>
        <time>2021-01-09T13:21:39Z</time>
      </trkpt>
      <trkpt lat="45.45475" lon="4.67902">
        <ele>722.57</ele>
        <time>2021-01-09T13:21:45Z</time>
      </trkpt>
      <trkpt lat="45.45482" lon="4.67909">
        <ele>721.13</ele>
        <time>2021-01-09T13:21:47Z</time>
      </trkpt>
      <trkpt lat="45.45486" lon="4.67911">
        <ele>720.16</ele>
        <time>2021-01-09T13:21:48Z</time>
      </trkpt>
      <trkpt lat="45.4549" lon="4.67913">
        <ele>719.68</ele>
        <time>2021-01-09T13:21:49Z</time>
      </trkpt>
      <trkpt lat="45.45495" lon="4.67915">
        <ele>719.2</ele>
        <time>2021-01-09T13:21:50Z</time>
      </trkpt>
      <trkpt lat="45.45499" lon="4.67918">
        <ele>718.72</ele>
        <time>2021-01-09T13:21:51Z</time>
      </trkpt>
      <trkpt lat="45.45514" lon="4.67927">
        <ele>717.28</ele>
        <time>2021-01-09T13:21:55Z</time>
      </trkpt>
      <trkpt lat="45.45519" lon="4.6793">
        <ele>717.76</ele>
        <time>2021-01-09T13:22:02Z</time>
      </trkpt>
      <trkpt lat="45.4552" lon="4.67931">
        <ele>717.76</ele>
        <time>2021-01-09T13:22:03Z</time>
      </trkpt>
      <trkpt lat="45.45522" lon="4.67932">
        <ele>717.76</ele>
        <time>2021-01-09T13:22:04Z</time>
      </trkpt>
      <trkpt lat="45.45524" lon="4.67934">
        <ele>717.28</ele>
        <time>2021-01-09T13:22:05Z</time>
      </trkpt>
      <trkpt lat="45.45527" lon="4.67937">
        <ele>716.8</ele>
        <time>2021-01-09T13:22:06Z</time>
      </trkpt>
      <trkpt lat="45.45529" lon="4.67939">
        <ele>716.32</ele>
        <time>2021-01-09T13:22:07Z</time>
      </trkpt>
      <trkpt lat="45.45532" lon="4.67941">
        <ele>715.84</ele>
        <time>2021-01-09T13:22:08Z</time>
      </trkpt>
      <trkpt lat="45.45536" lon="4.67944">
        <ele>715.36</ele>
        <time>2021-01-09T13:22:09Z</time>
      </trkpt>
      <trkpt lat="45.45543" lon="4.67951">
        <ele>714.88</ele>
        <time>2021-01-09T13:22:11Z</time>
      </trkpt>
      <trkpt lat="45.45565" lon="4.67978">
        <ele>711.51</ele>
        <time>2021-01-09T13:22:17Z</time>
      </trkpt>
      <trkpt lat="45.45579" lon="4.67997">
        <ele>709.59</ele>
        <time>2021-01-09T13:22:21Z</time>
      </trkpt>
      <trkpt lat="45.45583" lon="4.68003">
        <ele>709.11</ele>
        <time>2021-01-09T13:22:22Z</time>
      </trkpt>
      <trkpt lat="45.45589" lon="4.68014">
        <ele>708.15</ele>
        <time>2021-01-09T13:22:24Z</time>
      </trkpt>
      <trkpt lat="45.45592" lon="4.6802">
        <ele>708.15</ele>
        <time>2021-01-09T13:22:25Z</time>
      </trkpt>
      <trkpt lat="45.45598" lon="4.6803">
        <ele>706.71</ele>
        <time>2021-01-09T13:22:27Z</time>
      </trkpt>
      <trkpt lat="45.45612" lon="4.6805">
        <ele>704.78</ele>
        <time>2021-01-09T13:22:31Z</time>
      </trkpt>
      <trkpt lat="45.45622" lon="4.6806">
        <ele>703.82</ele>
        <time>2021-01-09T13:22:34Z</time>
      </trkpt>
      <trkpt lat="45.45631" lon="4.68066">
        <ele>702.86</ele>
        <time>2021-01-09T13:22:36Z</time>
      </trkpt>
      <trkpt lat="45.45635" lon="4.68068">
        <ele>701.9</ele>
        <time>2021-01-09T13:22:37Z</time>
      </trkpt>
      <trkpt lat="45.4564" lon="4.68072">
        <ele>701.42</ele>
        <time>2021-01-09T13:22:38Z</time>
      </trkpt>
      <trkpt lat="45.45644" lon="4.68076">
        <ele>700.94</ele>
        <time>2021-01-09T13:22:39Z</time>
      </trkpt>
      <trkpt lat="45.45647" lon="4.6808">
        <ele>699.98</ele>
        <time>2021-01-09T13:22:40Z</time>
      </trkpt>
      <trkpt lat="45.4565" lon="4.68084">
        <ele>700.46</ele>
        <time>2021-01-09T13:22:41Z</time>
      </trkpt>
      <trkpt lat="45.45662" lon="4.68106">
        <ele>698.53</ele>
        <time>2021-01-09T13:22:49Z</time>
      </trkpt>
      <trkpt lat="45.45665" lon="4.68111">
        <ele>697.57</ele>
        <time>2021-01-09T13:22:50Z</time>
      </trkpt>
      <trkpt lat="45.45679" lon="4.6813">
        <ele>695.17</ele>
        <time>2021-01-09T13:22:54Z</time>
      </trkpt>
      <trkpt lat="45.45692" lon="4.68145">
        <ele>693.25</ele>
        <time>2021-01-09T13:22:59Z</time>
      </trkpt>
      <trkpt lat="45.45701" lon="4.68153">
        <ele>692.29</ele>
        <time>2021-01-09T13:23:01Z</time>
      </trkpt>
      <trkpt lat="45.45706" lon="4.68157">
        <ele>691.81</ele>
        <time>2021-01-09T13:23:02Z</time>
      </trkpt>
      <trkpt lat="45.45726" lon="4.68178">
        <ele>688.44</ele>
        <time>2021-01-09T13:23:06Z</time>
      </trkpt>
      <trkpt lat="45.45731" lon="4.68183">
        <ele>687.96</ele>
        <time>2021-01-09T13:23:07Z</time>
      </trkpt>
      <trkpt lat="45.45742" lon="4.68191">
        <ele>687</ele>
        <time>2021-01-09T13:23:09Z</time>
      </trkpt>
      <trkpt lat="45.45755" lon="4.682">
        <ele>685.08</ele>
        <time>2021-01-09T13:23:12Z</time>
      </trkpt>
      <trkpt lat="45.45759" lon="4.68203">
        <ele>684.6</ele>
        <time>2021-01-09T13:23:13Z</time>
      </trkpt>
      <trkpt lat="45.45763" lon="4.68206">
        <ele>684.6</ele>
        <time>2021-01-09T13:23:14Z</time>
      </trkpt>
      <trkpt lat="45.45774" lon="4.6821">
        <ele>683.63</ele>
        <time>2021-01-09T13:23:16Z</time>
      </trkpt>
      <trkpt lat="45.45787" lon="4.68211">
        <ele>682.19</ele>
        <time>2021-01-09T13:23:18Z</time>
      </trkpt>
      <trkpt lat="45.45798" lon="4.68213">
        <ele>681.23</ele>
        <time>2021-01-09T13:23:20Z</time>
      </trkpt>
      <trkpt lat="45.45827" lon="4.68216">
        <ele>678.83</ele>
        <time>2021-01-09T13:23:25Z</time>
      </trkpt>
      <trkpt lat="45.45887" lon="4.68218">
        <ele>677.87</ele>
        <time>2021-01-09T13:23:37Z</time>
      </trkpt>
      <trkpt lat="45.45907" lon="4.68213">
        <ele>678.35</ele>
        <time>2021-01-09T13:23:47Z</time>
      </trkpt>
      <trkpt lat="45.45934" lon="4.68209">
        <ele>675.94</ele>
        <time>2021-01-09T13:23:57Z</time>
      </trkpt>
      <trkpt lat="45.45939" lon="4.6821">
        <ele>675.46</ele>
        <time>2021-01-09T13:23:58Z</time>
      </trkpt>
      <trkpt lat="45.45949" lon="4.6821">
        <ele>674.98</ele>
        <time>2021-01-09T13:24:00Z</time>
      </trkpt>
      <trkpt lat="45.45965" lon="4.68206">
        <ele>673.06</ele>
        <time>2021-01-09T13:24:03Z</time>
      </trkpt>
      <trkpt lat="45.4598" lon="4.68201">
        <ele>671.62</ele>
        <time>2021-01-09T13:24:06Z</time>
      </trkpt>
      <trkpt lat="45.45986" lon="4.68199">
        <ele>671.14</ele>
        <time>2021-01-09T13:24:07Z</time>
      </trkpt>
      <trkpt lat="45.46028" lon="4.68174">
        <ele>672.58</ele>
        <time>2021-01-09T13:24:19Z</time>
      </trkpt>
      <trkpt lat="45.46056" lon="4.68157">
        <ele>675.94</ele>
        <time>2021-01-09T13:24:30Z</time>
      </trkpt>
      <trkpt lat="45.46081" lon="4.6813">
        <ele>679.31</ele>
        <time>2021-01-09T13:24:43Z</time>
      </trkpt>
      <trkpt lat="45.46103" lon="4.68105">
        <ele>680.75</ele>
        <time>2021-01-09T13:24:55Z</time>
      </trkpt>
      <trkpt lat="45.46117" lon="4.68089">
        <ele>681.23</ele>
        <time>2021-01-09T13:25:01Z</time>
      </trkpt>
      <trkpt lat="45.46119" lon="4.68087">
        <ele>680.75</ele>
        <time>2021-01-09T13:25:02Z</time>
      </trkpt>
      <trkpt lat="45.46121" lon="4.68085">
        <ele>680.75</ele>
        <time>2021-01-09T13:25:03Z</time>
      </trkpt>
      <trkpt lat="45.46124" lon="4.68083">
        <ele>679.79</ele>
        <time>2021-01-09T13:25:04Z</time>
      </trkpt>
      <trkpt lat="45.46127" lon="4.68081">
        <ele>679.31</ele>
        <time>2021-01-09T13:25:05Z</time>
      </trkpt>
      <trkpt lat="45.46144" lon="4.68063">
        <ele>676.91</ele>
        <time>2021-01-09T13:25:10Z</time>
      </trkpt>
      <trkpt lat="45.46158" lon="4.68045">
        <ele>674.5</ele>
        <time>2021-01-09T13:25:13Z</time>
      </trkpt>
      <trkpt lat="45.46176" lon="4.68023">
        <ele>672.1</ele>
        <time>2021-01-09T13:25:17Z</time>
      </trkpt>
      <trkpt lat="45.46181" lon="4.68017">
        <ele>671.62</ele>
        <time>2021-01-09T13:25:18Z</time>
      </trkpt>
      <trkpt lat="45.46209" lon="4.67989">
        <ele>671.62</ele>
        <time>2021-01-09T13:25:27Z</time>
      </trkpt>
      <trkpt lat="45.46244" lon="4.67976">
        <ele>671.14</ele>
        <time>2021-01-09T13:25:38Z</time>
      </trkpt>
      <trkpt lat="45.46278" lon="4.67962">
        <ele>667.77</ele>
        <time>2021-01-09T13:25:48Z</time>
      </trkpt>
      <trkpt lat="45.46296" lon="4.67954">
        <ele>664.89</ele>
        <time>2021-01-09T13:25:51Z</time>
      </trkpt>
      <trkpt lat="45.46323" lon="4.67938">
        <ele>661.04</ele>
        <time>2021-01-09T13:25:57Z</time>
      </trkpt>
      <trkpt lat="45.46327" lon="4.67934">
        <ele>660.08</ele>
        <time>2021-01-09T13:25:59Z</time>
      </trkpt>
      <trkpt lat="45.46346" lon="4.67917">
        <ele>656.72</ele>
        <time>2021-01-09T13:26:04Z</time>
      </trkpt>
      <trkpt lat="45.46352" lon="4.67914">
        <ele>656.24</ele>
        <time>2021-01-09T13:26:05Z</time>
      </trkpt>
      <trkpt lat="45.46369" lon="4.67904">
        <ele>654.8</ele>
        <time>2021-01-09T13:26:08Z</time>
      </trkpt>
      <trkpt lat="45.46375" lon="4.679">
        <ele>654.8</ele>
        <time>2021-01-09T13:26:09Z</time>
      </trkpt>
      <trkpt lat="45.46386" lon="4.67892">
        <ele>653.35</ele>
        <time>2021-01-09T13:26:11Z</time>
      </trkpt>
      <trkpt lat="45.46391" lon="4.67886">
        <ele>653.35</ele>
        <time>2021-01-09T13:26:12Z</time>
      </trkpt>
      <trkpt lat="45.46396" lon="4.67881">
        <ele>652.87</ele>
        <time>2021-01-09T13:26:13Z</time>
      </trkpt>
      <trkpt lat="45.46423" lon="4.67841">
        <ele>653.83</ele>
        <time>2021-01-09T13:26:24Z</time>
      </trkpt>
      <trkpt lat="45.46426" lon="4.67836">
        <ele>652.87</ele>
        <time>2021-01-09T13:26:26Z</time>
      </trkpt>
      <trkpt lat="45.46442" lon="4.67826">
        <ele>652.87</ele>
        <time>2021-01-09T13:26:32Z</time>
      </trkpt>
      <trkpt lat="45.46444" lon="4.67828">
        <ele>653.35</ele>
        <time>2021-01-09T13:26:33Z</time>
      </trkpt>
      <trkpt lat="45.46445" lon="4.67832">
        <ele>653.35</ele>
        <time>2021-01-09T13:26:34Z</time>
      </trkpt>
      <trkpt lat="45.46453" lon="4.67858">
        <ele>652.87</ele>
        <time>2021-01-09T13:26:40Z</time>
      </trkpt>
      <trkpt lat="45.46455" lon="4.67864">
        <ele>653.35</ele>
        <time>2021-01-09T13:26:41Z</time>
      </trkpt>
      <trkpt lat="45.46457" lon="4.6787">
        <ele>652.39</ele>
        <time>2021-01-09T13:26:42Z</time>
      </trkpt>
      <trkpt lat="45.46461" lon="4.67879">
        <ele>651.43</ele>
        <time>2021-01-09T13:26:44Z</time>
      </trkpt>
      <trkpt lat="45.46469" lon="4.6789">
        <ele>653.35</ele>
        <time>2021-01-09T13:26:49Z</time>
      </trkpt>
      <trkpt lat="45.46485" lon="4.67906">
        <ele>656.72</ele>
        <time>2021-01-09T13:27:01Z</time>
      </trkpt>
      <trkpt lat="45.46489" lon="4.67905">
        <ele>656.72</ele>
        <time>2021-01-09T13:27:04Z</time>
      </trkpt>
      <trkpt lat="45.46498" lon="4.67895">
        <ele>657.68</ele>
        <time>2021-01-09T13:27:12Z</time>
      </trkpt>
      <trkpt lat="45.46502" lon="4.67889">
        <ele>659.12</ele>
        <time>2021-01-09T13:27:16Z</time>
      </trkpt>
      <trkpt lat="45.46503" lon="4.67888">
        <ele>659.6</ele>
        <time>2021-01-09T13:27:17Z</time>
      </trkpt>
      <trkpt lat="45.46504" lon="4.67886">
        <ele>659.6</ele>
        <time>2021-01-09T13:27:18Z</time>
      </trkpt>
      <trkpt lat="45.46506" lon="4.67884">
        <ele>659.6</ele>
        <time>2021-01-09T13:27:19Z</time>
      </trkpt>
      <trkpt lat="45.46507" lon="4.67882">
        <ele>659.6</ele>
        <time>2021-01-09T13:27:20Z</time>
      </trkpt>
      <trkpt lat="45.46508" lon="4.67881">
        <ele>659.6</ele>
        <time>2021-01-09T13:27:21Z</time>
      </trkpt>
      <trkpt lat="45.4651" lon="4.6788">
        <ele>660.08</ele>
        <time>2021-01-09T13:27:22Z</time>
      </trkpt>
      <trkpt lat="45.46511" lon="4.67877">
        <ele>660.08</ele>
        <time>2021-01-09T13:27:23Z</time>
      </trkpt>
      <trkpt lat="45.46512" lon="4.67875">
        <ele>660.56</ele>
        <time>2021-01-09T13:27:24Z</time>
      </trkpt>
      <trkpt lat="45.46513" lon="4.67874">
        <ele>660.56</ele>
        <time>2021-01-09T13:27:25Z</time>
      </trkpt>
      <trkpt lat="45.46515" lon="4.67873">
        <ele>661.04</ele>
        <time>2021-01-09T13:27:26Z</time>
      </trkpt>
      <trkpt lat="45.46516" lon="4.67871">
        <ele>661.04</ele>
        <time>2021-01-09T13:27:27Z</time>
      </trkpt>
      <trkpt lat="45.46524" lon="4.67865">
        <ele>661.52</ele>
        <time>2021-01-09T13:27:32Z</time>
      </trkpt>
      <trkpt lat="45.46544" lon="4.67836">
        <ele>662.97</ele>
        <time>2021-01-09T13:27:46Z</time>
      </trkpt>
      <trkpt lat="45.4657" lon="4.678">
        <ele>662.97</ele>
        <time>2021-01-09T13:28:01Z</time>
      </trkpt>
      <trkpt lat="45.46595" lon="4.67778">
        <ele>664.89</ele>
        <time>2021-01-09T13:28:13Z</time>
      </trkpt>
      <trkpt lat="45.46622" lon="4.67753">
        <ele>664.89</ele>
        <time>2021-01-09T13:28:26Z</time>
      </trkpt>
      <trkpt lat="45.46642" lon="4.67738">
        <ele>666.81</ele>
        <time>2021-01-09T13:28:38Z</time>
      </trkpt>
      <trkpt lat="45.46649" lon="4.67734">
        <ele>668.25</ele>
        <time>2021-01-09T13:28:44Z</time>
      </trkpt>
      <trkpt lat="45.46657" lon="4.67733">
        <ele>670.18</ele>
        <time>2021-01-09T13:28:50Z</time>
      </trkpt>
      <trkpt lat="45.46659" lon="4.67733">
        <ele>670.66</ele>
        <time>2021-01-09T13:28:51Z</time>
      </trkpt>
      <trkpt lat="45.46661" lon="4.67733">
        <ele>670.66</ele>
        <time>2021-01-09T13:28:52Z</time>
      </trkpt>
      <trkpt lat="45.46679" lon="4.67739">
        <ele>674.02</ele>
        <time>2021-01-09T13:29:03Z</time>
      </trkpt>
      <trkpt lat="45.46706" lon="4.6774">
        <ele>675.94</ele>
        <time>2021-01-09T13:29:16Z</time>
      </trkpt>
      <trkpt lat="45.46729" lon="4.67743">
        <ele>676.91</ele>
        <time>2021-01-09T13:29:28Z</time>
      </trkpt>
      <trkpt lat="45.4675" lon="4.67745">
        <ele>678.83</ele>
        <time>2021-01-09T13:29:40Z</time>
      </trkpt>
      <trkpt lat="45.46773" lon="4.67749">
        <ele>681.23</ele>
        <time>2021-01-09T13:29:54Z</time>
      </trkpt>
      <trkpt lat="45.46786" lon="4.67751">
        <ele>683.63</ele>
        <time>2021-01-09T13:30:03Z</time>
      </trkpt>
      <trkpt lat="45.46787" lon="4.67751">
        <ele>683.63</ele>
        <time>2021-01-09T13:30:04Z</time>
      </trkpt>
      <trkpt lat="45.46789" lon="4.67752">
        <ele>683.63</ele>
        <time>2021-01-09T13:30:05Z</time>
      </trkpt>
      <trkpt lat="45.4679" lon="4.67753">
        <ele>683.63</ele>
        <time>2021-01-09T13:30:06Z</time>
      </trkpt>
      <trkpt lat="45.46792" lon="4.67753">
        <ele>684.6</ele>
        <time>2021-01-09T13:30:07Z</time>
      </trkpt>
      <trkpt lat="45.46793" lon="4.67753">
        <ele>684.6</ele>
        <time>2021-01-09T13:30:08Z</time>
      </trkpt>
      <trkpt lat="45.46795" lon="4.67754">
        <ele>685.08</ele>
        <time>2021-01-09T13:30:09Z</time>
      </trkpt>
      <trkpt lat="45.46796" lon="4.67754">
        <ele>685.56</ele>
        <time>2021-01-09T13:30:10Z</time>
      </trkpt>
      <trkpt lat="45.46798" lon="4.67754">
        <ele>686.04</ele>
        <time>2021-01-09T13:30:11Z</time>
      </trkpt>
      <trkpt lat="45.46799" lon="4.67754">
        <ele>686.04</ele>
        <time>2021-01-09T13:30:12Z</time>
      </trkpt>
      <trkpt lat="45.468" lon="4.67755">
        <ele>686.52</ele>
        <time>2021-01-09T13:30:13Z</time>
      </trkpt>
      <trkpt lat="45.46801" lon="4.67755">
        <ele>686.52</ele>
        <time>2021-01-09T13:30:14Z</time>
      </trkpt>
      <trkpt lat="45.46803" lon="4.67755">
        <ele>687</ele>
        <time>2021-01-09T13:30:15Z</time>
      </trkpt>
      <trkpt lat="45.46805" lon="4.67756">
        <ele>687.48</ele>
        <time>2021-01-09T13:30:16Z</time>
      </trkpt>
      <trkpt lat="45.46806" lon="4.67756">
        <ele>687.96</ele>
        <time>2021-01-09T13:30:17Z</time>
      </trkpt>
      <trkpt lat="45.46811" lon="4.67757">
        <ele>687.96</ele>
        <time>2021-01-09T13:30:20Z</time>
      </trkpt>
      <trkpt lat="45.46812" lon="4.67757">
        <ele>688.44</ele>
        <time>2021-01-09T13:30:21Z</time>
      </trkpt>
      <trkpt lat="45.46834" lon="4.67755">
        <ele>690.36</ele>
        <time>2021-01-09T13:30:35Z</time>
      </trkpt>
      <trkpt lat="45.46855" lon="4.67753">
        <ele>691.81</ele>
        <time>2021-01-09T13:30:49Z</time>
      </trkpt>
      <trkpt lat="45.46871" lon="4.67759">
        <ele>694.69</ele>
        <time>2021-01-09T13:31:01Z</time>
      </trkpt>
      <trkpt lat="45.46883" lon="4.67764">
        <ele>697.09</ele>
        <time>2021-01-09T13:31:11Z</time>
      </trkpt>
      <trkpt lat="45.46885" lon="4.67765">
        <ele>697.09</ele>
        <time>2021-01-09T13:31:12Z</time>
      </trkpt>
      <trkpt lat="45.46886" lon="4.67766">
        <ele>697.57</ele>
        <time>2021-01-09T13:31:13Z</time>
      </trkpt>
      <trkpt lat="45.46888" lon="4.67766">
        <ele>697.57</ele>
        <time>2021-01-09T13:31:14Z</time>
      </trkpt>
      <trkpt lat="45.46889" lon="4.67767">
        <ele>697.57</ele>
        <time>2021-01-09T13:31:15Z</time>
      </trkpt>
      <trkpt lat="45.46891" lon="4.67767">
        <ele>698.05</ele>
        <time>2021-01-09T13:31:16Z</time>
      </trkpt>
      <trkpt lat="45.46892" lon="4.67768">
        <ele>698.05</ele>
        <time>2021-01-09T13:31:17Z</time>
      </trkpt>
      <trkpt lat="45.46899" lon="4.67773">
        <ele>699.98</ele>
        <time>2021-01-09T13:31:24Z</time>
      </trkpt>
      <trkpt lat="45.46903" lon="4.67778">
        <ele>700.46</ele>
        <time>2021-01-09T13:31:27Z</time>
      </trkpt>
      <trkpt lat="45.46904" lon="4.67779">
        <ele>700.94</ele>
        <time>2021-01-09T13:31:28Z</time>
      </trkpt>
      <trkpt lat="45.46906" lon="4.67781">
        <ele>701.42</ele>
        <time>2021-01-09T13:31:29Z</time>
      </trkpt>
      <trkpt lat="45.46908" lon="4.67782">
        <ele>701.42</ele>
        <time>2021-01-09T13:31:30Z</time>
      </trkpt>
      <trkpt lat="45.46909" lon="4.67783">
        <ele>701.42</ele>
        <time>2021-01-09T13:31:31Z</time>
      </trkpt>
      <trkpt lat="45.46911" lon="4.67783">
        <ele>701.42</ele>
        <time>2021-01-09T13:31:32Z</time>
      </trkpt>
      <trkpt lat="45.46913" lon="4.67783">
        <ele>701.42</ele>
        <time>2021-01-09T13:31:33Z</time>
      </trkpt>
      <trkpt lat="45.46914" lon="4.67784">
        <ele>701.9</ele>
        <time>2021-01-09T13:31:34Z</time>
      </trkpt>
      <trkpt lat="45.46916" lon="4.67784">
        <ele>701.9</ele>
        <time>2021-01-09T13:31:35Z</time>
      </trkpt>
      <trkpt lat="45.46917" lon="4.67786">
        <ele>701.9</ele>
        <time>2021-01-09T13:31:36Z</time>
      </trkpt>
      <trkpt lat="45.46918" lon="4.67787">
        <ele>702.38</ele>
        <time>2021-01-09T13:31:37Z</time>
      </trkpt>
      <trkpt lat="45.46918" lon="4.67792">
        <ele>702.86</ele>
        <time>2021-01-09T13:31:40Z</time>
      </trkpt>
      <trkpt lat="45.46912" lon="4.67815">
        <ele>705.26</ele>
        <time>2021-01-09T13:31:54Z</time>
      </trkpt>
      <trkpt lat="45.46911" lon="4.67822">
        <ele>706.71</ele>
        <time>2021-01-09T13:31:58Z</time>
      </trkpt>
      <trkpt lat="45.4691" lon="4.67824">
        <ele>706.71</ele>
        <time>2021-01-09T13:31:59Z</time>
      </trkpt>
      <trkpt lat="45.46909" lon="4.67829">
        <ele>707.19</ele>
        <time>2021-01-09T13:32:02Z</time>
      </trkpt>
      <trkpt lat="45.46907" lon="4.67853">
        <ele>709.11</ele>
        <time>2021-01-09T13:32:14Z</time>
      </trkpt>
      <trkpt lat="45.46905" lon="4.67878">
        <ele>711.03</ele>
        <time>2021-01-09T13:32:27Z</time>
      </trkpt>
      <trkpt lat="45.46895" lon="4.679">
        <ele>713.92</ele>
        <time>2021-01-09T13:32:39Z</time>
      </trkpt>
      <trkpt lat="45.46895" lon="4.67902">
        <ele>713.92</ele>
        <time>2021-01-09T13:32:40Z</time>
      </trkpt>
      <trkpt lat="45.46894" lon="4.67904">
        <ele>713.92</ele>
        <time>2021-01-09T13:32:41Z</time>
      </trkpt>
      <trkpt lat="45.46894" lon="4.67906">
        <ele>714.4</ele>
        <time>2021-01-09T13:32:42Z</time>
      </trkpt>
      <trkpt lat="45.46893" lon="4.67908">
        <ele>714.4</ele>
        <time>2021-01-09T13:32:43Z</time>
      </trkpt>
      <trkpt lat="45.46892" lon="4.6791">
        <ele>714.88</ele>
        <time>2021-01-09T13:32:44Z</time>
      </trkpt>
      <trkpt lat="45.46884" lon="4.67936">
        <ele>717.76</ele>
        <time>2021-01-09T13:32:57Z</time>
      </trkpt>
      <trkpt lat="45.46878" lon="4.67945">
        <ele>719.2</ele>
        <time>2021-01-09T13:33:03Z</time>
      </trkpt>
      <trkpt lat="45.46876" lon="4.67946">
        <ele>719.68</ele>
        <time>2021-01-09T13:33:04Z</time>
      </trkpt>
      <trkpt lat="45.46875" lon="4.67948">
        <ele>719.68</ele>
        <time>2021-01-09T13:33:05Z</time>
      </trkpt>
      <trkpt lat="45.46874" lon="4.67949">
        <ele>720.16</ele>
        <time>2021-01-09T13:33:06Z</time>
      </trkpt>
      <trkpt lat="45.46873" lon="4.67951">
        <ele>720.16</ele>
        <time>2021-01-09T13:33:07Z</time>
      </trkpt>
      <trkpt lat="45.46872" lon="4.67953">
        <ele>720.65</ele>
        <time>2021-01-09T13:33:08Z</time>
      </trkpt>
      <trkpt lat="45.46871" lon="4.67954">
        <ele>720.65</ele>
        <time>2021-01-09T13:33:09Z</time>
      </trkpt>
      <trkpt lat="45.4687" lon="4.67956">
        <ele>721.13</ele>
        <time>2021-01-09T13:33:10Z</time>
      </trkpt>
      <trkpt lat="45.46868" lon="4.67959">
        <ele>721.13</ele>
        <time>2021-01-09T13:33:12Z</time>
      </trkpt>
      <trkpt lat="45.46867" lon="4.6796">
        <ele>721.61</ele>
        <time>2021-01-09T13:33:13Z</time>
      </trkpt>
      <trkpt lat="45.46866" lon="4.67961">
        <ele>722.09</ele>
        <time>2021-01-09T13:33:14Z</time>
      </trkpt>
      <trkpt lat="45.46854" lon="4.67975">
        <ele>724.49</ele>
        <time>2021-01-09T13:33:26Z</time>
      </trkpt>
      <trkpt lat="45.46842" lon="4.67989">
        <ele>727.37</ele>
        <time>2021-01-09T13:33:37Z</time>
      </trkpt>
      <trkpt lat="45.46832" lon="4.68007">
        <ele>730.26</ele>
        <time>2021-01-09T13:33:49Z</time>
      </trkpt>
      <trkpt lat="45.46822" lon="4.68027">
        <ele>733.62</ele>
        <time>2021-01-09T13:34:01Z</time>
      </trkpt>
      <trkpt lat="45.46818" lon="4.68035">
        <ele>735.07</ele>
        <time>2021-01-09T13:34:07Z</time>
      </trkpt>
      <trkpt lat="45.46818" lon="4.68037">
        <ele>735.07</ele>
        <time>2021-01-09T13:34:08Z</time>
      </trkpt>
      <trkpt lat="45.46817" lon="4.68038">
        <ele>735.55</ele>
        <time>2021-01-09T13:34:09Z</time>
      </trkpt>
      <trkpt lat="45.46815" lon="4.68042">
        <ele>736.03</ele>
        <time>2021-01-09T13:34:11Z</time>
      </trkpt>
      <trkpt lat="45.46808" lon="4.68053">
        <ele>738.43</ele>
        <time>2021-01-09T13:34:18Z</time>
      </trkpt>
      <trkpt lat="45.46808" lon="4.68055">
        <ele>738.43</ele>
        <time>2021-01-09T13:34:19Z</time>
      </trkpt>
      <trkpt lat="45.46807" lon="4.68057">
        <ele>738.91</ele>
        <time>2021-01-09T13:34:20Z</time>
      </trkpt>
      <trkpt lat="45.46798" lon="4.68076">
        <ele>741.79</ele>
        <time>2021-01-09T13:34:31Z</time>
      </trkpt>
      <trkpt lat="45.46786" lon="4.68095">
        <ele>745.16</ele>
        <time>2021-01-09T13:34:43Z</time>
      </trkpt>
      <trkpt lat="45.46768" lon="4.68119">
        <ele>747.08</ele>
        <time>2021-01-09T13:34:57Z</time>
      </trkpt>
      <trkpt lat="45.4675" lon="4.68156">
        <ele>748.52</ele>
        <time>2021-01-09T13:35:13Z</time>
      </trkpt>
      <trkpt lat="45.46741" lon="4.68192">
        <ele>749.97</ele>
        <time>2021-01-09T13:35:26Z</time>
      </trkpt>
      <trkpt lat="45.46747" lon="4.68236">
        <ele>751.41</ele>
        <time>2021-01-09T13:35:40Z</time>
      </trkpt>
      <trkpt lat="45.46747" lon="4.68279">
        <ele>753.81</ele>
        <time>2021-01-09T13:35:55Z</time>
      </trkpt>
      <trkpt lat="45.46747" lon="4.68282">
        <ele>754.29</ele>
        <time>2021-01-09T13:35:56Z</time>
      </trkpt>
      <trkpt lat="45.46747" lon="4.68285">
        <ele>754.29</ele>
        <time>2021-01-09T13:35:57Z</time>
      </trkpt>
      <trkpt lat="45.46746" lon="4.68289">
        <ele>754.77</ele>
        <time>2021-01-09T13:35:58Z</time>
      </trkpt>
      <trkpt lat="45.46746" lon="4.68292">
        <ele>754.77</ele>
        <time>2021-01-09T13:35:59Z</time>
      </trkpt>
      <trkpt lat="45.46746" lon="4.68295">
        <ele>755.25</ele>
        <time>2021-01-09T13:36:00Z</time>
      </trkpt>
      <trkpt lat="45.46746" lon="4.68299">
        <ele>754.77</ele>
        <time>2021-01-09T13:36:01Z</time>
      </trkpt>
      <trkpt lat="45.46746" lon="4.68302">
        <ele>754.77</ele>
        <time>2021-01-09T13:36:02Z</time>
      </trkpt>
      <trkpt lat="45.46751" lon="4.6832">
        <ele>755.73</ele>
        <time>2021-01-09T13:36:08Z</time>
      </trkpt>
      <trkpt lat="45.46751" lon="4.68323">
        <ele>756.21</ele>
        <time>2021-01-09T13:36:09Z</time>
      </trkpt>
      <trkpt lat="45.46751" lon="4.68326">
        <ele>756.21</ele>
        <time>2021-01-09T13:36:10Z</time>
      </trkpt>
      <trkpt lat="45.46753" lon="4.68368">
        <ele>757.66</ele>
        <time>2021-01-09T13:36:23Z</time>
      </trkpt>
      <trkpt lat="45.46748" lon="4.68413">
        <ele>759.58</ele>
        <time>2021-01-09T13:36:36Z</time>
      </trkpt>
      <trkpt lat="45.46746" lon="4.68464">
        <ele>756.69</ele>
        <time>2021-01-09T13:36:47Z</time>
      </trkpt>
      <trkpt lat="45.46744" lon="4.68497">
        <ele>754.29</ele>
        <time>2021-01-09T13:36:52Z</time>
      </trkpt>
      <trkpt lat="45.46739" lon="4.68538">
        <ele>751.89</ele>
        <time>2021-01-09T13:36:57Z</time>
      </trkpt>
      <trkpt lat="45.46738" lon="4.68547">
        <ele>751.89</ele>
        <time>2021-01-09T13:36:58Z</time>
      </trkpt>
      <trkpt lat="45.46737" lon="4.68574">
        <ele>750.93</ele>
        <time>2021-01-09T13:37:01Z</time>
      </trkpt>
      <trkpt lat="45.46741" lon="4.68625">
        <ele>748.52</ele>
        <time>2021-01-09T13:37:07Z</time>
      </trkpt>
      <trkpt lat="45.46741" lon="4.68634">
        <ele>748.04</ele>
        <time>2021-01-09T13:37:08Z</time>
      </trkpt>
      <trkpt lat="45.46741" lon="4.68644">
        <ele>747.56</ele>
        <time>2021-01-09T13:37:09Z</time>
      </trkpt>
      <trkpt lat="45.46746" lon="4.68684">
        <ele>744.68</ele>
        <time>2021-01-09T13:37:13Z</time>
      </trkpt>
      <trkpt lat="45.46754" lon="4.68742">
        <ele>747.56</ele>
        <time>2021-01-09T13:37:23Z</time>
      </trkpt>
      <trkpt lat="45.46761" lon="4.68785">
        <ele>749.97</ele>
        <time>2021-01-09T13:37:35Z</time>
      </trkpt>
      <trkpt lat="45.46765" lon="4.68821">
        <ele>753.33</ele>
        <time>2021-01-09T13:37:45Z</time>
      </trkpt>
      <trkpt lat="45.46774" lon="4.68861">
        <ele>755.73</ele>
        <time>2021-01-09T13:37:58Z</time>
      </trkpt>
      <trkpt lat="45.46791" lon="4.68917">
        <ele>754.77</ele>
        <time>2021-01-09T13:38:13Z</time>
      </trkpt>
      <trkpt lat="45.46804" lon="4.68945">
        <ele>752.85</ele>
        <time>2021-01-09T13:38:18Z</time>
      </trkpt>
      <trkpt lat="45.46807" lon="4.68951">
        <ele>752.37</ele>
        <time>2021-01-09T13:38:19Z</time>
      </trkpt>
      <trkpt lat="45.4682" lon="4.68987">
        <ele>752.85</ele>
        <time>2021-01-09T13:38:25Z</time>
      </trkpt>
      <trkpt lat="45.46821" lon="4.68993">
        <ele>752.85</ele>
        <time>2021-01-09T13:38:26Z</time>
      </trkpt>
      <trkpt lat="45.46823" lon="4.68998">
        <ele>752.85</ele>
        <time>2021-01-09T13:38:27Z</time>
      </trkpt>
      <trkpt lat="45.46825" lon="4.69004">
        <ele>752.37</ele>
        <time>2021-01-09T13:38:28Z</time>
      </trkpt>
      <trkpt lat="45.46827" lon="4.69009">
        <ele>752.37</ele>
        <time>2021-01-09T13:38:29Z</time>
      </trkpt>
      <trkpt lat="45.46829" lon="4.69013">
        <ele>752.85</ele>
        <time>2021-01-09T13:38:30Z</time>
      </trkpt>
      <trkpt lat="45.46831" lon="4.69018">
        <ele>752.85</ele>
        <time>2021-01-09T13:38:31Z</time>
      </trkpt>
      <trkpt lat="45.46841" lon="4.69056">
        <ele>753.33</ele>
        <time>2021-01-09T13:38:41Z</time>
      </trkpt>
      <trkpt lat="45.46847" lon="4.69094">
        <ele>755.73</ele>
        <time>2021-01-09T13:38:52Z</time>
      </trkpt>
      <trkpt lat="45.4685" lon="4.69107">
        <ele>756.69</ele>
        <time>2021-01-09T13:38:57Z</time>
      </trkpt>
      <trkpt lat="45.46851" lon="4.69109">
        <ele>756.69</ele>
        <time>2021-01-09T13:38:58Z</time>
      </trkpt>
      <trkpt lat="45.46855" lon="4.69138">
        <ele>759.1</ele>
        <time>2021-01-09T13:39:08Z</time>
      </trkpt>
      <trkpt lat="45.46855" lon="4.69141">
        <ele>759.58</ele>
        <time>2021-01-09T13:39:09Z</time>
      </trkpt>
      <trkpt lat="45.46859" lon="4.69166">
        <ele>761.98</ele>
        <time>2021-01-09T13:39:19Z</time>
      </trkpt>
      <trkpt lat="45.4686" lon="4.69173">
        <ele>762.94</ele>
        <time>2021-01-09T13:39:22Z</time>
      </trkpt>
      <trkpt lat="45.46863" lon="4.69186">
        <ele>763.9</ele>
        <time>2021-01-09T13:39:33Z</time>
      </trkpt>
      <trkpt lat="45.46865" lon="4.69203">
        <ele>765.35</ele>
        <time>2021-01-09T13:39:47Z</time>
      </trkpt>
      <trkpt lat="45.46867" lon="4.69211">
        <ele>765.35</ele>
        <time>2021-01-09T13:39:57Z</time>
      </trkpt>
      <trkpt lat="45.46868" lon="4.69214">
        <ele>765.83</ele>
        <time>2021-01-09T13:39:58Z</time>
      </trkpt>
      <trkpt lat="45.46869" lon="4.69216">
        <ele>765.83</ele>
        <time>2021-01-09T13:39:59Z</time>
      </trkpt>
      <trkpt lat="45.46871" lon="4.69226">
        <ele>767.75</ele>
        <time>2021-01-09T13:40:04Z</time>
      </trkpt>
      <trkpt lat="45.46872" lon="4.69228">
        <ele>767.75</ele>
        <time>2021-01-09T13:40:05Z</time>
      </trkpt>
      <trkpt lat="45.46873" lon="4.6923">
        <ele>767.75</ele>
        <time>2021-01-09T13:40:06Z</time>
      </trkpt>
      <trkpt lat="45.46874" lon="4.69232">
        <ele>767.27</ele>
        <time>2021-01-09T13:40:07Z</time>
      </trkpt>
      <trkpt lat="45.46875" lon="4.69234">
        <ele>767.75</ele>
        <time>2021-01-09T13:40:08Z</time>
      </trkpt>
      <trkpt lat="45.46876" lon="4.69237">
        <ele>767.27</ele>
        <time>2021-01-09T13:40:09Z</time>
      </trkpt>
      <trkpt lat="45.46878" lon="4.69239">
        <ele>767.27</ele>
        <time>2021-01-09T13:40:10Z</time>
      </trkpt>
      <trkpt lat="45.46879" lon="4.69241">
        <ele>767.75</ele>
        <time>2021-01-09T13:40:11Z</time>
      </trkpt>
      <trkpt lat="45.46881" lon="4.69243">
        <ele>768.23</ele>
        <time>2021-01-09T13:40:12Z</time>
      </trkpt>
      <trkpt lat="45.46882" lon="4.69245">
        <ele>768.71</ele>
        <time>2021-01-09T13:40:13Z</time>
      </trkpt>
      <trkpt lat="45.46883" lon="4.69246">
        <ele>769.19</ele>
        <time>2021-01-09T13:40:14Z</time>
      </trkpt>
      <trkpt lat="45.46885" lon="4.69249">
        <ele>769.19</ele>
        <time>2021-01-09T13:40:15Z</time>
      </trkpt>
      <trkpt lat="45.46886" lon="4.69251">
        <ele>768.71</ele>
        <time>2021-01-09T13:40:16Z</time>
      </trkpt>
      <trkpt lat="45.46911" lon="4.69284">
        <ele>769.19</ele>
        <time>2021-01-09T13:40:30Z</time>
      </trkpt>
      <trkpt lat="45.46936" lon="4.69321">
        <ele>770.63</ele>
        <time>2021-01-09T13:40:44Z</time>
      </trkpt>
      <trkpt lat="45.46964" lon="4.69372">
        <ele>769.19</ele>
        <time>2021-01-09T13:40:57Z</time>
      </trkpt>
      <trkpt lat="45.46987" lon="4.69413">
        <ele>769.67</ele>
        <time>2021-01-09T13:41:09Z</time>
      </trkpt>
      <trkpt lat="45.46988" lon="4.69415">
        <ele>770.15</ele>
        <time>2021-01-09T13:41:10Z</time>
      </trkpt>
      <trkpt lat="45.4699" lon="4.69417">
        <ele>771.11</ele>
        <time>2021-01-09T13:41:11Z</time>
      </trkpt>
      <trkpt lat="45.46991" lon="4.6942">
        <ele>771.11</ele>
        <time>2021-01-09T13:41:12Z</time>
      </trkpt>
      <trkpt lat="45.46992" lon="4.69422">
        <ele>771.6</ele>
        <time>2021-01-09T13:41:13Z</time>
      </trkpt>
      <trkpt lat="45.46993" lon="4.69424">
        <ele>771.6</ele>
        <time>2021-01-09T13:41:14Z</time>
      </trkpt>
      <trkpt lat="45.46995" lon="4.69427">
        <ele>772.08</ele>
        <time>2021-01-09T13:41:15Z</time>
      </trkpt>
      <trkpt lat="45.46996" lon="4.69429">
        <ele>771.6</ele>
        <time>2021-01-09T13:41:16Z</time>
      </trkpt>
      <trkpt lat="45.46997" lon="4.69431">
        <ele>772.08</ele>
        <time>2021-01-09T13:41:17Z</time>
      </trkpt>
      <trkpt lat="45.46998" lon="4.69433">
        <ele>772.08</ele>
        <time>2021-01-09T13:41:18Z</time>
      </trkpt>
      <trkpt lat="45.46999" lon="4.69435">
        <ele>772.08</ele>
        <time>2021-01-09T13:41:19Z</time>
      </trkpt>
      <trkpt lat="45.47" lon="4.69438">
        <ele>772.56</ele>
        <time>2021-01-09T13:41:20Z</time>
      </trkpt>
      <trkpt lat="45.47002" lon="4.6944">
        <ele>773.04</ele>
        <time>2021-01-09T13:41:21Z</time>
      </trkpt>
      <trkpt lat="45.47003" lon="4.69442">
        <ele>773.52</ele>
        <time>2021-01-09T13:41:22Z</time>
      </trkpt>
      <trkpt lat="45.47004" lon="4.69444">
        <ele>774</ele>
        <time>2021-01-09T13:41:23Z</time>
      </trkpt>
      <trkpt lat="45.47018" lon="4.69469">
        <ele>775.92</ele>
        <time>2021-01-09T13:41:38Z</time>
      </trkpt>
      <trkpt lat="45.4702" lon="4.69471">
        <ele>776.88</ele>
        <time>2021-01-09T13:41:54Z</time>
      </trkpt>
      <trkpt lat="45.47019" lon="4.69472">
        <ele>776.88</ele>
        <time>2021-01-09T13:42:06Z</time>
      </trkpt>
      <trkpt lat="45.47018" lon="4.69472">
        <ele>776.4</ele>
        <time>2021-01-09T13:42:38Z</time>
      </trkpt>
      <trkpt lat="45.47018" lon="4.69472">
        <ele>775.92</ele>
        <time>2021-01-09T13:43:15Z</time>
      </trkpt>
      <trkpt lat="45.47019" lon="4.69472">
        <ele>776.4</ele>
        <time>2021-01-09T13:43:49Z</time>
      </trkpt>
      <trkpt lat="45.47019" lon="4.69472">
        <ele>776.4</ele>
        <time>2021-01-09T13:44:07Z</time>
      </trkpt>
      <trkpt lat="45.47018" lon="4.69473">
        <ele>774.96</ele>
        <time>2021-01-09T13:44:38Z</time>
      </trkpt>
      <trkpt lat="45.47018" lon="4.69473">
        <ele>774.96</ele>
        <time>2021-01-09T13:45:10Z</time>
      </trkpt>
      <trkpt lat="45.47019" lon="4.69472">
        <ele>774.48</ele>
        <time>2021-01-09T13:45:38Z</time>
      </trkpt>
      <trkpt lat="45.47019" lon="4.69472">
        <ele>774.96</ele>
        <time>2021-01-09T13:46:00Z</time>
      </trkpt>
      <trkpt lat="45.47017" lon="4.69474">
        <ele>774.96</ele>
        <time>2021-01-09T13:46:11Z</time>
      </trkpt>
      <trkpt lat="45.47014" lon="4.69477">
        <ele>774</ele>
        <time>2021-01-09T13:46:21Z</time>
      </trkpt>
      <trkpt lat="45.47014" lon="4.69479">
        <ele>773.52</ele>
        <time>2021-01-09T13:46:22Z</time>
      </trkpt>
      <trkpt lat="45.47013" lon="4.69483">
        <ele>774</ele>
        <time>2021-01-09T13:46:23Z</time>
      </trkpt>
      <trkpt lat="45.47013" lon="4.69486">
        <ele>773.52</ele>
        <time>2021-01-09T13:46:24Z</time>
      </trkpt>
      <trkpt lat="45.47013" lon="4.69489">
        <ele>773.04</ele>
        <time>2021-01-09T13:46:25Z</time>
      </trkpt>
      <trkpt lat="45.47013" lon="4.69492">
        <ele>772.56</ele>
        <time>2021-01-09T13:46:26Z</time>
      </trkpt>
      <trkpt lat="45.47014" lon="4.69495">
        <ele>772.08</ele>
        <time>2021-01-09T13:46:27Z</time>
      </trkpt>
      <trkpt lat="45.47014" lon="4.69498">
        <ele>771.6</ele>
        <time>2021-01-09T13:46:28Z</time>
      </trkpt>
      <trkpt lat="45.47016" lon="4.69499">
        <ele>771.11</ele>
        <time>2021-01-09T13:46:29Z</time>
      </trkpt>
      <trkpt lat="45.47017" lon="4.69502">
        <ele>770.63</ele>
        <time>2021-01-09T13:46:30Z</time>
      </trkpt>
      <trkpt lat="45.47019" lon="4.69506">
        <ele>770.63</ele>
        <time>2021-01-09T13:46:31Z</time>
      </trkpt>
      <trkpt lat="45.47019" lon="4.6951">
        <ele>770.15</ele>
        <time>2021-01-09T13:46:32Z</time>
      </trkpt>
      <trkpt lat="45.4702" lon="4.69514">
        <ele>769.67</ele>
        <time>2021-01-09T13:46:33Z</time>
      </trkpt>
      <trkpt lat="45.47021" lon="4.6952">
        <ele>768.71</ele>
        <time>2021-01-09T13:46:34Z</time>
      </trkpt>
      <trkpt lat="45.47022" lon="4.69525">
        <ele>767.75</ele>
        <time>2021-01-09T13:46:35Z</time>
      </trkpt>
      <trkpt lat="45.47023" lon="4.69529">
        <ele>767.27</ele>
        <time>2021-01-09T13:46:36Z</time>
      </trkpt>
      <trkpt lat="45.47024" lon="4.69533">
        <ele>766.31</ele>
        <time>2021-01-09T13:46:37Z</time>
      </trkpt>
      <trkpt lat="45.47026" lon="4.69538">
        <ele>765.35</ele>
        <time>2021-01-09T13:46:38Z</time>
      </trkpt>
      <trkpt lat="45.47027" lon="4.69547">
        <ele>764.39</ele>
        <time>2021-01-09T13:46:40Z</time>
      </trkpt>
      <trkpt lat="45.47026" lon="4.69549">
        <ele>763.9</ele>
        <time>2021-01-09T13:46:41Z</time>
      </trkpt>
      <trkpt lat="45.47025" lon="4.69551">
        <ele>763.9</ele>
        <time>2021-01-09T13:46:42Z</time>
      </trkpt>
      <trkpt lat="45.47024" lon="4.69554">
        <ele>763.42</ele>
        <time>2021-01-09T13:46:43Z</time>
      </trkpt>
      <trkpt lat="45.47023" lon="4.69556">
        <ele>762.46</ele>
        <time>2021-01-09T13:46:44Z</time>
      </trkpt>
      <trkpt lat="45.47022" lon="4.69559">
        <ele>761.02</ele>
        <time>2021-01-09T13:46:45Z</time>
      </trkpt>
      <trkpt lat="45.47023" lon="4.69563">
        <ele>760.54</ele>
        <time>2021-01-09T13:46:46Z</time>
      </trkpt>
      <trkpt lat="45.47024" lon="4.69566">
        <ele>759.58</ele>
        <time>2021-01-09T13:46:47Z</time>
      </trkpt>
      <trkpt lat="45.47027" lon="4.6957">
        <ele>759.58</ele>
        <time>2021-01-09T13:46:48Z</time>
      </trkpt>
      <trkpt lat="45.47029" lon="4.69573">
        <ele>759.1</ele>
        <time>2021-01-09T13:46:49Z</time>
      </trkpt>
      <trkpt lat="45.47031" lon="4.69576">
        <ele>759.1</ele>
        <time>2021-01-09T13:46:50Z</time>
      </trkpt>
      <trkpt lat="45.47033" lon="4.69578">
        <ele>759.1</ele>
        <time>2021-01-09T13:46:51Z</time>
      </trkpt>
      <trkpt lat="45.47035" lon="4.6959">
        <ele>756.69</ele>
        <time>2021-01-09T13:46:55Z</time>
      </trkpt>
      <trkpt lat="45.47035" lon="4.69594">
        <ele>756.69</ele>
        <time>2021-01-09T13:46:56Z</time>
      </trkpt>
      <trkpt lat="45.47033" lon="4.69597">
        <ele>756.21</ele>
        <time>2021-01-09T13:46:57Z</time>
      </trkpt>
      <trkpt lat="45.47023" lon="4.69614">
        <ele>753.33</ele>
        <time>2021-01-09T13:47:02Z</time>
      </trkpt>
      <trkpt lat="45.47022" lon="4.69619">
        <ele>752.85</ele>
        <time>2021-01-09T13:47:03Z</time>
      </trkpt>
      <trkpt lat="45.47022" lon="4.69622">
        <ele>751.89</ele>
        <time>2021-01-09T13:47:04Z</time>
      </trkpt>
      <trkpt lat="45.47018" lon="4.69646">
        <ele>748.04</ele>
        <time>2021-01-09T13:47:10Z</time>
      </trkpt>
      <trkpt lat="45.47019" lon="4.6965">
        <ele>747.56</ele>
        <time>2021-01-09T13:47:11Z</time>
      </trkpt>
      <trkpt lat="45.47021" lon="4.6966">
        <ele>745.16</ele>
        <time>2021-01-09T13:47:13Z</time>
      </trkpt>
      <trkpt lat="45.47023" lon="4.69665">
        <ele>744.68</ele>
        <time>2021-01-09T13:47:14Z</time>
      </trkpt>
      <trkpt lat="45.47024" lon="4.69669">
        <ele>743.72</ele>
        <time>2021-01-09T13:47:15Z</time>
      </trkpt>
      <trkpt lat="45.47025" lon="4.69675">
        <ele>742.76</ele>
        <time>2021-01-09T13:47:16Z</time>
      </trkpt>
      <trkpt lat="45.47025" lon="4.69681">
        <ele>741.79</ele>
        <time>2021-01-09T13:47:17Z</time>
      </trkpt>
      <trkpt lat="45.47026" lon="4.69687">
        <ele>740.35</ele>
        <time>2021-01-09T13:47:18Z</time>
      </trkpt>
      <trkpt lat="45.47033" lon="4.69703">
        <ele>737.47</ele>
        <time>2021-01-09T13:47:22Z</time>
      </trkpt>
      <trkpt lat="45.47034" lon="4.69707">
        <ele>736.03</ele>
        <time>2021-01-09T13:47:24Z</time>
      </trkpt>
      <trkpt lat="45.47033" lon="4.6971">
        <ele>735.55</ele>
        <time>2021-01-09T13:47:25Z</time>
      </trkpt>
      <trkpt lat="45.47032" lon="4.69713">
        <ele>734.58</ele>
        <time>2021-01-09T13:47:26Z</time>
      </trkpt>
      <trkpt lat="45.47031" lon="4.6972">
        <ele>733.14</ele>
        <time>2021-01-09T13:47:28Z</time>
      </trkpt>
      <trkpt lat="45.47032" lon="4.69723">
        <ele>732.18</ele>
        <time>2021-01-09T13:47:29Z</time>
      </trkpt>
      <trkpt lat="45.47034" lon="4.69727">
        <ele>730.26</ele>
        <time>2021-01-09T13:47:30Z</time>
      </trkpt>
      <trkpt lat="45.47035" lon="4.69731">
        <ele>729.3</ele>
        <time>2021-01-09T13:47:31Z</time>
      </trkpt>
      <trkpt lat="45.47037" lon="4.69735">
        <ele>728.34</ele>
        <time>2021-01-09T13:47:32Z</time>
      </trkpt>
      <trkpt lat="45.47038" lon="4.69739">
        <ele>726.89</ele>
        <time>2021-01-09T13:47:33Z</time>
      </trkpt>
      <trkpt lat="45.47037" lon="4.6975">
        <ele>723.05</ele>
        <time>2021-01-09T13:47:37Z</time>
      </trkpt>
      <trkpt lat="45.47039" lon="4.69756">
        <ele>721.13</ele>
        <time>2021-01-09T13:47:39Z</time>
      </trkpt>
      <trkpt lat="45.47028" lon="4.69767">
        <ele>717.76</ele>
        <time>2021-01-09T13:47:44Z</time>
      </trkpt>
      <trkpt lat="45.47025" lon="4.69768">
        <ele>717.28</ele>
        <time>2021-01-09T13:47:45Z</time>
      </trkpt>
      <trkpt lat="45.47023" lon="4.69768">
        <ele>716.8</ele>
        <time>2021-01-09T13:47:46Z</time>
      </trkpt>
      <trkpt lat="45.47016" lon="4.6977">
        <ele>717.28</ele>
        <time>2021-01-09T13:47:57Z</time>
      </trkpt>
      <trkpt lat="45.47015" lon="4.6977">
        <ele>716.8</ele>
        <time>2021-01-09T13:48:02Z</time>
      </trkpt>
      <trkpt lat="45.4701" lon="4.6978">
        <ele>714.88</ele>
        <time>2021-01-09T13:48:10Z</time>
      </trkpt>
      <trkpt lat="45.47011" lon="4.6978">
        <ele>713.92</ele>
        <time>2021-01-09T13:48:23Z</time>
      </trkpt>
      <trkpt lat="45.47017" lon="4.69781">
        <ele>713.44</ele>
        <time>2021-01-09T13:48:27Z</time>
      </trkpt>
      <trkpt lat="45.47032" lon="4.69785">
        <ele>711.99</ele>
        <time>2021-01-09T13:48:37Z</time>
      </trkpt>
      <trkpt lat="45.47032" lon="4.69785">
        <ele>711.51</ele>
        <time>2021-01-09T13:48:43Z</time>
      </trkpt>
      <trkpt lat="45.47058" lon="4.69788">
        <ele>707.67</ele>
        <time>2021-01-09T13:48:49Z</time>
      </trkpt>
      <trkpt lat="45.47083" lon="4.69788">
        <ele>705.26</ele>
        <time>2021-01-09T13:48:53Z</time>
      </trkpt>
      <trkpt lat="45.47089" lon="4.69786">
        <ele>704.78</ele>
        <time>2021-01-09T13:48:54Z</time>
      </trkpt>
      <trkpt lat="45.47095" lon="4.69784">
        <ele>704.3</ele>
        <time>2021-01-09T13:48:55Z</time>
      </trkpt>
      <trkpt lat="45.47105" lon="4.69781">
        <ele>704.3</ele>
        <time>2021-01-09T13:48:57Z</time>
      </trkpt>
      <trkpt lat="45.47145" lon="4.69774">
        <ele>704.78</ele>
        <time>2021-01-09T13:49:07Z</time>
      </trkpt>
      <trkpt lat="45.47152" lon="4.69772">
        <ele>704.78</ele>
        <time>2021-01-09T13:49:14Z</time>
      </trkpt>
      <trkpt lat="45.47154" lon="4.69772">
        <ele>704.78</ele>
        <time>2021-01-09T13:49:15Z</time>
      </trkpt>
      <trkpt lat="45.47158" lon="4.69772">
        <ele>704.3</ele>
        <time>2021-01-09T13:49:16Z</time>
      </trkpt>
      <trkpt lat="45.47161" lon="4.69772">
        <ele>704.3</ele>
        <time>2021-01-09T13:49:17Z</time>
      </trkpt>
      <trkpt lat="45.47165" lon="4.69771">
        <ele>704.3</ele>
        <time>2021-01-09T13:49:18Z</time>
      </trkpt>
      <trkpt lat="45.47169" lon="4.69771">
        <ele>704.3</ele>
        <time>2021-01-09T13:49:19Z</time>
      </trkpt>
      <trkpt lat="45.47172" lon="4.6977">
        <ele>704.3</ele>
        <time>2021-01-09T13:49:20Z</time>
      </trkpt>
      <trkpt lat="45.47216" lon="4.69741">
        <ele>703.34</ele>
        <time>2021-01-09T13:49:32Z</time>
      </trkpt>
      <trkpt lat="45.47242" lon="4.69712">
        <ele>699.98</ele>
        <time>2021-01-09T13:49:39Z</time>
      </trkpt>
      <trkpt lat="45.47268" lon="4.6968">
        <ele>696.61</ele>
        <time>2021-01-09T13:49:45Z</time>
      </trkpt>
      <trkpt lat="45.47288" lon="4.69657">
        <ele>692.77</ele>
        <time>2021-01-09T13:49:49Z</time>
      </trkpt>
      <trkpt lat="45.47316" lon="4.69625">
        <ele>689.4</ele>
        <time>2021-01-09T13:49:54Z</time>
      </trkpt>
      <trkpt lat="45.47336" lon="4.69593">
        <ele>686.52</ele>
        <time>2021-01-09T13:49:58Z</time>
      </trkpt>
      <trkpt lat="45.47357" lon="4.69556">
        <ele>683.15</ele>
        <time>2021-01-09T13:50:02Z</time>
      </trkpt>
      <trkpt lat="45.47373" lon="4.69531">
        <ele>680.75</ele>
        <time>2021-01-09T13:50:05Z</time>
      </trkpt>
      <trkpt lat="45.47379" lon="4.69526">
        <ele>678.83</ele>
        <time>2021-01-09T13:50:06Z</time>
      </trkpt>
      <trkpt lat="45.47386" lon="4.69521">
        <ele>678.35</ele>
        <time>2021-01-09T13:50:07Z</time>
      </trkpt>
      <trkpt lat="45.47394" lon="4.69518">
        <ele>677.87</ele>
        <time>2021-01-09T13:50:08Z</time>
      </trkpt>
      <trkpt lat="45.47402" lon="4.69516">
        <ele>676.91</ele>
        <time>2021-01-09T13:50:09Z</time>
      </trkpt>
      <trkpt lat="45.47419" lon="4.6951">
        <ele>675.46</ele>
        <time>2021-01-09T13:50:11Z</time>
      </trkpt>
      <trkpt lat="45.47425" lon="4.69505">
        <ele>675.46</ele>
        <time>2021-01-09T13:50:12Z</time>
      </trkpt>
      <trkpt lat="45.4743" lon="4.695">
        <ele>674.98</ele>
        <time>2021-01-09T13:50:13Z</time>
      </trkpt>
      <trkpt lat="45.47435" lon="4.69494">
        <ele>674.98</ele>
        <time>2021-01-09T13:50:14Z</time>
      </trkpt>
      <trkpt lat="45.47438" lon="4.69487">
        <ele>674.02</ele>
        <time>2021-01-09T13:50:15Z</time>
      </trkpt>
      <trkpt lat="45.4744" lon="4.6948">
        <ele>673.54</ele>
        <time>2021-01-09T13:50:16Z</time>
      </trkpt>
      <trkpt lat="45.47441" lon="4.69472">
        <ele>673.54</ele>
        <time>2021-01-09T13:50:17Z</time>
      </trkpt>
      <trkpt lat="45.47442" lon="4.69465">
        <ele>673.06</ele>
        <time>2021-01-09T13:50:18Z</time>
      </trkpt>
      <trkpt lat="45.47442" lon="4.69458">
        <ele>673.06</ele>
        <time>2021-01-09T13:50:19Z</time>
      </trkpt>
      <trkpt lat="45.47442" lon="4.6945">
        <ele>673.06</ele>
        <time>2021-01-09T13:50:20Z</time>
      </trkpt>
      <trkpt lat="45.47442" lon="4.69442">
        <ele>672.58</ele>
        <time>2021-01-09T13:50:21Z</time>
      </trkpt>
      <trkpt lat="45.47441" lon="4.69434">
        <ele>671.62</ele>
        <time>2021-01-09T13:50:22Z</time>
      </trkpt>
      <trkpt lat="45.4744" lon="4.69426">
        <ele>671.14</ele>
        <time>2021-01-09T13:50:23Z</time>
      </trkpt>
      <trkpt lat="45.47438" lon="4.6941">
        <ele>669.7</ele>
        <time>2021-01-09T13:50:25Z</time>
      </trkpt>
      <trkpt lat="45.47439" lon="4.69403">
        <ele>669.22</ele>
        <time>2021-01-09T13:50:26Z</time>
      </trkpt>
      <trkpt lat="45.47441" lon="4.69397">
        <ele>669.22</ele>
        <time>2021-01-09T13:50:27Z</time>
      </trkpt>
      <trkpt lat="45.47444" lon="4.69392">
        <ele>668.25</ele>
        <time>2021-01-09T13:50:28Z</time>
      </trkpt>
      <trkpt lat="45.47449" lon="4.69387">
        <ele>667.29</ele>
        <time>2021-01-09T13:50:29Z</time>
      </trkpt>
      <trkpt lat="45.47454" lon="4.69382">
        <ele>664.89</ele>
        <time>2021-01-09T13:50:30Z</time>
      </trkpt>
      <trkpt lat="45.4746" lon="4.69377">
        <ele>664.41</ele>
        <time>2021-01-09T13:50:31Z</time>
      </trkpt>
      <trkpt lat="45.47466" lon="4.69372">
        <ele>663.93</ele>
        <time>2021-01-09T13:50:32Z</time>
      </trkpt>
      <trkpt lat="45.47499" lon="4.69349">
        <ele>660.56</ele>
        <time>2021-01-09T13:50:38Z</time>
      </trkpt>
      <trkpt lat="45.47504" lon="4.69347">
        <ele>660.08</ele>
        <time>2021-01-09T13:50:39Z</time>
      </trkpt>
      <trkpt lat="45.47514" lon="4.69347">
        <ele>660.08</ele>
        <time>2021-01-09T13:50:41Z</time>
      </trkpt>
      <trkpt lat="45.47518" lon="4.69348">
        <ele>659.6</ele>
        <time>2021-01-09T13:50:42Z</time>
      </trkpt>
      <trkpt lat="45.47521" lon="4.69349">
        <ele>659.6</ele>
        <time>2021-01-09T13:50:43Z</time>
      </trkpt>
      <trkpt lat="45.47528" lon="4.69355">
        <ele>659.6</ele>
        <time>2021-01-09T13:50:51Z</time>
      </trkpt>
      <trkpt lat="45.47527" lon="4.69356">
        <ele>659.12</ele>
        <time>2021-01-09T13:51:18Z</time>
      </trkpt>
      <trkpt lat="45.47527" lon="4.69359">
        <ele>659.6</ele>
        <time>2021-01-09T13:51:33Z</time>
      </trkpt>
      <trkpt lat="45.47547" lon="4.69378">
        <ele>656.72</ele>
        <time>2021-01-09T14:02:28Z</time>
      </trkpt>
      <trkpt lat="45.4755" lon="4.69385">
        <ele>655.76</ele>
        <time>2021-01-09T14:02:29Z</time>
      </trkpt>
      <trkpt lat="45.47552" lon="4.69393">
        <ele>655.28</ele>
        <time>2021-01-09T14:02:30Z</time>
      </trkpt>
      <trkpt lat="45.47555" lon="4.69402">
        <ele>654.31</ele>
        <time>2021-01-09T14:02:31Z</time>
      </trkpt>
      <trkpt lat="45.47556" lon="4.69411">
        <ele>651.91</ele>
        <time>2021-01-09T14:02:32Z</time>
      </trkpt>
      <trkpt lat="45.47557" lon="4.69421">
        <ele>650.47</ele>
        <time>2021-01-09T14:02:33Z</time>
      </trkpt>
      <trkpt lat="45.47556" lon="4.6943">
        <ele>649.51</ele>
        <time>2021-01-09T14:02:34Z</time>
      </trkpt>
      <trkpt lat="45.47555" lon="4.69462">
        <ele>645.66</ele>
        <time>2021-01-09T14:02:37Z</time>
      </trkpt>
      <trkpt lat="45.47555" lon="4.69493">
        <ele>642.78</ele>
        <time>2021-01-09T14:02:40Z</time>
      </trkpt>
      <trkpt lat="45.47559" lon="4.6953">
        <ele>639.41</ele>
        <time>2021-01-09T14:02:44Z</time>
      </trkpt>
      <trkpt lat="45.47562" lon="4.69545">
        <ele>638.45</ele>
        <time>2021-01-09T14:02:46Z</time>
      </trkpt>
      <trkpt lat="45.47567" lon="4.69573">
        <ele>635.57</ele>
        <time>2021-01-09T14:02:50Z</time>
      </trkpt>
      <trkpt lat="45.47576" lon="4.69597">
        <ele>633.17</ele>
        <time>2021-01-09T14:02:53Z</time>
      </trkpt>
      <trkpt lat="45.47592" lon="4.6963">
        <ele>628.36</ele>
        <time>2021-01-09T14:02:57Z</time>
      </trkpt>
      <trkpt lat="45.47616" lon="4.6967">
        <ele>624.99</ele>
        <time>2021-01-09T14:03:02Z</time>
      </trkpt>
      <trkpt lat="45.47621" lon="4.69676">
        <ele>624.51</ele>
        <time>2021-01-09T14:03:03Z</time>
      </trkpt>
      <trkpt lat="45.47625" lon="4.6968">
        <ele>624.51</ele>
        <time>2021-01-09T14:03:04Z</time>
      </trkpt>
      <trkpt lat="45.47642" lon="4.697">
        <ele>624.99</ele>
        <time>2021-01-09T14:03:12Z</time>
      </trkpt>
      <trkpt lat="45.47642" lon="4.69704">
        <ele>625.47</ele>
        <time>2021-01-09T14:03:13Z</time>
      </trkpt>
      <trkpt lat="45.47641" lon="4.69707">
        <ele>624.51</ele>
        <time>2021-01-09T14:03:14Z</time>
      </trkpt>
      <trkpt lat="45.47608" lon="4.69735">
        <ele>621.63</ele>
        <time>2021-01-09T14:03:25Z</time>
      </trkpt>
      <trkpt lat="45.47604" lon="4.69742">
        <ele>621.63</ele>
        <time>2021-01-09T14:03:29Z</time>
      </trkpt>
      <trkpt lat="45.47604" lon="4.69744">
        <ele>622.11</ele>
        <time>2021-01-09T14:03:30Z</time>
      </trkpt>
      <trkpt lat="45.47603" lon="4.69746">
        <ele>621.63</ele>
        <time>2021-01-09T14:03:31Z</time>
      </trkpt>
      <trkpt lat="45.47595" lon="4.69763">
        <ele>618.26</ele>
        <time>2021-01-09T14:03:35Z</time>
      </trkpt>
      <trkpt lat="45.47592" lon="4.69768">
        <ele>616.82</ele>
        <time>2021-01-09T14:03:36Z</time>
      </trkpt>
      <trkpt lat="45.47589" lon="4.69774">
        <ele>615.38</ele>
        <time>2021-01-09T14:03:37Z</time>
      </trkpt>
      <trkpt lat="45.47584" lon="4.6979">
        <ele>613.46</ele>
        <time>2021-01-09T14:03:39Z</time>
      </trkpt>
      <trkpt lat="45.47576" lon="4.6982">
        <ele>610.09</ele>
        <time>2021-01-09T14:03:43Z</time>
      </trkpt>
      <trkpt lat="45.47574" lon="4.69826">
        <ele>609.13</ele>
        <time>2021-01-09T14:03:44Z</time>
      </trkpt>
      <trkpt lat="45.47573" lon="4.69833">
        <ele>609.13</ele>
        <time>2021-01-09T14:03:45Z</time>
      </trkpt>
      <trkpt lat="45.47564" lon="4.69861">
        <ele>605.77</ele>
        <time>2021-01-09T14:03:49Z</time>
      </trkpt>
      <trkpt lat="45.47557" lon="4.69884">
        <ele>603.36</ele>
        <time>2021-01-09T14:03:53Z</time>
      </trkpt>
      <trkpt lat="45.47555" lon="4.6989">
        <ele>603.36</ele>
        <time>2021-01-09T14:03:54Z</time>
      </trkpt>
      <trkpt lat="45.47552" lon="4.69896">
        <ele>602.88</ele>
        <time>2021-01-09T14:03:55Z</time>
      </trkpt>
      <trkpt lat="45.4755" lon="4.69902">
        <ele>601.92</ele>
        <time>2021-01-09T14:03:56Z</time>
      </trkpt>
      <trkpt lat="45.47549" lon="4.69908">
        <ele>601.44</ele>
        <time>2021-01-09T14:03:57Z</time>
      </trkpt>
      <trkpt lat="45.47547" lon="4.69914">
        <ele>600.48</ele>
        <time>2021-01-09T14:03:58Z</time>
      </trkpt>
      <trkpt lat="45.47541" lon="4.69939">
        <ele>598.08</ele>
        <time>2021-01-09T14:04:02Z</time>
      </trkpt>
      <trkpt lat="45.47533" lon="4.69965">
        <ele>594.71</ele>
        <time>2021-01-09T14:04:06Z</time>
      </trkpt>
      <trkpt lat="45.47525" lon="4.69999">
        <ele>590.87</ele>
        <time>2021-01-09T14:04:10Z</time>
      </trkpt>
      <trkpt lat="45.47518" lon="4.70028">
        <ele>587.02</ele>
        <time>2021-01-09T14:04:13Z</time>
      </trkpt>
      <trkpt lat="45.47511" lon="4.70058">
        <ele>585.58</ele>
        <time>2021-01-09T14:04:16Z</time>
      </trkpt>
      <trkpt lat="45.47509" lon="4.70064">
        <ele>585.58</ele>
        <time>2021-01-09T14:04:17Z</time>
      </trkpt>
      <trkpt lat="45.47503" lon="4.70079">
        <ele>586.06</ele>
        <time>2021-01-09T14:04:20Z</time>
      </trkpt>
      <trkpt lat="45.47501" lon="4.70084">
        <ele>585.58</ele>
        <time>2021-01-09T14:04:21Z</time>
      </trkpt>
      <trkpt lat="45.47498" lon="4.70095">
        <ele>585.58</ele>
        <time>2021-01-09T14:04:23Z</time>
      </trkpt>
      <trkpt lat="45.47496" lon="4.70101">
        <ele>584.62</ele>
        <time>2021-01-09T14:04:24Z</time>
      </trkpt>
      <trkpt lat="45.47493" lon="4.70107">
        <ele>584.62</ele>
        <time>2021-01-09T14:04:25Z</time>
      </trkpt>
      <trkpt lat="45.47458" lon="4.70189">
        <ele>581.25</ele>
        <time>2021-01-09T14:04:36Z</time>
      </trkpt>
      <trkpt lat="45.47443" lon="4.70223">
        <ele>579.33</ele>
        <time>2021-01-09T14:04:40Z</time>
      </trkpt>
      <trkpt lat="45.47439" lon="4.70231">
        <ele>578.85</ele>
        <time>2021-01-09T14:04:41Z</time>
      </trkpt>
      <trkpt lat="45.47403" lon="4.70288">
        <ele>576.93</ele>
        <time>2021-01-09T14:04:49Z</time>
      </trkpt>
      <trkpt lat="45.47384" lon="4.70324">
        <ele>575.49</ele>
        <time>2021-01-09T14:04:54Z</time>
      </trkpt>
      <trkpt lat="45.47381" lon="4.70332">
        <ele>575.01</ele>
        <time>2021-01-09T14:04:55Z</time>
      </trkpt>
      <trkpt lat="45.47377" lon="4.7034">
        <ele>574.53</ele>
        <time>2021-01-09T14:04:56Z</time>
      </trkpt>
      <trkpt lat="45.47353" lon="4.70399">
        <ele>571.64</ele>
        <time>2021-01-09T14:05:03Z</time>
      </trkpt>
      <trkpt lat="45.4735" lon="4.70408">
        <ele>571.16</ele>
        <time>2021-01-09T14:05:04Z</time>
      </trkpt>
      <trkpt lat="45.47348" lon="4.70417">
        <ele>570.68</ele>
        <time>2021-01-09T14:05:05Z</time>
      </trkpt>
      <trkpt lat="45.47344" lon="4.70425">
        <ele>570.2</ele>
        <time>2021-01-09T14:05:06Z</time>
      </trkpt>
      <trkpt lat="45.47319" lon="4.70473">
        <ele>570.2</ele>
        <time>2021-01-09T14:05:13Z</time>
      </trkpt>
      <trkpt lat="45.47305" lon="4.70485">
        <ele>567.8</ele>
        <time>2021-01-09T14:05:16Z</time>
      </trkpt>
      <trkpt lat="45.47278" lon="4.70498">
        <ele>564.43</ele>
        <time>2021-01-09T14:05:21Z</time>
      </trkpt>
      <trkpt lat="45.47273" lon="4.70501">
        <ele>563.95</ele>
        <time>2021-01-09T14:05:22Z</time>
      </trkpt>
      <trkpt lat="45.47267" lon="4.70505">
        <ele>563.47</ele>
        <time>2021-01-09T14:05:23Z</time>
      </trkpt>
      <trkpt lat="45.47256" lon="4.70514">
        <ele>562.03</ele>
        <time>2021-01-09T14:05:25Z</time>
      </trkpt>
      <trkpt lat="45.47246" lon="4.70523">
        <ele>561.55</ele>
        <time>2021-01-09T14:05:27Z</time>
      </trkpt>
      <trkpt lat="45.47242" lon="4.70524">
        <ele>560.11</ele>
        <time>2021-01-09T14:05:28Z</time>
      </trkpt>
      <trkpt lat="45.47238" lon="4.70524">
        <ele>559.62</ele>
        <time>2021-01-09T14:05:29Z</time>
      </trkpt>
      <trkpt lat="45.47235" lon="4.70525">
        <ele>559.14</ele>
        <time>2021-01-09T14:05:30Z</time>
      </trkpt>
      <trkpt lat="45.47232" lon="4.70525">
        <ele>559.14</ele>
        <time>2021-01-09T14:05:31Z</time>
      </trkpt>
      <trkpt lat="45.47229" lon="4.70524">
        <ele>558.18</ele>
        <time>2021-01-09T14:05:32Z</time>
      </trkpt>
      <trkpt lat="45.47226" lon="4.70523">
        <ele>557.7</ele>
        <time>2021-01-09T14:05:33Z</time>
      </trkpt>
      <trkpt lat="45.47222" lon="4.70524">
        <ele>556.74</ele>
        <time>2021-01-09T14:05:34Z</time>
      </trkpt>
      <trkpt lat="45.47218" lon="4.70524">
        <ele>555.78</ele>
        <time>2021-01-09T14:05:35Z</time>
      </trkpt>
      <trkpt lat="45.47213" lon="4.70523">
        <ele>555.3</ele>
        <time>2021-01-09T14:05:36Z</time>
      </trkpt>
      <trkpt lat="45.47208" lon="4.70522">
        <ele>553.86</ele>
        <time>2021-01-09T14:05:37Z</time>
      </trkpt>
      <trkpt lat="45.47204" lon="4.7052">
        <ele>553.86</ele>
        <time>2021-01-09T14:05:38Z</time>
      </trkpt>
      <trkpt lat="45.47199" lon="4.70517">
        <ele>552.9</ele>
        <time>2021-01-09T14:05:39Z</time>
      </trkpt>
      <trkpt lat="45.47194" lon="4.70515">
        <ele>551.93</ele>
        <time>2021-01-09T14:05:40Z</time>
      </trkpt>
      <trkpt lat="45.4719" lon="4.70514">
        <ele>551.45</ele>
        <time>2021-01-09T14:05:41Z</time>
      </trkpt>
      <trkpt lat="45.47186" lon="4.70511">
        <ele>550.49</ele>
        <time>2021-01-09T14:05:42Z</time>
      </trkpt>
      <trkpt lat="45.47182" lon="4.70507">
        <ele>549.53</ele>
        <time>2021-01-09T14:05:43Z</time>
      </trkpt>
      <trkpt lat="45.47177" lon="4.70501">
        <ele>549.05</ele>
        <time>2021-01-09T14:05:44Z</time>
      </trkpt>
      <trkpt lat="45.47174" lon="4.70494">
        <ele>548.09</ele>
        <time>2021-01-09T14:05:45Z</time>
      </trkpt>
      <trkpt lat="45.4717" lon="4.70488">
        <ele>547.61</ele>
        <time>2021-01-09T14:05:46Z</time>
      </trkpt>
      <trkpt lat="45.47165" lon="4.70484">
        <ele>547.13</ele>
        <time>2021-01-09T14:05:47Z</time>
      </trkpt>
      <trkpt lat="45.47161" lon="4.70479">
        <ele>546.17</ele>
        <time>2021-01-09T14:05:48Z</time>
      </trkpt>
      <trkpt lat="45.47157" lon="4.70473">
        <ele>545.69</ele>
        <time>2021-01-09T14:05:49Z</time>
      </trkpt>
      <trkpt lat="45.47153" lon="4.70468">
        <ele>544.72</ele>
        <time>2021-01-09T14:05:50Z</time>
      </trkpt>
      <trkpt lat="45.47149" lon="4.70464">
        <ele>544.24</ele>
        <time>2021-01-09T14:05:51Z</time>
      </trkpt>
      <trkpt lat="45.47145" lon="4.70459">
        <ele>542.8</ele>
        <time>2021-01-09T14:05:52Z</time>
      </trkpt>
      <trkpt lat="45.47135" lon="4.70437">
        <ele>539.92</ele>
        <time>2021-01-09T14:05:56Z</time>
      </trkpt>
      <trkpt lat="45.47133" lon="4.70431">
        <ele>538.96</ele>
        <time>2021-01-09T14:05:57Z</time>
      </trkpt>
      <trkpt lat="45.47131" lon="4.70425">
        <ele>537.99</ele>
        <time>2021-01-09T14:05:58Z</time>
      </trkpt>
      <trkpt lat="45.47128" lon="4.70419">
        <ele>537.51</ele>
        <time>2021-01-09T14:05:59Z</time>
      </trkpt>
      <trkpt lat="45.47125" lon="4.70413">
        <ele>536.55</ele>
        <time>2021-01-09T14:06:00Z</time>
      </trkpt>
      <trkpt lat="45.47122" lon="4.70408">
        <ele>536.07</ele>
        <time>2021-01-09T14:06:01Z</time>
      </trkpt>
      <trkpt lat="45.47119" lon="4.70402">
        <ele>535.11</ele>
        <time>2021-01-09T14:06:02Z</time>
      </trkpt>
      <trkpt lat="45.47108" lon="4.70385">
        <ele>532.71</ele>
        <time>2021-01-09T14:06:06Z</time>
      </trkpt>
      <trkpt lat="45.47103" lon="4.70381">
        <ele>531.75</ele>
        <time>2021-01-09T14:06:07Z</time>
      </trkpt>
      <trkpt lat="45.47083" lon="4.7037">
        <ele>527.9</ele>
        <time>2021-01-09T14:06:11Z</time>
      </trkpt>
      <trkpt lat="45.47072" lon="4.70364">
        <ele>526.94</ele>
        <time>2021-01-09T14:06:13Z</time>
      </trkpt>
      <trkpt lat="45.47048" lon="4.70357">
        <ele>524.54</ele>
        <time>2021-01-09T14:06:17Z</time>
      </trkpt>
      <trkpt lat="45.47042" lon="4.70357">
        <ele>524.54</ele>
        <time>2021-01-09T14:06:18Z</time>
      </trkpt>
      <trkpt lat="45.47017" lon="4.70367">
        <ele>521.17</ele>
        <time>2021-01-09T14:06:22Z</time>
      </trkpt>
      <trkpt lat="45.47011" lon="4.7037">
        <ele>521.17</ele>
        <time>2021-01-09T14:06:23Z</time>
      </trkpt>
      <trkpt lat="45.46987" lon="4.70381">
        <ele>522.61</ele>
        <time>2021-01-09T14:06:28Z</time>
      </trkpt>
      <trkpt lat="45.46953" lon="4.70388">
        <ele>525.02</ele>
        <time>2021-01-09T14:06:39Z</time>
      </trkpt>
      <trkpt lat="45.46938" lon="4.704">
        <ele>523.58</ele>
        <time>2021-01-09T14:06:45Z</time>
      </trkpt>
      <trkpt lat="45.46934" lon="4.70403">
        <ele>522.61</ele>
        <time>2021-01-09T14:06:46Z</time>
      </trkpt>
      <trkpt lat="45.46931" lon="4.70405">
        <ele>522.13</ele>
        <time>2021-01-09T14:06:47Z</time>
      </trkpt>
      <trkpt lat="45.46928" lon="4.70403">
        <ele>522.13</ele>
        <time>2021-01-09T14:06:48Z</time>
      </trkpt>
      <trkpt lat="45.46924" lon="4.704">
        <ele>522.13</ele>
        <time>2021-01-09T14:06:49Z</time>
      </trkpt>
      <trkpt lat="45.46921" lon="4.70397">
        <ele>522.13</ele>
        <time>2021-01-09T14:06:50Z</time>
      </trkpt>
      <trkpt lat="45.46918" lon="4.70393">
        <ele>521.65</ele>
        <time>2021-01-09T14:06:51Z</time>
      </trkpt>
      <trkpt lat="45.46915" lon="4.70388">
        <ele>521.65</ele>
        <time>2021-01-09T14:06:52Z</time>
      </trkpt>
      <trkpt lat="45.46909" lon="4.70379">
        <ele>520.69</ele>
        <time>2021-01-09T14:06:54Z</time>
      </trkpt>
      <trkpt lat="45.46905" lon="4.70375">
        <ele>520.69</ele>
        <time>2021-01-09T14:06:55Z</time>
      </trkpt>
      <trkpt lat="45.46901" lon="4.70374">
        <ele>520.21</ele>
        <time>2021-01-09T14:06:56Z</time>
      </trkpt>
      <trkpt lat="45.46897" lon="4.70373">
        <ele>520.21</ele>
        <time>2021-01-09T14:06:57Z</time>
      </trkpt>
      <trkpt lat="45.46893" lon="4.70374">
        <ele>520.21</ele>
        <time>2021-01-09T14:06:58Z</time>
      </trkpt>
      <trkpt lat="45.46889" lon="4.70376">
        <ele>520.69</ele>
        <time>2021-01-09T14:06:59Z</time>
      </trkpt>
      <trkpt lat="45.46871" lon="4.70387">
        <ele>520.69</ele>
        <time>2021-01-09T14:07:09Z</time>
      </trkpt>
      <trkpt lat="45.46871" lon="4.70387">
        <ele>520.69</ele>
        <time>2021-01-09T14:07:12Z</time>
      </trkpt>
      <trkpt lat="45.4687" lon="4.70389">
        <ele>520.69</ele>
        <time>2021-01-09T14:07:13Z</time>
      </trkpt>
      <trkpt lat="45.4687" lon="4.70392">
        <ele>520.21</ele>
        <time>2021-01-09T14:07:14Z</time>
      </trkpt>
      <trkpt lat="45.46869" lon="4.70397">
        <ele>519.73</ele>
        <time>2021-01-09T14:07:15Z</time>
      </trkpt>
      <trkpt lat="45.46868" lon="4.70402">
        <ele>519.25</ele>
        <time>2021-01-09T14:07:16Z</time>
      </trkpt>
      <trkpt lat="45.46868" lon="4.70408">
        <ele>518.29</ele>
        <time>2021-01-09T14:07:17Z</time>
      </trkpt>
      <trkpt lat="45.46868" lon="4.70416">
        <ele>517.33</ele>
        <time>2021-01-09T14:07:18Z</time>
      </trkpt>
      <trkpt lat="45.46867" lon="4.70425">
        <ele>516.37</ele>
        <time>2021-01-09T14:07:19Z</time>
      </trkpt>
      <trkpt lat="45.46868" lon="4.7046">
        <ele>513.48</ele>
        <time>2021-01-09T14:07:23Z</time>
      </trkpt>
      <trkpt lat="45.46868" lon="4.70469">
        <ele>513</ele>
        <time>2021-01-09T14:07:24Z</time>
      </trkpt>
      <trkpt lat="45.46868" lon="4.70478">
        <ele>513</ele>
        <time>2021-01-09T14:07:25Z</time>
      </trkpt>
      <trkpt lat="45.46868" lon="4.70487">
        <ele>512.04</ele>
        <time>2021-01-09T14:07:26Z</time>
      </trkpt>
      <trkpt lat="45.46867" lon="4.70494">
        <ele>511.56</ele>
        <time>2021-01-09T14:07:27Z</time>
      </trkpt>
      <trkpt lat="45.46867" lon="4.70502">
        <ele>511.08</ele>
        <time>2021-01-09T14:07:28Z</time>
      </trkpt>
      <trkpt lat="45.46864" lon="4.70562">
        <ele>507.71</ele>
        <time>2021-01-09T14:07:35Z</time>
      </trkpt>
      <trkpt lat="45.46861" lon="4.70592">
        <ele>504.83</ele>
        <time>2021-01-09T14:07:38Z</time>
      </trkpt>
      <trkpt lat="45.46858" lon="4.70607">
        <ele>503.39</ele>
        <time>2021-01-09T14:07:40Z</time>
      </trkpt>
      <trkpt lat="45.46854" lon="4.70613">
        <ele>502.43</ele>
        <time>2021-01-09T14:07:41Z</time>
      </trkpt>
      <trkpt lat="45.46846" lon="4.70626">
        <ele>500.5</ele>
        <time>2021-01-09T14:07:43Z</time>
      </trkpt>
      <trkpt lat="45.46843" lon="4.70635">
        <ele>499.06</ele>
        <time>2021-01-09T14:07:44Z</time>
      </trkpt>
      <trkpt lat="45.46834" lon="4.70654">
        <ele>497.14</ele>
        <time>2021-01-09T14:07:46Z</time>
      </trkpt>
      <trkpt lat="45.46816" lon="4.70689">
        <ele>493.77</ele>
        <time>2021-01-09T14:07:50Z</time>
      </trkpt>
      <trkpt lat="45.46811" lon="4.70698">
        <ele>492.81</ele>
        <time>2021-01-09T14:07:51Z</time>
      </trkpt>
      <trkpt lat="45.46808" lon="4.70709">
        <ele>491.85</ele>
        <time>2021-01-09T14:07:52Z</time>
      </trkpt>
      <trkpt lat="45.46806" lon="4.7072">
        <ele>491.37</ele>
        <time>2021-01-09T14:07:53Z</time>
      </trkpt>
      <trkpt lat="45.46805" lon="4.70731">
        <ele>490.41</ele>
        <time>2021-01-09T14:07:54Z</time>
      </trkpt>
      <trkpt lat="45.46806" lon="4.70742">
        <ele>489.45</ele>
        <time>2021-01-09T14:07:55Z</time>
      </trkpt>
      <trkpt lat="45.46806" lon="4.70751">
        <ele>487.53</ele>
        <time>2021-01-09T14:07:56Z</time>
      </trkpt>
      <trkpt lat="45.46807" lon="4.70767">
        <ele>486.56</ele>
        <time>2021-01-09T14:07:58Z</time>
      </trkpt>
      <trkpt lat="45.46807" lon="4.70792">
        <ele>483.68</ele>
        <time>2021-01-09T14:08:01Z</time>
      </trkpt>
      <trkpt lat="45.46809" lon="4.708">
        <ele>483.2</ele>
        <time>2021-01-09T14:08:02Z</time>
      </trkpt>
      <trkpt lat="45.46811" lon="4.70808">
        <ele>482.72</ele>
        <time>2021-01-09T14:08:03Z</time>
      </trkpt>
      <trkpt lat="45.46814" lon="4.70815">
        <ele>481.76</ele>
        <time>2021-01-09T14:08:04Z</time>
      </trkpt>
      <trkpt lat="45.46817" lon="4.70825">
        <ele>480.8</ele>
        <time>2021-01-09T14:08:05Z</time>
      </trkpt>
      <trkpt lat="45.4682" lon="4.70833">
        <ele>480.32</ele>
        <time>2021-01-09T14:08:06Z</time>
      </trkpt>
      <trkpt lat="45.46822" lon="4.70843">
        <ele>479.35</ele>
        <time>2021-01-09T14:08:07Z</time>
      </trkpt>
      <trkpt lat="45.46825" lon="4.70852">
        <ele>478.87</ele>
        <time>2021-01-09T14:08:08Z</time>
      </trkpt>
      <trkpt lat="45.46827" lon="4.70861">
        <ele>478.39</ele>
        <time>2021-01-09T14:08:09Z</time>
      </trkpt>
      <trkpt lat="45.46828" lon="4.7087">
        <ele>476.95</ele>
        <time>2021-01-09T14:08:10Z</time>
      </trkpt>
      <trkpt lat="45.46828" lon="4.70879">
        <ele>476.95</ele>
        <time>2021-01-09T14:08:11Z</time>
      </trkpt>
      <trkpt lat="45.46827" lon="4.70888">
        <ele>475.51</ele>
        <time>2021-01-09T14:08:12Z</time>
      </trkpt>
      <trkpt lat="45.46829" lon="4.70922">
        <ele>472.14</ele>
        <time>2021-01-09T14:08:15Z</time>
      </trkpt>
      <trkpt lat="45.4683" lon="4.70934">
        <ele>471.18</ele>
        <time>2021-01-09T14:08:16Z</time>
      </trkpt>
      <trkpt lat="45.4683" lon="4.70944">
        <ele>470.22</ele>
        <time>2021-01-09T14:08:17Z</time>
      </trkpt>
      <trkpt lat="45.46829" lon="4.70955">
        <ele>469.26</ele>
        <time>2021-01-09T14:08:18Z</time>
      </trkpt>
      <trkpt lat="45.46828" lon="4.70964">
        <ele>468.3</ele>
        <time>2021-01-09T14:08:19Z</time>
      </trkpt>
      <trkpt lat="45.46825" lon="4.70974">
        <ele>467.82</ele>
        <time>2021-01-09T14:08:20Z</time>
      </trkpt>
      <trkpt lat="45.46822" lon="4.70982">
        <ele>467.34</ele>
        <time>2021-01-09T14:08:21Z</time>
      </trkpt>
      <trkpt lat="45.46818" lon="4.7099">
        <ele>465.9</ele>
        <time>2021-01-09T14:08:22Z</time>
      </trkpt>
      <trkpt lat="45.46814" lon="4.70998">
        <ele>465.9</ele>
        <time>2021-01-09T14:08:23Z</time>
      </trkpt>
      <trkpt lat="45.46804" lon="4.71011">
        <ele>464.93</ele>
        <time>2021-01-09T14:08:25Z</time>
      </trkpt>
      <trkpt lat="45.46798" lon="4.71016">
        <ele>464.45</ele>
        <time>2021-01-09T14:08:26Z</time>
      </trkpt>
      <trkpt lat="45.46791" lon="4.71019">
        <ele>463.49</ele>
        <time>2021-01-09T14:08:27Z</time>
      </trkpt>
      <trkpt lat="45.46783" lon="4.7102">
        <ele>462.53</ele>
        <time>2021-01-09T14:08:28Z</time>
      </trkpt>
      <trkpt lat="45.46775" lon="4.71021">
        <ele>462.05</ele>
        <time>2021-01-09T14:08:29Z</time>
      </trkpt>
      <trkpt lat="45.46768" lon="4.7102">
        <ele>462.05</ele>
        <time>2021-01-09T14:08:30Z</time>
      </trkpt>
      <trkpt lat="45.46761" lon="4.71018">
        <ele>462.05</ele>
        <time>2021-01-09T14:08:31Z</time>
      </trkpt>
      <trkpt lat="45.46754" lon="4.71014">
        <ele>462.05</ele>
        <time>2021-01-09T14:08:32Z</time>
      </trkpt>
      <trkpt lat="45.46728" lon="4.70995">
        <ele>462.05</ele>
        <time>2021-01-09T14:08:37Z</time>
      </trkpt>
      <trkpt lat="45.46723" lon="4.70994">
        <ele>461.57</ele>
        <time>2021-01-09T14:08:38Z</time>
      </trkpt>
      <trkpt lat="45.46717" lon="4.70993">
        <ele>461.57</ele>
        <time>2021-01-09T14:08:39Z</time>
      </trkpt>
      <trkpt lat="45.46706" lon="4.70992">
        <ele>461.09</ele>
        <time>2021-01-09T14:08:41Z</time>
      </trkpt>
      <trkpt lat="45.46701" lon="4.70991">
        <ele>461.09</ele>
        <time>2021-01-09T14:08:42Z</time>
      </trkpt>
      <trkpt lat="45.46697" lon="4.70989">
        <ele>461.09</ele>
        <time>2021-01-09T14:08:43Z</time>
      </trkpt>
      <trkpt lat="45.46683" lon="4.70983">
        <ele>461.09</ele>
        <time>2021-01-09T14:08:46Z</time>
      </trkpt>
      <trkpt lat="45.46662" lon="4.70967">
        <ele>462.53</ele>
        <time>2021-01-09T14:08:52Z</time>
      </trkpt>
      <trkpt lat="45.4666" lon="4.70967">
        <ele>462.53</ele>
        <time>2021-01-09T14:08:53Z</time>
      </trkpt>
      <trkpt lat="45.46658" lon="4.70969">
        <ele>462.53</ele>
        <time>2021-01-09T14:08:54Z</time>
      </trkpt>
      <trkpt lat="45.46656" lon="4.70973">
        <ele>463.01</ele>
        <time>2021-01-09T14:09:03Z</time>
      </trkpt>
      <trkpt lat="45.46654" lon="4.70982">
        <ele>462.05</ele>
        <time>2021-01-09T14:09:05Z</time>
      </trkpt>
      <trkpt lat="45.46654" lon="4.70988">
        <ele>461.09</ele>
        <time>2021-01-09T14:09:06Z</time>
      </trkpt>
      <trkpt lat="45.46653" lon="4.70996">
        <ele>460.61</ele>
        <time>2021-01-09T14:09:07Z</time>
      </trkpt>
      <trkpt lat="45.46654" lon="4.71024">
        <ele>456.76</ele>
        <time>2021-01-09T14:09:10Z</time>
      </trkpt>
      <trkpt lat="45.46654" lon="4.71042">
        <ele>455.8</ele>
        <time>2021-01-09T14:09:12Z</time>
      </trkpt>
      <trkpt lat="45.46648" lon="4.71092">
        <ele>454.36</ele>
        <time>2021-01-09T14:09:18Z</time>
      </trkpt>
      <trkpt lat="45.4664" lon="4.7112">
        <ele>454.36</ele>
        <time>2021-01-09T14:09:22Z</time>
      </trkpt>
      <trkpt lat="45.46639" lon="4.71127">
        <ele>454.36</ele>
        <time>2021-01-09T14:09:23Z</time>
      </trkpt>
      <trkpt lat="45.46638" lon="4.71133">
        <ele>453.88</ele>
        <time>2021-01-09T14:09:24Z</time>
      </trkpt>
      <trkpt lat="45.46626" lon="4.71208">
        <ele>455.8</ele>
        <time>2021-01-09T14:09:37Z</time>
      </trkpt>
      <trkpt lat="45.46626" lon="4.7121">
        <ele>456.76</ele>
        <time>2021-01-09T14:09:39Z</time>
      </trkpt>
      <trkpt lat="45.46624" lon="4.71211">
        <ele>458.69</ele>
        <time>2021-01-09T14:09:50Z</time>
      </trkpt>
      <trkpt lat="45.46623" lon="4.71211">
        <ele>458.69</ele>
        <time>2021-01-09T14:09:51Z</time>
      </trkpt>
      <trkpt lat="45.46622" lon="4.71211">
        <ele>458.69</ele>
        <time>2021-01-09T14:09:52Z</time>
      </trkpt>
      <trkpt lat="45.46618" lon="4.71208">
        <ele>459.65</ele>
        <time>2021-01-09T14:09:56Z</time>
      </trkpt>
      <trkpt lat="45.46616" lon="4.71206">
        <ele>459.65</ele>
        <time>2021-01-09T14:10:01Z</time>
      </trkpt>
      <trkpt lat="45.46616" lon="4.71204">
        <ele>459.65</ele>
        <time>2021-01-09T14:10:02Z</time>
      </trkpt>
      <trkpt lat="45.46616" lon="4.71202">
        <ele>459.65</ele>
        <time>2021-01-09T14:10:03Z</time>
      </trkpt>
      <trkpt lat="45.46615" lon="4.712">
        <ele>459.65</ele>
        <time>2021-01-09T14:10:04Z</time>
      </trkpt>
      <trkpt lat="45.46615" lon="4.71197">
        <ele>460.13</ele>
        <time>2021-01-09T14:10:05Z</time>
      </trkpt>
      <trkpt lat="45.46614" lon="4.71195">
        <ele>460.13</ele>
        <time>2021-01-09T14:10:06Z</time>
      </trkpt>
      <trkpt lat="45.46613" lon="4.71193">
        <ele>461.09</ele>
        <time>2021-01-09T14:10:07Z</time>
      </trkpt>
      <trkpt lat="45.46612" lon="4.7119">
        <ele>461.57</ele>
        <time>2021-01-09T14:10:09Z</time>
      </trkpt>
      <trkpt lat="45.4661" lon="4.71184">
        <ele>462.05</ele>
        <time>2021-01-09T14:10:12Z</time>
      </trkpt>
      <trkpt lat="45.4661" lon="4.71182">
        <ele>462.05</ele>
        <time>2021-01-09T14:10:13Z</time>
      </trkpt>
      <trkpt lat="45.4661" lon="4.71179">
        <ele>462.53</ele>
        <time>2021-01-09T14:10:14Z</time>
      </trkpt>
      <trkpt lat="45.46609" lon="4.71177">
        <ele>462.53</ele>
        <time>2021-01-09T14:10:15Z</time>
      </trkpt>
      <trkpt lat="45.46607" lon="4.71172">
        <ele>463.97</ele>
        <time>2021-01-09T14:10:25Z</time>
      </trkpt>
      <trkpt lat="45.46607" lon="4.71175">
        <ele>463.01</ele>
        <time>2021-01-09T14:10:27Z</time>
      </trkpt>
      <trkpt lat="45.46607" lon="4.71178">
        <ele>462.53</ele>
        <time>2021-01-09T14:10:28Z</time>
      </trkpt>
      <trkpt lat="45.46608" lon="4.71183">
        <ele>462.05</ele>
        <time>2021-01-09T14:10:29Z</time>
      </trkpt>
      <trkpt lat="45.4661" lon="4.71188">
        <ele>461.09</ele>
        <time>2021-01-09T14:10:30Z</time>
      </trkpt>
      <trkpt lat="45.46612" lon="4.71194">
        <ele>460.13</ele>
        <time>2021-01-09T14:10:31Z</time>
      </trkpt>
      <trkpt lat="45.46612" lon="4.712">
        <ele>459.17</ele>
        <time>2021-01-09T14:10:32Z</time>
      </trkpt>
      <trkpt lat="45.46612" lon="4.71205">
        <ele>459.17</ele>
        <time>2021-01-09T14:10:33Z</time>
      </trkpt>
      <trkpt lat="45.46611" lon="4.71211">
        <ele>458.69</ele>
        <time>2021-01-09T14:10:34Z</time>
      </trkpt>
      <trkpt lat="45.46612" lon="4.71217">
        <ele>458.69</ele>
        <time>2021-01-09T14:10:35Z</time>
      </trkpt>
      <trkpt lat="45.46613" lon="4.71223">
        <ele>457.72</ele>
        <time>2021-01-09T14:10:36Z</time>
      </trkpt>
      <trkpt lat="45.46615" lon="4.71229">
        <ele>457.24</ele>
        <time>2021-01-09T14:10:37Z</time>
      </trkpt>
      <trkpt lat="45.46615" lon="4.71235">
        <ele>456.76</ele>
        <time>2021-01-09T14:10:38Z</time>
      </trkpt>
      <trkpt lat="45.46615" lon="4.7124">
        <ele>457.24</ele>
        <time>2021-01-09T14:10:39Z</time>
      </trkpt>
      <trkpt lat="45.46616" lon="4.71245">
        <ele>456.76</ele>
        <time>2021-01-09T14:10:40Z</time>
      </trkpt>
      <trkpt lat="45.46618" lon="4.71248">
        <ele>456.76</ele>
        <time>2021-01-09T14:10:41Z</time>
      </trkpt>
      <trkpt lat="45.46621" lon="4.71251">
        <ele>456.28</ele>
        <time>2021-01-09T14:10:42Z</time>
      </trkpt>
      <trkpt lat="45.46625" lon="4.71256">
        <ele>454.84</ele>
        <time>2021-01-09T14:10:43Z</time>
      </trkpt>
      <trkpt lat="45.46627" lon="4.71262">
        <ele>453.88</ele>
        <time>2021-01-09T14:10:44Z</time>
      </trkpt>
      <trkpt lat="45.46629" lon="4.7127">
        <ele>453.4</ele>
        <time>2021-01-09T14:10:45Z</time>
      </trkpt>
      <trkpt lat="45.46632" lon="4.71286">
        <ele>451.96</ele>
        <time>2021-01-09T14:10:47Z</time>
      </trkpt>
      <trkpt lat="45.46633" lon="4.71295">
        <ele>451.48</ele>
        <time>2021-01-09T14:10:48Z</time>
      </trkpt>
      <trkpt lat="45.46633" lon="4.71304">
        <ele>450.52</ele>
        <time>2021-01-09T14:10:49Z</time>
      </trkpt>
      <trkpt lat="45.46631" lon="4.71313">
        <ele>449.55</ele>
        <time>2021-01-09T14:10:50Z</time>
      </trkpt>
      <trkpt lat="45.46628" lon="4.71321">
        <ele>449.07</ele>
        <time>2021-01-09T14:10:51Z</time>
      </trkpt>
      <trkpt lat="45.46624" lon="4.71329">
        <ele>448.11</ele>
        <time>2021-01-09T14:10:52Z</time>
      </trkpt>
      <trkpt lat="45.46619" lon="4.71337">
        <ele>447.63</ele>
        <time>2021-01-09T14:10:53Z</time>
      </trkpt>
      <trkpt lat="45.46614" lon="4.71345">
        <ele>447.15</ele>
        <time>2021-01-09T14:10:54Z</time>
      </trkpt>
      <trkpt lat="45.46611" lon="4.71353">
        <ele>446.67</ele>
        <time>2021-01-09T14:10:55Z</time>
      </trkpt>
      <trkpt lat="45.46607" lon="4.7136">
        <ele>446.67</ele>
        <time>2021-01-09T14:10:56Z</time>
      </trkpt>
      <trkpt lat="45.46604" lon="4.71364">
        <ele>446.19</ele>
        <time>2021-01-09T14:10:57Z</time>
      </trkpt>
      <trkpt lat="45.46599" lon="4.71367">
        <ele>445.71</ele>
        <time>2021-01-09T14:10:58Z</time>
      </trkpt>
      <trkpt lat="45.46595" lon="4.7137">
        <ele>445.71</ele>
        <time>2021-01-09T14:10:59Z</time>
      </trkpt>
      <trkpt lat="45.46586" lon="4.71376">
        <ele>444.75</ele>
        <time>2021-01-09T14:11:01Z</time>
      </trkpt>
      <trkpt lat="45.46582" lon="4.7138">
        <ele>444.75</ele>
        <time>2021-01-09T14:11:02Z</time>
      </trkpt>
      <trkpt lat="45.46578" lon="4.71386">
        <ele>444.27</ele>
        <time>2021-01-09T14:11:03Z</time>
      </trkpt>
      <trkpt lat="45.46574" lon="4.71394">
        <ele>443.79</ele>
        <time>2021-01-09T14:11:04Z</time>
      </trkpt>
      <trkpt lat="45.46571" lon="4.71401">
        <ele>443.31</ele>
        <time>2021-01-09T14:11:05Z</time>
      </trkpt>
      <trkpt lat="45.46567" lon="4.71409">
        <ele>442.82</ele>
        <time>2021-01-09T14:11:06Z</time>
      </trkpt>
      <trkpt lat="45.46549" lon="4.71439">
        <ele>440.42</ele>
        <time>2021-01-09T14:11:10Z</time>
      </trkpt>
      <trkpt lat="45.46545" lon="4.71447">
        <ele>439.94</ele>
        <time>2021-01-09T14:11:11Z</time>
      </trkpt>
      <trkpt lat="45.46541" lon="4.71455">
        <ele>439.46</ele>
        <time>2021-01-09T14:11:12Z</time>
      </trkpt>
      <trkpt lat="45.46536" lon="4.71461">
        <ele>438.98</ele>
        <time>2021-01-09T14:11:13Z</time>
      </trkpt>
      <trkpt lat="45.46531" lon="4.71466">
        <ele>438.5</ele>
        <time>2021-01-09T14:11:14Z</time>
      </trkpt>
      <trkpt lat="45.46527" lon="4.71469">
        <ele>438.02</ele>
        <time>2021-01-09T14:11:15Z</time>
      </trkpt>
      <trkpt lat="45.46524" lon="4.71469">
        <ele>437.54</ele>
        <time>2021-01-09T14:11:16Z</time>
      </trkpt>
      <trkpt lat="45.4652" lon="4.7147">
        <ele>437.54</ele>
        <time>2021-01-09T14:11:26Z</time>
      </trkpt>
      <trkpt lat="45.4652" lon="4.71469">
        <ele>437.54</ele>
        <time>2021-01-09T14:11:44Z</time>
      </trkpt>
      <trkpt lat="45.46522" lon="4.71468">
        <ele>436.58</ele>
        <time>2021-01-09T14:11:56Z</time>
      </trkpt>
      <trkpt lat="45.46523" lon="4.71468">
        <ele>437.54</ele>
        <time>2021-01-09T14:12:30Z</time>
      </trkpt>
      <trkpt lat="45.46525" lon="4.71467">
        <ele>437.06</ele>
        <time>2021-01-09T14:13:03Z</time>
      </trkpt>
      <trkpt lat="45.46524" lon="4.71465">
        <ele>437.54</ele>
        <time>2021-01-09T14:13:38Z</time>
      </trkpt>
      <trkpt lat="45.46524" lon="4.71465">
        <ele>438.02</ele>
        <time>2021-01-09T14:14:14Z</time>
      </trkpt>
      <trkpt lat="45.46523" lon="4.71466">
        <ele>438.5</ele>
        <time>2021-01-09T14:14:48Z</time>
      </trkpt>
      <trkpt lat="45.46523" lon="4.71466">
        <ele>438.5</ele>
        <time>2021-01-09T14:14:49Z</time>
      </trkpt>
      <trkpt lat="45.46521" lon="4.71466">
        <ele>438.5</ele>
        <time>2021-01-09T14:14:50Z</time>
      </trkpt>
      <trkpt lat="45.4652" lon="4.71468">
        <ele>438.5</ele>
        <time>2021-01-09T14:14:51Z</time>
      </trkpt>
      <trkpt lat="45.46519" lon="4.71469">
        <ele>438.5</ele>
        <time>2021-01-09T14:14:52Z</time>
      </trkpt>
      <trkpt lat="45.46517" lon="4.71471">
        <ele>438.5</ele>
        <time>2021-01-09T14:14:53Z</time>
      </trkpt>
      <trkpt lat="45.46514" lon="4.71472">
        <ele>438.02</ele>
        <time>2021-01-09T14:14:54Z</time>
      </trkpt>
      <trkpt lat="45.4651" lon="4.71474">
        <ele>437.06</ele>
        <time>2021-01-09T14:14:55Z</time>
      </trkpt>
      <trkpt lat="45.46506" lon="4.71479">
        <ele>436.58</ele>
        <time>2021-01-09T14:14:56Z</time>
      </trkpt>
      <trkpt lat="45.46503" lon="4.71484">
        <ele>435.61</ele>
        <time>2021-01-09T14:14:57Z</time>
      </trkpt>
      <trkpt lat="45.46499" lon="4.71488">
        <ele>435.13</ele>
        <time>2021-01-09T14:14:58Z</time>
      </trkpt>
      <trkpt lat="45.46496" lon="4.71491">
        <ele>434.17</ele>
        <time>2021-01-09T14:14:59Z</time>
      </trkpt>
      <trkpt lat="45.46492" lon="4.71492">
        <ele>432.25</ele>
        <time>2021-01-09T14:15:00Z</time>
      </trkpt>
      <trkpt lat="45.46488" lon="4.71491">
        <ele>432.25</ele>
        <time>2021-01-09T14:15:01Z</time>
      </trkpt>
      <trkpt lat="45.46485" lon="4.7149">
        <ele>431.29</ele>
        <time>2021-01-09T14:15:02Z</time>
      </trkpt>
      <trkpt lat="45.46481" lon="4.71491">
        <ele>430.33</ele>
        <time>2021-01-09T14:15:03Z</time>
      </trkpt>
      <trkpt lat="45.46477" lon="4.71493">
        <ele>428.89</ele>
        <time>2021-01-09T14:15:04Z</time>
      </trkpt>
      <trkpt lat="45.46473" lon="4.71499">
        <ele>427.92</ele>
        <time>2021-01-09T14:15:05Z</time>
      </trkpt>
      <trkpt lat="45.46469" lon="4.71505">
        <ele>426.96</ele>
        <time>2021-01-09T14:15:06Z</time>
      </trkpt>
      <trkpt lat="45.4646" lon="4.71518">
        <ele>425.52</ele>
        <time>2021-01-09T14:15:08Z</time>
      </trkpt>
      <trkpt lat="45.46456" lon="4.71523">
        <ele>424.56</ele>
        <time>2021-01-09T14:15:09Z</time>
      </trkpt>
      <trkpt lat="45.46452" lon="4.71529">
        <ele>424.08</ele>
        <time>2021-01-09T14:15:10Z</time>
      </trkpt>
      <trkpt lat="45.46449" lon="4.71536">
        <ele>423.6</ele>
        <time>2021-01-09T14:15:11Z</time>
      </trkpt>
      <trkpt lat="45.46446" lon="4.71546">
        <ele>422.64</ele>
        <time>2021-01-09T14:15:12Z</time>
      </trkpt>
      <trkpt lat="45.46445" lon="4.71555">
        <ele>421.19</ele>
        <time>2021-01-09T14:15:13Z</time>
      </trkpt>
      <trkpt lat="45.46445" lon="4.71564">
        <ele>420.71</ele>
        <time>2021-01-09T14:15:14Z</time>
      </trkpt>
      <trkpt lat="45.46445" lon="4.71573">
        <ele>419.27</ele>
        <time>2021-01-09T14:15:15Z</time>
      </trkpt>
      <trkpt lat="45.46446" lon="4.71581">
        <ele>418.79</ele>
        <time>2021-01-09T14:15:16Z</time>
      </trkpt>
      <trkpt lat="45.46444" lon="4.7159">
        <ele>418.31</ele>
        <time>2021-01-09T14:15:17Z</time>
      </trkpt>
      <trkpt lat="45.46442" lon="4.71597">
        <ele>417.35</ele>
        <time>2021-01-09T14:15:18Z</time>
      </trkpt>
      <trkpt lat="45.46438" lon="4.71603">
        <ele>416.87</ele>
        <time>2021-01-09T14:15:19Z</time>
      </trkpt>
      <trkpt lat="45.46436" lon="4.7161">
        <ele>415.43</ele>
        <time>2021-01-09T14:15:20Z</time>
      </trkpt>
      <trkpt lat="45.46434" lon="4.71619">
        <ele>414.47</ele>
        <time>2021-01-09T14:15:21Z</time>
      </trkpt>
      <trkpt lat="45.46431" lon="4.71628">
        <ele>413.02</ele>
        <time>2021-01-09T14:15:22Z</time>
      </trkpt>
      <trkpt lat="45.46427" lon="4.71637">
        <ele>411.1</ele>
        <time>2021-01-09T14:15:23Z</time>
      </trkpt>
      <trkpt lat="45.46418" lon="4.71659">
        <ele>408.22</ele>
        <time>2021-01-09T14:15:25Z</time>
      </trkpt>
      <trkpt lat="45.4641" lon="4.71684">
        <ele>402.93</ele>
        <time>2021-01-09T14:15:27Z</time>
      </trkpt>
      <trkpt lat="45.46395" lon="4.71719">
        <ele>400.05</ele>
        <time>2021-01-09T14:15:30Z</time>
      </trkpt>
      <trkpt lat="45.46374" lon="4.71768">
        <ele>396.68</ele>
        <time>2021-01-09T14:15:34Z</time>
      </trkpt>
      <trkpt lat="45.46354" lon="4.71818">
        <ele>393.8</ele>
        <time>2021-01-09T14:15:38Z</time>
      </trkpt>
      <trkpt lat="45.46336" lon="4.71862">
        <ele>394.28</ele>
        <time>2021-01-09T14:15:45Z</time>
      </trkpt>
      <trkpt lat="45.46332" lon="4.71875">
        <ele>393.8</ele>
        <time>2021-01-09T14:15:49Z</time>
      </trkpt>
      <trkpt lat="45.4633" lon="4.71876">
        <ele>393.8</ele>
        <time>2021-01-09T14:15:50Z</time>
      </trkpt>
      <trkpt lat="45.46327" lon="4.71876">
        <ele>393.8</ele>
        <time>2021-01-09T14:15:51Z</time>
      </trkpt>
      <trkpt lat="45.46324" lon="4.71873">
        <ele>393.8</ele>
        <time>2021-01-09T14:15:52Z</time>
      </trkpt>
      <trkpt lat="45.46322" lon="4.71871">
        <ele>393.8</ele>
        <time>2021-01-09T14:15:53Z</time>
      </trkpt>
      <trkpt lat="45.46291" lon="4.71834">
        <ele>393.32</ele>
        <time>2021-01-09T14:16:06Z</time>
      </trkpt>
      <trkpt lat="45.46239" lon="4.71754">
        <ele>392.36</ele>
        <time>2021-01-09T14:16:23Z</time>
      </trkpt>
      <trkpt lat="45.46208" lon="4.71702">
        <ele>389.47</ele>
        <time>2021-01-09T14:16:31Z</time>
      </trkpt>
      <trkpt lat="45.46166" lon="4.71619">
        <ele>387.55</ele>
        <time>2021-01-09T14:16:42Z</time>
      </trkpt>
      <trkpt lat="45.46162" lon="4.71612">
        <ele>387.07</ele>
        <time>2021-01-09T14:16:43Z</time>
      </trkpt>
      <trkpt lat="45.46138" lon="4.71577">
        <ele>385.15</ele>
        <time>2021-01-09T14:16:52Z</time>
      </trkpt>
      <trkpt lat="45.46116" lon="4.71546">
        <ele>383.22</ele>
        <time>2021-01-09T14:17:04Z</time>
      </trkpt>
      <trkpt lat="45.46099" lon="4.71524">
        <ele>382.74</ele>
        <time>2021-01-09T14:17:14Z</time>
      </trkpt>
      <trkpt lat="45.46082" lon="4.71492">
        <ele>381.78</ele>
        <time>2021-01-09T14:17:26Z</time>
      </trkpt>
      <trkpt lat="45.46072" lon="4.71475">
        <ele>381.3</ele>
        <time>2021-01-09T14:17:32Z</time>
      </trkpt>
      <trkpt lat="45.4607" lon="4.71473">
        <ele>381.78</ele>
        <time>2021-01-09T14:17:33Z</time>
      </trkpt>
      <trkpt lat="45.46069" lon="4.71471">
        <ele>381.3</ele>
        <time>2021-01-09T14:17:34Z</time>
      </trkpt>
      <trkpt lat="45.46067" lon="4.71468">
        <ele>381.3</ele>
        <time>2021-01-09T14:17:35Z</time>
      </trkpt>
      <trkpt lat="45.46066" lon="4.71465">
        <ele>381.3</ele>
        <time>2021-01-09T14:17:36Z</time>
      </trkpt>
      <trkpt lat="45.46042" lon="4.71423">
        <ele>380.82</ele>
        <time>2021-01-09T14:17:47Z</time>
      </trkpt>
      <trkpt lat="45.4603" lon="4.71401">
        <ele>379.86</ele>
        <time>2021-01-09T14:17:52Z</time>
      </trkpt>
      <trkpt lat="45.46018" lon="4.71385">
        <ele>379.86</ele>
        <time>2021-01-09T14:17:56Z</time>
      </trkpt>
      <trkpt lat="45.4597" lon="4.71351">
        <ele>376.49</ele>
        <time>2021-01-09T14:18:07Z</time>
      </trkpt>
      <trkpt lat="45.4596" lon="4.71344">
        <ele>375.53</ele>
        <time>2021-01-09T14:18:09Z</time>
      </trkpt>
      <trkpt lat="45.45925" lon="4.71317">
        <ele>373.61</ele>
        <time>2021-01-09T14:18:16Z</time>
      </trkpt>
      <trkpt lat="45.45907" lon="4.71296">
        <ele>371.69</ele>
        <time>2021-01-09T14:18:20Z</time>
      </trkpt>
      <trkpt lat="45.45882" lon="4.71273">
        <ele>370.24</ele>
        <time>2021-01-09T14:18:25Z</time>
      </trkpt>
      <trkpt lat="45.45813" lon="4.71223">
        <ele>368.32</ele>
        <time>2021-01-09T14:18:39Z</time>
      </trkpt>
      <trkpt lat="45.45781" lon="4.71192">
        <ele>367.36</ele>
        <time>2021-01-09T14:18:47Z</time>
      </trkpt>
      <trkpt lat="45.45779" lon="4.71187">
        <ele>367.36</ele>
        <time>2021-01-09T14:18:48Z</time>
      </trkpt>
      <trkpt lat="45.45777" lon="4.71181">
        <ele>367.36</ele>
        <time>2021-01-09T14:18:49Z</time>
      </trkpt>
      <trkpt lat="45.45774" lon="4.71176">
        <ele>366.88</ele>
        <time>2021-01-09T14:18:50Z</time>
      </trkpt>
      <trkpt lat="45.4577" lon="4.71173">
        <ele>367.36</ele>
        <time>2021-01-09T14:18:51Z</time>
      </trkpt>
      <trkpt lat="45.45766" lon="4.7117">
        <ele>367.36</ele>
        <time>2021-01-09T14:18:52Z</time>
      </trkpt>
      <trkpt lat="45.45762" lon="4.71168">
        <ele>366.88</ele>
        <time>2021-01-09T14:18:53Z</time>
      </trkpt>
      <trkpt lat="45.45758" lon="4.71166">
        <ele>366.88</ele>
        <time>2021-01-09T14:18:54Z</time>
      </trkpt>
      <trkpt lat="45.45753" lon="4.71164">
        <ele>366.88</ele>
        <time>2021-01-09T14:18:55Z</time>
      </trkpt>
      <trkpt lat="45.45733" lon="4.71158">
        <ele>366.4</ele>
        <time>2021-01-09T14:18:59Z</time>
      </trkpt>
      <trkpt lat="45.45729" lon="4.71156">
        <ele>366.88</ele>
        <time>2021-01-09T14:19:00Z</time>
      </trkpt>
      <trkpt lat="45.45696" lon="4.71142">
        <ele>366.4</ele>
        <time>2021-01-09T14:19:07Z</time>
      </trkpt>
      <trkpt lat="45.45627" lon="4.71104">
        <ele>364</ele>
        <time>2021-01-09T14:19:22Z</time>
      </trkpt>
      <trkpt lat="45.4557" lon="4.7106">
        <ele>364.48</ele>
        <time>2021-01-09T14:19:36Z</time>
      </trkpt>
      <trkpt lat="45.45532" lon="4.71036">
        <ele>366.4</ele>
        <time>2021-01-09T14:19:48Z</time>
      </trkpt>
      <trkpt lat="45.45517" lon="4.71026">
        <ele>369.76</ele>
        <time>2021-01-09T14:19:55Z</time>
      </trkpt>
      <trkpt lat="45.45509" lon="4.71019">
        <ele>370.73</ele>
        <time>2021-01-09T14:19:59Z</time>
      </trkpt>
      <trkpt lat="45.45508" lon="4.71019">
        <ele>371.69</ele>
        <time>2021-01-09T14:20:00Z</time>
      </trkpt>
      <trkpt lat="45.45506" lon="4.7102">
        <ele>371.69</ele>
        <time>2021-01-09T14:20:01Z</time>
      </trkpt>
      <trkpt lat="45.45504" lon="4.71022">
        <ele>371.69</ele>
        <time>2021-01-09T14:20:02Z</time>
      </trkpt>
      <trkpt lat="45.45503" lon="4.71025">
        <ele>371.21</ele>
        <time>2021-01-09T14:20:03Z</time>
      </trkpt>
      <trkpt lat="45.45502" lon="4.71029">
        <ele>371.69</ele>
        <time>2021-01-09T14:20:04Z</time>
      </trkpt>
      <trkpt lat="45.45475" lon="4.71101">
        <ele>370.73</ele>
        <time>2021-01-09T14:20:19Z</time>
      </trkpt>
      <trkpt lat="45.45471" lon="4.71105">
        <ele>371.21</ele>
        <time>2021-01-09T14:20:20Z</time>
      </trkpt>
      <trkpt lat="45.45464" lon="4.71113">
        <ele>371.21</ele>
        <time>2021-01-09T14:20:22Z</time>
      </trkpt>
      <trkpt lat="45.45397" lon="4.71169">
        <ele>371.69</ele>
        <time>2021-01-09T14:20:39Z</time>
      </trkpt>
      <trkpt lat="45.45363" lon="4.71197">
        <ele>375.05</ele>
        <time>2021-01-09T14:20:50Z</time>
      </trkpt>
      <trkpt lat="45.45332" lon="4.71193">
        <ele>376.49</ele>
        <time>2021-01-09T14:21:01Z</time>
      </trkpt>
      <trkpt lat="45.45299" lon="4.71168">
        <ele>376.97</ele>
        <time>2021-01-09T14:21:13Z</time>
      </trkpt>
      <trkpt lat="45.45292" lon="4.7116">
        <ele>377.45</ele>
        <time>2021-01-09T14:21:15Z</time>
      </trkpt>
      <trkpt lat="45.45285" lon="4.71153">
        <ele>376.49</ele>
        <time>2021-01-09T14:21:17Z</time>
      </trkpt>
      <trkpt lat="45.45281" lon="4.71151">
        <ele>376.49</ele>
        <time>2021-01-09T14:21:18Z</time>
      </trkpt>
      <trkpt lat="45.45252" lon="4.7113">
        <ele>376.49</ele>
        <time>2021-01-09T14:21:25Z</time>
      </trkpt>
      <trkpt lat="45.45248" lon="4.71128">
        <ele>376.01</ele>
        <time>2021-01-09T14:21:26Z</time>
      </trkpt>
      <trkpt lat="45.45243" lon="4.71127">
        <ele>376.49</ele>
        <time>2021-01-09T14:21:27Z</time>
      </trkpt>
      <trkpt lat="45.45238" lon="4.71127">
        <ele>376.01</ele>
        <time>2021-01-09T14:21:28Z</time>
      </trkpt>
      <trkpt lat="45.45233" lon="4.71127">
        <ele>376.01</ele>
        <time>2021-01-09T14:21:29Z</time>
      </trkpt>
      <trkpt lat="45.45229" lon="4.71127">
        <ele>375.53</ele>
        <time>2021-01-09T14:21:30Z</time>
      </trkpt>
      <trkpt lat="45.4521" lon="4.71129">
        <ele>375.53</ele>
        <time>2021-01-09T14:21:34Z</time>
      </trkpt>
      <trkpt lat="45.45205" lon="4.71127">
        <ele>375.53</ele>
        <time>2021-01-09T14:21:35Z</time>
      </trkpt>
      <trkpt lat="45.45201" lon="4.71125">
        <ele>375.53</ele>
        <time>2021-01-09T14:21:36Z</time>
      </trkpt>
      <trkpt lat="45.45175" lon="4.71109">
        <ele>376.01</ele>
        <time>2021-01-09T14:21:42Z</time>
      </trkpt>
      <trkpt lat="45.45134" lon="4.71111">
        <ele>376.49</ele>
        <time>2021-01-09T14:21:53Z</time>
      </trkpt>
      <trkpt lat="45.45125" lon="4.71116">
        <ele>376.01</ele>
        <time>2021-01-09T14:21:55Z</time>
      </trkpt>
      <trkpt lat="45.45113" lon="4.71123">
        <ele>376.01</ele>
        <time>2021-01-09T14:21:58Z</time>
      </trkpt>
      <trkpt lat="45.45062" lon="4.71154">
        <ele>378.42</ele>
        <time>2021-01-09T14:22:12Z</time>
      </trkpt>
      <trkpt lat="45.45013" lon="4.71184">
        <ele>378.9</ele>
        <time>2021-01-09T14:22:27Z</time>
      </trkpt>
      <trkpt lat="45.45001" lon="4.71185">
        <ele>379.38</ele>
        <time>2021-01-09T14:22:31Z</time>
      </trkpt>
      <trkpt lat="45.44998" lon="4.71182">
        <ele>379.86</ele>
        <time>2021-01-09T14:22:32Z</time>
      </trkpt>
      <trkpt lat="45.44997" lon="4.71178">
        <ele>380.34</ele>
        <time>2021-01-09T14:22:33Z</time>
      </trkpt>
      <trkpt lat="45.44996" lon="4.71174">
        <ele>380.34</ele>
        <time>2021-01-09T14:22:34Z</time>
      </trkpt>
      <trkpt lat="45.44996" lon="4.7117">
        <ele>380.82</ele>
        <time>2021-01-09T14:22:35Z</time>
      </trkpt>
      <trkpt lat="45.44996" lon="4.71167">
        <ele>380.82</ele>
        <time>2021-01-09T14:22:36Z</time>
      </trkpt>
      <trkpt lat="45.44995" lon="4.71133">
        <ele>384.18</ele>
        <time>2021-01-09T14:22:47Z</time>
      </trkpt>
      <trkpt lat="45.44994" lon="4.71095">
        <ele>387.07</ele>
        <time>2021-01-09T14:23:01Z</time>
      </trkpt>
      <trkpt lat="45.44994" lon="4.71067">
        <ele>389.47</ele>
        <time>2021-01-09T14:23:13Z</time>
      </trkpt>
      <trkpt lat="45.44993" lon="4.71054">
        <ele>390.91</ele>
        <time>2021-01-09T14:23:19Z</time>
      </trkpt>
      <trkpt lat="45.44991" lon="4.71022">
        <ele>393.8</ele>
        <time>2021-01-09T14:23:33Z</time>
      </trkpt>
      <trkpt lat="45.44992" lon="4.7099">
        <ele>396.2</ele>
        <time>2021-01-09T14:23:46Z</time>
      </trkpt>
      <trkpt lat="45.44993" lon="4.70958">
        <ele>397.64</ele>
        <time>2021-01-09T14:23:58Z</time>
      </trkpt>
      <trkpt lat="45.44993" lon="4.70955">
        <ele>398.12</ele>
        <time>2021-01-09T14:23:59Z</time>
      </trkpt>
      <trkpt lat="45.44996" lon="4.70917">
        <ele>399.57</ele>
        <time>2021-01-09T14:24:12Z</time>
      </trkpt>
      <trkpt lat="45.44995" lon="4.70884">
        <ele>401.01</ele>
        <time>2021-01-09T14:24:22Z</time>
      </trkpt>
      <trkpt lat="45.44992" lon="4.70883">
        <ele>401.01</ele>
        <time>2021-01-09T14:24:23Z</time>
      </trkpt>
      <trkpt lat="45.44955" lon="4.70881">
        <ele>400.53</ele>
        <time>2021-01-09T14:24:36Z</time>
      </trkpt>
      <trkpt lat="45.44919" lon="4.70877">
        <ele>397.16</ele>
        <time>2021-01-09T14:24:43Z</time>
      </trkpt>
      <trkpt lat="45.44854" lon="4.70855">
        <ele>394.28</ele>
        <time>2021-01-09T14:24:54Z</time>
      </trkpt>
      <trkpt lat="45.44849" lon="4.70856">
        <ele>394.28</ele>
        <time>2021-01-09T14:24:55Z</time>
      </trkpt>
      <trkpt lat="45.44844" lon="4.70859">
        <ele>393.32</ele>
        <time>2021-01-09T14:24:56Z</time>
      </trkpt>
      <trkpt lat="45.44839" lon="4.70865">
        <ele>391.39</ele>
        <time>2021-01-09T14:24:57Z</time>
      </trkpt>
      <trkpt lat="45.44834" lon="4.70871">
        <ele>390.43</ele>
        <time>2021-01-09T14:24:58Z</time>
      </trkpt>
      <trkpt lat="45.44823" lon="4.70886">
        <ele>388.51</ele>
        <time>2021-01-09T14:25:00Z</time>
      </trkpt>
      <trkpt lat="45.44817" lon="4.70893">
        <ele>387.55</ele>
        <time>2021-01-09T14:25:01Z</time>
      </trkpt>
      <trkpt lat="45.44811" lon="4.70899">
        <ele>387.07</ele>
        <time>2021-01-09T14:25:02Z</time>
      </trkpt>
      <trkpt lat="45.44804" lon="4.70905">
        <ele>386.11</ele>
        <time>2021-01-09T14:25:03Z</time>
      </trkpt>
      <trkpt lat="45.44798" lon="4.70913">
        <ele>385.63</ele>
        <time>2021-01-09T14:25:04Z</time>
      </trkpt>
      <trkpt lat="45.44786" lon="4.70929">
        <ele>384.66</ele>
        <time>2021-01-09T14:25:06Z</time>
      </trkpt>
      <trkpt lat="45.44779" lon="4.70935">
        <ele>383.7</ele>
        <time>2021-01-09T14:25:07Z</time>
      </trkpt>
      <trkpt lat="45.44772" lon="4.70941">
        <ele>383.22</ele>
        <time>2021-01-09T14:25:08Z</time>
      </trkpt>
      <trkpt lat="45.44765" lon="4.70946">
        <ele>383.22</ele>
        <time>2021-01-09T14:25:09Z</time>
      </trkpt>
      <trkpt lat="45.44757" lon="4.7095">
        <ele>382.74</ele>
        <time>2021-01-09T14:25:10Z</time>
      </trkpt>
      <trkpt lat="45.44749" lon="4.70954">
        <ele>382.26</ele>
        <time>2021-01-09T14:25:11Z</time>
      </trkpt>
      <trkpt lat="45.44742" lon="4.7096">
        <ele>381.78</ele>
        <time>2021-01-09T14:25:12Z</time>
      </trkpt>
      <trkpt lat="45.44737" lon="4.70968">
        <ele>381.3</ele>
        <time>2021-01-09T14:25:13Z</time>
      </trkpt>
      <trkpt lat="45.44733" lon="4.70977">
        <ele>381.3</ele>
        <time>2021-01-09T14:25:14Z</time>
      </trkpt>
      <trkpt lat="45.4473" lon="4.70986">
        <ele>381.78</ele>
        <time>2021-01-09T14:25:15Z</time>
      </trkpt>
      <trkpt lat="45.44728" lon="4.70995">
        <ele>380.82</ele>
        <time>2021-01-09T14:25:16Z</time>
      </trkpt>
      <trkpt lat="45.44706" lon="4.71062">
        <ele>383.22</ele>
        <time>2021-01-09T14:25:27Z</time>
      </trkpt>
      <trkpt lat="45.44681" lon="4.71107">
        <ele>385.15</ele>
        <time>2021-01-09T14:25:40Z</time>
      </trkpt>
      <trkpt lat="45.44667" lon="4.71123">
        <ele>388.03</ele>
        <time>2021-01-09T14:25:47Z</time>
      </trkpt>
      <trkpt lat="45.44643" lon="4.71157">
        <ele>390.43</ele>
        <time>2021-01-09T14:26:00Z</time>
      </trkpt>
      <trkpt lat="45.44618" lon="4.71193">
        <ele>393.8</ele>
        <time>2021-01-09T14:26:15Z</time>
      </trkpt>
      <trkpt lat="45.44602" lon="4.71227">
        <ele>395.72</ele>
        <time>2021-01-09T14:26:29Z</time>
      </trkpt>
      <trkpt lat="45.44583" lon="4.71245">
        <ele>398.12</ele>
        <time>2021-01-09T14:26:41Z</time>
      </trkpt>
      <trkpt lat="45.44576" lon="4.71252">
        <ele>399.08</ele>
        <time>2021-01-09T14:26:46Z</time>
      </trkpt>
      <trkpt lat="45.44574" lon="4.71252">
        <ele>399.57</ele>
        <time>2021-01-09T14:26:47Z</time>
      </trkpt>
      <trkpt lat="45.44553" lon="4.71258">
        <ele>402.45</ele>
        <time>2021-01-09T14:27:01Z</time>
      </trkpt>
      <trkpt lat="45.44551" lon="4.71258">
        <ele>402.45</ele>
        <time>2021-01-09T14:27:02Z</time>
      </trkpt>
      <trkpt lat="45.4455" lon="4.71258">
        <ele>402.93</ele>
        <time>2021-01-09T14:27:03Z</time>
      </trkpt>
      <trkpt lat="45.44549" lon="4.71259">
        <ele>403.89</ele>
        <time>2021-01-09T14:27:04Z</time>
      </trkpt>
      <trkpt lat="45.44547" lon="4.71259">
        <ele>403.89</ele>
        <time>2021-01-09T14:27:05Z</time>
      </trkpt>
      <trkpt lat="45.44546" lon="4.7126">
        <ele>403.89</ele>
        <time>2021-01-09T14:27:06Z</time>
      </trkpt>
      <trkpt lat="45.44528" lon="4.71267">
        <ele>407.26</ele>
        <time>2021-01-09T14:27:18Z</time>
      </trkpt>
      <trkpt lat="45.4452" lon="4.7127">
        <ele>408.7</ele>
        <time>2021-01-09T14:27:24Z</time>
      </trkpt>
      <trkpt lat="45.44514" lon="4.71274">
        <ele>410.14</ele>
        <time>2021-01-09T14:27:29Z</time>
      </trkpt>
      <trkpt lat="45.44512" lon="4.71275">
        <ele>410.62</ele>
        <time>2021-01-09T14:27:30Z</time>
      </trkpt>
      <trkpt lat="45.44511" lon="4.71276">
        <ele>410.62</ele>
        <time>2021-01-09T14:27:31Z</time>
      </trkpt>
      <trkpt lat="45.4451" lon="4.71278">
        <ele>411.1</ele>
        <time>2021-01-09T14:27:32Z</time>
      </trkpt>
      <trkpt lat="45.44508" lon="4.71279">
        <ele>411.1</ele>
        <time>2021-01-09T14:27:33Z</time>
      </trkpt>
      <trkpt lat="45.44489" lon="4.71299">
        <ele>413.5</ele>
        <time>2021-01-09T14:27:47Z</time>
      </trkpt>
      <trkpt lat="45.44473" lon="4.71315">
        <ele>417.35</ele>
        <time>2021-01-09T14:27:59Z</time>
      </trkpt>
      <trkpt lat="45.44453" lon="4.71333">
        <ele>418.31</ele>
        <time>2021-01-09T14:28:11Z</time>
      </trkpt>
      <trkpt lat="45.44421" lon="4.71343">
        <ele>420.71</ele>
        <time>2021-01-09T14:28:26Z</time>
      </trkpt>
      <trkpt lat="45.44392" lon="4.71348">
        <ele>423.6</ele>
        <time>2021-01-09T14:28:40Z</time>
      </trkpt>
      <trkpt lat="45.44367" lon="4.71353">
        <ele>422.64</ele>
        <time>2021-01-09T14:28:51Z</time>
      </trkpt>
      <trkpt lat="45.44364" lon="4.71353">
        <ele>422.16</ele>
        <time>2021-01-09T14:28:52Z</time>
      </trkpt>
      <trkpt lat="45.4436" lon="4.71351">
        <ele>421.68</ele>
        <time>2021-01-09T14:28:53Z</time>
      </trkpt>
      <trkpt lat="45.44357" lon="4.71348">
        <ele>421.68</ele>
        <time>2021-01-09T14:28:54Z</time>
      </trkpt>
      <trkpt lat="45.44347" lon="4.71316">
        <ele>424.56</ele>
        <time>2021-01-09T14:29:05Z</time>
      </trkpt>
      <trkpt lat="45.44334" lon="4.71268">
        <ele>426.48</ele>
        <time>2021-01-09T14:29:20Z</time>
      </trkpt>
      <trkpt lat="45.44324" lon="4.71214">
        <ele>427.92</ele>
        <time>2021-01-09T14:29:35Z</time>
      </trkpt>
      <trkpt lat="45.44322" lon="4.71148">
        <ele>428.89</ele>
        <time>2021-01-09T14:29:52Z</time>
      </trkpt>
      <trkpt lat="45.44316" lon="4.71101">
        <ele>431.77</ele>
        <time>2021-01-09T14:30:05Z</time>
      </trkpt>
      <trkpt lat="45.44311" lon="4.71071">
        <ele>435.13</ele>
        <time>2021-01-09T14:30:17Z</time>
      </trkpt>
      <trkpt lat="45.443" lon="4.71034">
        <ele>438.02</ele>
        <time>2021-01-09T14:30:31Z</time>
      </trkpt>
      <trkpt lat="45.44281" lon="4.71002">
        <ele>440.9</ele>
        <time>2021-01-09T14:30:44Z</time>
      </trkpt>
      <trkpt lat="45.44262" lon="4.70967">
        <ele>440.42</ele>
        <time>2021-01-09T14:30:55Z</time>
      </trkpt>
      <trkpt lat="45.44238" lon="4.7091">
        <ele>440.42</ele>
        <time>2021-01-09T14:31:08Z</time>
      </trkpt>
      <trkpt lat="45.4422" lon="4.70864">
        <ele>441.86</ele>
        <time>2021-01-09T14:31:20Z</time>
      </trkpt>
      <trkpt lat="45.44208" lon="4.70815">
        <ele>442.82</ele>
        <time>2021-01-09T14:31:32Z</time>
      </trkpt>
      <trkpt lat="45.4419" lon="4.70727">
        <ele>439.94</ele>
        <time>2021-01-09T14:31:48Z</time>
      </trkpt>
      <trkpt lat="45.44182" lon="4.70672">
        <ele>439.46</ele>
        <time>2021-01-09T14:31:59Z</time>
      </trkpt>
      <trkpt lat="45.44169" lon="4.70628">
        <ele>439.94</ele>
        <time>2021-01-09T14:32:11Z</time>
      </trkpt>
      <trkpt lat="45.44161" lon="4.70604">
        <ele>439.46</ele>
        <time>2021-01-09T14:32:16Z</time>
      </trkpt>
      <trkpt lat="45.44159" lon="4.70598">
        <ele>439.46</ele>
        <time>2021-01-09T14:32:17Z</time>
      </trkpt>
      <trkpt lat="45.44142" lon="4.70547">
        <ele>438.02</ele>
        <time>2021-01-09T14:32:25Z</time>
      </trkpt>
      <trkpt lat="45.44116" lon="4.70479">
        <ele>438.02</ele>
        <time>2021-01-09T14:32:36Z</time>
      </trkpt>
      <trkpt lat="45.44114" lon="4.70473">
        <ele>438.02</ele>
        <time>2021-01-09T14:32:37Z</time>
      </trkpt>
      <trkpt lat="45.44112" lon="4.70468">
        <ele>438.02</ele>
        <time>2021-01-09T14:32:38Z</time>
      </trkpt>
      <trkpt lat="45.44083" lon="4.70382">
        <ele>438.5</ele>
        <time>2021-01-09T14:32:53Z</time>
      </trkpt>
      <trkpt lat="45.44081" lon="4.70376">
        <ele>438.02</ele>
        <time>2021-01-09T14:32:54Z</time>
      </trkpt>
      <trkpt lat="45.4408" lon="4.70371">
        <ele>438.02</ele>
        <time>2021-01-09T14:32:55Z</time>
      </trkpt>
      <trkpt lat="45.44078" lon="4.70366">
        <ele>438.5</ele>
        <time>2021-01-09T14:32:56Z</time>
      </trkpt>
      <trkpt lat="45.44076" lon="4.7036">
        <ele>438.5</ele>
        <time>2021-01-09T14:32:57Z</time>
      </trkpt>
      <trkpt lat="45.44065" lon="4.70326">
        <ele>439.46</ele>
        <time>2021-01-09T14:33:04Z</time>
      </trkpt>
      <trkpt lat="45.44036" lon="4.70252">
        <ele>440.42</ele>
        <time>2021-01-09T14:33:20Z</time>
      </trkpt>
      <trkpt lat="45.44018" lon="4.70206">
        <ele>441.38</ele>
        <time>2021-01-09T14:33:34Z</time>
      </trkpt>
      <trkpt lat="45.44017" lon="4.70162">
        <ele>442.82</ele>
        <time>2021-01-09T14:33:46Z</time>
      </trkpt>
      <trkpt lat="45.44" lon="4.70097">
        <ele>443.79</ele>
        <time>2021-01-09T14:34:02Z</time>
      </trkpt>
      <trkpt lat="45.43975" lon="4.70021">
        <ele>444.75</ele>
        <time>2021-01-09T14:34:19Z</time>
      </trkpt>
      <trkpt lat="45.43961" lon="4.69966">
        <ele>445.71</ele>
        <time>2021-01-09T14:34:31Z</time>
      </trkpt>
      <trkpt lat="45.43947" lon="4.69917">
        <ele>447.63</ele>
        <time>2021-01-09T14:34:43Z</time>
      </trkpt>
      <trkpt lat="45.43936" lon="4.69875">
        <ele>450.52</ele>
        <time>2021-01-09T14:34:55Z</time>
      </trkpt>
      <trkpt lat="45.43929" lon="4.69843">
        <ele>453.88</ele>
        <time>2021-01-09T14:35:06Z</time>
      </trkpt>
      <trkpt lat="45.43913" lon="4.69802">
        <ele>456.76</ele>
        <time>2021-01-09T14:35:20Z</time>
      </trkpt>
      <trkpt lat="45.43894" lon="4.69762">
        <ele>460.13</ele>
        <time>2021-01-09T14:35:34Z</time>
      </trkpt>
      <trkpt lat="45.43873" lon="4.69722">
        <ele>463.01</ele>
        <time>2021-01-09T14:35:50Z</time>
      </trkpt>
      <trkpt lat="45.43855" lon="4.69687">
        <ele>465.9</ele>
        <time>2021-01-09T14:36:04Z</time>
      </trkpt>
      <trkpt lat="45.4384" lon="4.69651">
        <ele>468.78</ele>
        <time>2021-01-09T14:36:18Z</time>
      </trkpt>
      <trkpt lat="45.43823" lon="4.69612">
        <ele>470.22</ele>
        <time>2021-01-09T14:36:31Z</time>
      </trkpt>
      <trkpt lat="45.43802" lon="4.69555">
        <ele>471.18</ele>
        <time>2021-01-09T14:36:46Z</time>
      </trkpt>
      <trkpt lat="45.43772" lon="4.69474">
        <ele>472.14</ele>
        <time>2021-01-09T14:37:06Z</time>
      </trkpt>
      <trkpt lat="45.43763" lon="4.69453">
        <ele>472.63</ele>
        <time>2021-01-09T14:37:12Z</time>
      </trkpt>
      <trkpt lat="45.4376" lon="4.69453">
        <ele>472.63</ele>
        <time>2021-01-09T14:37:13Z</time>
      </trkpt>
      <trkpt lat="45.43757" lon="4.69453">
        <ele>472.63</ele>
        <time>2021-01-09T14:37:14Z</time>
      </trkpt>
      <trkpt lat="45.43753" lon="4.69453">
        <ele>472.63</ele>
        <time>2021-01-09T14:37:15Z</time>
      </trkpt>
      <trkpt lat="45.4375" lon="4.69454">
        <ele>472.63</ele>
        <time>2021-01-09T14:37:16Z</time>
      </trkpt>
      <trkpt lat="45.43748" lon="4.69455">
        <ele>472.63</ele>
        <time>2021-01-09T14:37:17Z</time>
      </trkpt>
      <trkpt lat="45.43745" lon="4.69457">
        <ele>472.63</ele>
        <time>2021-01-09T14:37:18Z</time>
      </trkpt>
      <trkpt lat="45.43742" lon="4.69458">
        <ele>472.63</ele>
        <time>2021-01-09T14:37:19Z</time>
      </trkpt>
      <trkpt lat="45.43738" lon="4.69459">
        <ele>473.11</ele>
        <time>2021-01-09T14:37:20Z</time>
      </trkpt>
      <trkpt lat="45.43698" lon="4.69476">
        <ele>474.55</ele>
        <time>2021-01-09T14:37:33Z</time>
      </trkpt>
      <trkpt lat="45.43658" lon="4.69488">
        <ele>476.47</ele>
        <time>2021-01-09T14:37:47Z</time>
      </trkpt>
      <trkpt lat="45.43622" lon="4.69494">
        <ele>479.84</ele>
        <time>2021-01-09T14:38:00Z</time>
      </trkpt>
      <trkpt lat="45.43579" lon="4.695">
        <ele>481.28</ele>
        <time>2021-01-09T14:38:15Z</time>
      </trkpt>
      <trkpt lat="45.43537" lon="4.6949">
        <ele>481.28</ele>
        <time>2021-01-09T14:38:27Z</time>
      </trkpt>
      <trkpt lat="45.43499" lon="4.69448">
        <ele>481.76</ele>
        <time>2021-01-09T14:38:40Z</time>
      </trkpt>
      <trkpt lat="45.43464" lon="4.69405">
        <ele>481.76</ele>
        <time>2021-01-09T14:38:52Z</time>
      </trkpt>
      <trkpt lat="45.43461" lon="4.69401">
        <ele>481.76</ele>
        <time>2021-01-09T14:38:53Z</time>
      </trkpt>
      <trkpt lat="45.43457" lon="4.69397">
        <ele>481.28</ele>
        <time>2021-01-09T14:38:54Z</time>
      </trkpt>
      <trkpt lat="45.43453" lon="4.69394">
        <ele>481.28</ele>
        <time>2021-01-09T14:38:55Z</time>
      </trkpt>
      <trkpt lat="45.43448" lon="4.69393">
        <ele>480.8</ele>
        <time>2021-01-09T14:38:56Z</time>
      </trkpt>
      <trkpt lat="45.43443" lon="4.69393">
        <ele>479.84</ele>
        <time>2021-01-09T14:38:57Z</time>
      </trkpt>
      <trkpt lat="45.43436" lon="4.69393">
        <ele>478.87</ele>
        <time>2021-01-09T14:38:58Z</time>
      </trkpt>
      <trkpt lat="45.4343" lon="4.69394">
        <ele>477.91</ele>
        <time>2021-01-09T14:38:59Z</time>
      </trkpt>
      <trkpt lat="45.43423" lon="4.69395">
        <ele>477.43</ele>
        <time>2021-01-09T14:39:00Z</time>
      </trkpt>
      <trkpt lat="45.43416" lon="4.69395">
        <ele>476.47</ele>
        <time>2021-01-09T14:39:01Z</time>
      </trkpt>
      <trkpt lat="45.43408" lon="4.69394">
        <ele>475.51</ele>
        <time>2021-01-09T14:39:02Z</time>
      </trkpt>
      <trkpt lat="45.434" lon="4.69394">
        <ele>474.55</ele>
        <time>2021-01-09T14:39:03Z</time>
      </trkpt>
      <trkpt lat="45.43366" lon="4.69395">
        <ele>470.22</ele>
        <time>2021-01-09T14:39:07Z</time>
      </trkpt>
      <trkpt lat="45.4333" lon="4.69392">
        <ele>467.82</ele>
        <time>2021-01-09T14:39:11Z</time>
      </trkpt>
      <trkpt lat="45.43292" lon="4.69384">
        <ele>463.49</ele>
        <time>2021-01-09T14:39:15Z</time>
      </trkpt>
      <trkpt lat="45.43262" lon="4.69375">
        <ele>459.65</ele>
        <time>2021-01-09T14:39:18Z</time>
      </trkpt>
      <trkpt lat="45.43232" lon="4.69357">
        <ele>455.8</ele>
        <time>2021-01-09T14:39:21Z</time>
      </trkpt>
      <trkpt lat="45.43214" lon="4.69343">
        <ele>454.36</ele>
        <time>2021-01-09T14:39:23Z</time>
      </trkpt>
      <trkpt lat="45.43178" lon="4.69318">
        <ele>450.52</ele>
        <time>2021-01-09T14:39:27Z</time>
      </trkpt>
      <trkpt lat="45.4317" lon="4.69311">
        <ele>449.07</ele>
        <time>2021-01-09T14:39:28Z</time>
      </trkpt>
      <trkpt lat="45.43163" lon="4.69303">
        <ele>447.63</ele>
        <time>2021-01-09T14:39:29Z</time>
      </trkpt>
      <trkpt lat="45.43156" lon="4.69296">
        <ele>446.67</ele>
        <time>2021-01-09T14:39:30Z</time>
      </trkpt>
      <trkpt lat="45.43148" lon="4.69292">
        <ele>445.71</ele>
        <time>2021-01-09T14:39:31Z</time>
      </trkpt>
      <trkpt lat="45.43139" lon="4.69291">
        <ele>445.23</ele>
        <time>2021-01-09T14:39:32Z</time>
      </trkpt>
      <trkpt lat="45.4313" lon="4.69291">
        <ele>444.27</ele>
        <time>2021-01-09T14:39:33Z</time>
      </trkpt>
      <trkpt lat="45.43103" lon="4.69288">
        <ele>440.42</ele>
        <time>2021-01-09T14:39:36Z</time>
      </trkpt>
      <trkpt lat="45.43066" lon="4.69279">
        <ele>437.06</ele>
        <time>2021-01-09T14:39:40Z</time>
      </trkpt>
      <trkpt lat="45.43028" lon="4.69273">
        <ele>433.69</ele>
        <time>2021-01-09T14:39:44Z</time>
      </trkpt>
      <trkpt lat="45.4301" lon="4.6927">
        <ele>432.25</ele>
        <time>2021-01-09T14:39:47Z</time>
      </trkpt>
      <trkpt lat="45.42983" lon="4.69266">
        <ele>428.89</ele>
        <time>2021-01-09T14:39:52Z</time>
      </trkpt>
      <trkpt lat="45.42956" lon="4.69265">
        <ele>425.52</ele>
        <time>2021-01-09T14:39:56Z</time>
      </trkpt>
      <trkpt lat="45.4295" lon="4.69264">
        <ele>424.56</ele>
        <time>2021-01-09T14:39:57Z</time>
      </trkpt>
      <trkpt lat="45.42944" lon="4.69262">
        <ele>422.64</ele>
        <time>2021-01-09T14:39:58Z</time>
      </trkpt>
      <trkpt lat="45.42938" lon="4.69259">
        <ele>422.16</ele>
        <time>2021-01-09T14:39:59Z</time>
      </trkpt>
      <trkpt lat="45.42932" lon="4.69257">
        <ele>421.68</ele>
        <time>2021-01-09T14:40:00Z</time>
      </trkpt>
      <trkpt lat="45.42928" lon="4.69255">
        <ele>421.19</ele>
        <time>2021-01-09T14:40:01Z</time>
      </trkpt>
      <trkpt lat="45.42912" lon="4.69249">
        <ele>419.27</ele>
        <time>2021-01-09T14:40:08Z</time>
      </trkpt>
      <trkpt lat="45.4291" lon="4.69249">
        <ele>418.79</ele>
        <time>2021-01-09T14:40:09Z</time>
      </trkpt>
      <trkpt lat="45.42908" lon="4.69247">
        <ele>418.31</ele>
        <time>2021-01-09T14:40:10Z</time>
      </trkpt>
      <trkpt lat="45.42906" lon="4.69246">
        <ele>418.31</ele>
        <time>2021-01-09T14:40:11Z</time>
      </trkpt>
      <trkpt lat="45.42904" lon="4.69245">
        <ele>417.83</ele>
        <time>2021-01-09T14:40:12Z</time>
      </trkpt>
      <trkpt lat="45.42902" lon="4.69244">
        <ele>417.35</ele>
        <time>2021-01-09T14:40:13Z</time>
      </trkpt>
      <trkpt lat="45.42898" lon="4.69243">
        <ele>416.87</ele>
        <time>2021-01-09T14:40:14Z</time>
      </trkpt>
      <trkpt lat="45.42894" lon="4.69242">
        <ele>416.39</ele>
        <time>2021-01-09T14:40:15Z</time>
      </trkpt>
      <trkpt lat="45.4289" lon="4.69241">
        <ele>415.91</ele>
        <time>2021-01-09T14:40:16Z</time>
      </trkpt>
      <trkpt lat="45.42885" lon="4.69238">
        <ele>414.95</ele>
        <time>2021-01-09T14:40:17Z</time>
      </trkpt>
      <trkpt lat="45.4288" lon="4.69236">
        <ele>414.47</ele>
        <time>2021-01-09T14:40:18Z</time>
      </trkpt>
      <trkpt lat="45.42874" lon="4.69234">
        <ele>413.5</ele>
        <time>2021-01-09T14:40:19Z</time>
      </trkpt>
      <trkpt lat="45.42869" lon="4.69232">
        <ele>412.54</ele>
        <time>2021-01-09T14:40:20Z</time>
      </trkpt>
      <trkpt lat="45.42855" lon="4.69226">
        <ele>409.18</ele>
        <time>2021-01-09T14:40:23Z</time>
      </trkpt>
      <trkpt lat="45.42839" lon="4.69221">
        <ele>406.29</ele>
        <time>2021-01-09T14:40:28Z</time>
      </trkpt>
      <trkpt lat="45.42824" lon="4.69215">
        <ele>402.93</ele>
        <time>2021-01-09T14:40:33Z</time>
      </trkpt>
      <trkpt lat="45.42811" lon="4.69211">
        <ele>400.53</ele>
        <time>2021-01-09T14:40:37Z</time>
      </trkpt>
      <trkpt lat="45.42793" lon="4.69206">
        <ele>397.64</ele>
        <time>2021-01-09T14:40:42Z</time>
      </trkpt>
      <trkpt lat="45.42785" lon="4.69205">
        <ele>396.68</ele>
        <time>2021-01-09T14:40:44Z</time>
      </trkpt>
      <trkpt lat="45.42781" lon="4.69203">
        <ele>396.2</ele>
        <time>2021-01-09T14:40:45Z</time>
      </trkpt>
      <trkpt lat="45.4277" lon="4.69199">
        <ele>393.32</ele>
        <time>2021-01-09T14:40:47Z</time>
      </trkpt>
      <trkpt lat="45.42732" lon="4.69184">
        <ele>390.43</ele>
        <time>2021-01-09T14:40:56Z</time>
      </trkpt>
      <trkpt lat="45.42717" lon="4.69177">
        <ele>388.99</ele>
        <time>2021-01-09T14:40:59Z</time>
      </trkpt>
      <trkpt lat="45.42711" lon="4.69174">
        <ele>388.03</ele>
        <time>2021-01-09T14:41:00Z</time>
      </trkpt>
      <trkpt lat="45.42706" lon="4.69171">
        <ele>387.55</ele>
        <time>2021-01-09T14:41:01Z</time>
      </trkpt>
      <trkpt lat="45.42678" lon="4.69155">
        <ele>385.15</ele>
        <time>2021-01-09T14:41:06Z</time>
      </trkpt>
      <trkpt lat="45.42673" lon="4.69154">
        <ele>384.18</ele>
        <time>2021-01-09T14:41:07Z</time>
      </trkpt>
      <trkpt lat="45.42656" lon="4.69151">
        <ele>380.34</ele>
        <time>2021-01-09T14:41:10Z</time>
      </trkpt>
      <trkpt lat="45.42637" lon="4.69147">
        <ele>376.97</ele>
        <time>2021-01-09T14:41:14Z</time>
      </trkpt>
      <trkpt lat="45.42632" lon="4.69146">
        <ele>376.49</ele>
        <time>2021-01-09T14:41:15Z</time>
      </trkpt>
      <trkpt lat="45.42628" lon="4.69144">
        <ele>376.01</ele>
        <time>2021-01-09T14:41:16Z</time>
      </trkpt>
      <trkpt lat="45.42625" lon="4.69142">
        <ele>375.53</ele>
        <time>2021-01-09T14:41:17Z</time>
      </trkpt>
      <trkpt lat="45.42621" lon="4.6914">
        <ele>374.57</ele>
        <time>2021-01-09T14:41:18Z</time>
      </trkpt>
      <trkpt lat="45.42617" lon="4.6914">
        <ele>373.61</ele>
        <time>2021-01-09T14:41:19Z</time>
      </trkpt>
      <trkpt lat="45.42612" lon="4.69139">
        <ele>373.13</ele>
        <time>2021-01-09T14:41:20Z</time>
      </trkpt>
      <trkpt lat="45.42608" lon="4.69137">
        <ele>372.17</ele>
        <time>2021-01-09T14:41:21Z</time>
      </trkpt>
      <trkpt lat="45.42604" lon="4.69135">
        <ele>371.69</ele>
        <time>2021-01-09T14:41:22Z</time>
      </trkpt>
      <trkpt lat="45.42588" lon="4.69132">
        <ele>369.28</ele>
        <time>2021-01-09T14:41:26Z</time>
      </trkpt>
      <trkpt lat="45.42583" lon="4.69132">
        <ele>368.32</ele>
        <time>2021-01-09T14:41:27Z</time>
      </trkpt>
      <trkpt lat="45.42579" lon="4.69133">
        <ele>367.84</ele>
        <time>2021-01-09T14:41:28Z</time>
      </trkpt>
      <trkpt lat="45.42576" lon="4.69133">
        <ele>367.36</ele>
        <time>2021-01-09T14:41:29Z</time>
      </trkpt>
      <trkpt lat="45.42573" lon="4.69132">
        <ele>366.88</ele>
        <time>2021-01-09T14:41:30Z</time>
      </trkpt>
      <trkpt lat="45.42569" lon="4.69132">
        <ele>366.4</ele>
        <time>2021-01-09T14:41:31Z</time>
      </trkpt>
      <trkpt lat="45.42546" lon="4.69131">
        <ele>363.04</ele>
        <time>2021-01-09T14:41:37Z</time>
      </trkpt>
      <trkpt lat="45.42541" lon="4.69132">
        <ele>362.55</ele>
        <time>2021-01-09T14:41:38Z</time>
      </trkpt>
      <trkpt lat="45.42537" lon="4.69132">
        <ele>362.55</ele>
        <time>2021-01-09T14:41:39Z</time>
      </trkpt>
      <trkpt lat="45.42533" lon="4.69132">
        <ele>362.07</ele>
        <time>2021-01-09T14:41:40Z</time>
      </trkpt>
      <trkpt lat="45.42529" lon="4.69133">
        <ele>361.59</ele>
        <time>2021-01-09T14:41:41Z</time>
      </trkpt>
      <trkpt lat="45.42526" lon="4.69134">
        <ele>361.59</ele>
        <time>2021-01-09T14:41:42Z</time>
      </trkpt>
      <trkpt lat="45.42522" lon="4.69136">
        <ele>361.11</ele>
        <time>2021-01-09T14:41:43Z</time>
      </trkpt>
      <trkpt lat="45.42512" lon="4.69136">
        <ele>360.15</ele>
        <time>2021-01-09T14:41:47Z</time>
      </trkpt>
      <trkpt lat="45.4251" lon="4.69132">
        <ele>359.67</ele>
        <time>2021-01-09T14:41:48Z</time>
      </trkpt>
      <trkpt lat="45.4251" lon="4.69128">
        <ele>359.19</ele>
        <time>2021-01-09T14:41:49Z</time>
      </trkpt>
      <trkpt lat="45.42509" lon="4.69124">
        <ele>359.19</ele>
        <time>2021-01-09T14:41:50Z</time>
      </trkpt>
      <trkpt lat="45.42509" lon="4.6912">
        <ele>359.19</ele>
        <time>2021-01-09T14:41:51Z</time>
      </trkpt>
      <trkpt lat="45.42508" lon="4.69115">
        <ele>359.19</ele>
        <time>2021-01-09T14:41:52Z</time>
      </trkpt>
      <trkpt lat="45.42504" lon="4.69087">
        <ele>356.31</ele>
        <time>2021-01-09T14:41:58Z</time>
      </trkpt>
      <trkpt lat="45.42495" lon="4.6905">
        <ele>352.46</ele>
        <time>2021-01-09T14:42:05Z</time>
      </trkpt>
      <trkpt lat="45.42488" lon="4.6903">
        <ele>349.58</ele>
        <time>2021-01-09T14:42:08Z</time>
      </trkpt>
      <trkpt lat="45.42483" lon="4.69011">
        <ele>348.13</ele>
        <time>2021-01-09T14:42:11Z</time>
      </trkpt>
      <trkpt lat="45.42481" lon="4.69003">
        <ele>347.17</ele>
        <time>2021-01-09T14:42:12Z</time>
      </trkpt>
      <trkpt lat="45.42475" lon="4.68978">
        <ele>344.77</ele>
        <time>2021-01-09T14:42:16Z</time>
      </trkpt>
      <trkpt lat="45.42475" lon="4.68972">
        <ele>344.77</ele>
        <time>2021-01-09T14:42:17Z</time>
      </trkpt>
      <trkpt lat="45.42471" lon="4.68948">
        <ele>341.41</ele>
        <time>2021-01-09T14:42:20Z</time>
      </trkpt>
      <trkpt lat="45.42467" lon="4.6892">
        <ele>337.08</ele>
        <time>2021-01-09T14:42:24Z</time>
      </trkpt>
      <trkpt lat="45.42467" lon="4.68912">
        <ele>335.64</ele>
        <time>2021-01-09T14:42:25Z</time>
      </trkpt>
      <trkpt lat="45.42466" lon="4.68906">
        <ele>334.68</ele>
        <time>2021-01-09T14:42:26Z</time>
      </trkpt>
      <trkpt lat="45.42463" lon="4.68895">
        <ele>333.23</ele>
        <time>2021-01-09T14:42:28Z</time>
      </trkpt>
      <trkpt lat="45.42461" lon="4.6889">
        <ele>332.27</ele>
        <time>2021-01-09T14:42:29Z</time>
      </trkpt>
      <trkpt lat="45.42446" lon="4.68857">
        <ele>331.31</ele>
        <time>2021-01-09T14:42:35Z</time>
      </trkpt>
      <trkpt lat="45.42422" lon="4.68826">
        <ele>333.23</ele>
        <time>2021-01-09T14:42:44Z</time>
      </trkpt>
      <trkpt lat="45.42421" lon="4.68823">
        <ele>333.23</ele>
        <time>2021-01-09T14:42:45Z</time>
      </trkpt>
      <trkpt lat="45.42421" lon="4.68821">
        <ele>333.23</ele>
        <time>2021-01-09T14:42:46Z</time>
      </trkpt>
      <trkpt lat="45.42422" lon="4.68818">
        <ele>333.71</ele>
        <time>2021-01-09T14:42:47Z</time>
      </trkpt>
      <trkpt lat="45.42423" lon="4.68816">
        <ele>333.71</ele>
        <time>2021-01-09T14:42:48Z</time>
      </trkpt>
      <trkpt lat="45.42423" lon="4.68815">
        <ele>334.2</ele>
        <time>2021-01-09T14:42:49Z</time>
      </trkpt>
      <trkpt lat="45.42426" lon="4.68809">
        <ele>335.16</ele>
        <time>2021-01-09T14:42:53Z</time>
      </trkpt>
      <trkpt lat="45.42427" lon="4.68807">
        <ele>335.16</ele>
        <time>2021-01-09T14:42:54Z</time>
      </trkpt>
      <trkpt lat="45.42428" lon="4.68804">
        <ele>335.16</ele>
        <time>2021-01-09T14:42:55Z</time>
      </trkpt>
      <trkpt lat="45.42433" lon="4.68793">
        <ele>337.08</ele>
        <time>2021-01-09T14:43:02Z</time>
      </trkpt>
      <trkpt lat="45.42434" lon="4.68792">
        <ele>337.56</ele>
        <time>2021-01-09T14:43:03Z</time>
      </trkpt>
      <trkpt lat="45.42442" lon="4.68775">
        <ele>340.92</ele>
        <time>2021-01-09T14:43:14Z</time>
      </trkpt>
      <trkpt lat="45.42444" lon="4.68771">
        <ele>341.41</ele>
        <time>2021-01-09T14:43:17Z</time>
      </trkpt>
      <trkpt lat="45.42444" lon="4.68769">
        <ele>341.41</ele>
        <time>2021-01-09T14:43:18Z</time>
      </trkpt>
      <trkpt lat="45.42445" lon="4.68767">
        <ele>341.89</ele>
        <time>2021-01-09T14:43:19Z</time>
      </trkpt>
      <trkpt lat="45.42445" lon="4.68765">
        <ele>341.89</ele>
        <time>2021-01-09T14:43:20Z</time>
      </trkpt>
      <trkpt lat="45.42446" lon="4.68761">
        <ele>342.85</ele>
        <time>2021-01-09T14:43:23Z</time>
      </trkpt>
      <trkpt lat="45.42447" lon="4.68759">
        <ele>342.85</ele>
        <time>2021-01-09T14:43:24Z</time>
      </trkpt>
      <trkpt lat="45.42449" lon="4.68752">
        <ele>343.81</ele>
        <time>2021-01-09T14:43:28Z</time>
      </trkpt>
      <trkpt lat="45.42449" lon="4.6875">
        <ele>343.81</ele>
        <time>2021-01-09T14:43:29Z</time>
      </trkpt>
      <trkpt lat="45.42455" lon="4.68732">
        <ele>345.73</ele>
        <time>2021-01-09T14:43:42Z</time>
      </trkpt>
      <trkpt lat="45.42464" lon="4.68707">
        <ele>347.65</ele>
        <time>2021-01-09T14:43:56Z</time>
      </trkpt>
      <trkpt lat="45.4247" lon="4.6868">
        <ele>349.58</ele>
        <time>2021-01-09T14:44:10Z</time>
      </trkpt>
      <trkpt lat="45.42472" lon="4.68677">
        <ele>350.06</ele>
        <time>2021-01-09T14:44:12Z</time>
      </trkpt>
      <trkpt lat="45.42475" lon="4.68674">
        <ele>350.54</ele>
        <time>2021-01-09T14:44:15Z</time>
      </trkpt>
      <trkpt lat="45.42476" lon="4.68674">
        <ele>350.54</ele>
        <time>2021-01-09T14:44:16Z</time>
      </trkpt>
      <trkpt lat="45.42476" lon="4.68674">
        <ele>351.02</ele>
        <time>2021-01-09T14:44:17Z</time>
      </trkpt>
      <trkpt lat="45.42477" lon="4.68676">
        <ele>351.02</ele>
        <time>2021-01-09T14:44:18Z</time>
      </trkpt>
      <trkpt lat="45.42477" lon="4.68677">
        <ele>351.02</ele>
        <time>2021-01-09T14:44:19Z</time>
      </trkpt>
      <trkpt lat="45.42477" lon="4.68679">
        <ele>351.02</ele>
        <time>2021-01-09T14:44:20Z</time>
      </trkpt>
      <trkpt lat="45.42477" lon="4.6868">
        <ele>351.02</ele>
        <time>2021-01-09T14:44:21Z</time>
      </trkpt>
      <trkpt lat="45.42477" lon="4.68682">
        <ele>351.5</ele>
        <time>2021-01-09T14:44:22Z</time>
      </trkpt>
      <trkpt lat="45.42477" lon="4.68684">
        <ele>351.5</ele>
        <time>2021-01-09T14:44:23Z</time>
      </trkpt>
      <trkpt lat="45.42476" lon="4.68686">
        <ele>351.5</ele>
        <time>2021-01-09T14:44:24Z</time>
      </trkpt>
      <trkpt lat="45.42476" lon="4.68687">
        <ele>351.5</ele>
        <time>2021-01-09T14:44:25Z</time>
      </trkpt>
      <trkpt lat="45.42476" lon="4.68689">
        <ele>351.98</ele>
        <time>2021-01-09T14:44:26Z</time>
      </trkpt>
      <trkpt lat="45.42478" lon="4.687">
        <ele>353.42</ele>
        <time>2021-01-09T14:44:32Z</time>
      </trkpt>
      <trkpt lat="45.4248" lon="4.68701">
        <ele>353.42</ele>
        <time>2021-01-09T14:44:33Z</time>
      </trkpt>
      <trkpt lat="45.42481" lon="4.68701">
        <ele>353.42</ele>
        <time>2021-01-09T14:44:34Z</time>
      </trkpt>
      <trkpt lat="45.42483" lon="4.687">
        <ele>353.42</ele>
        <time>2021-01-09T14:44:35Z</time>
      </trkpt>
      <trkpt lat="45.42483" lon="4.68698">
        <ele>353.9</ele>
        <time>2021-01-09T14:44:36Z</time>
      </trkpt>
      <trkpt lat="45.42483" lon="4.68696">
        <ele>353.9</ele>
        <time>2021-01-09T14:44:37Z</time>
      </trkpt>
      <trkpt lat="45.42482" lon="4.68688">
        <ele>353.9</ele>
        <time>2021-01-09T14:44:41Z</time>
      </trkpt>
      <trkpt lat="45.42483" lon="4.68686">
        <ele>353.9</ele>
        <time>2021-01-09T14:44:42Z</time>
      </trkpt>
      <trkpt lat="45.42483" lon="4.68683">
        <ele>353.9</ele>
        <time>2021-01-09T14:44:43Z</time>
      </trkpt>
      <trkpt lat="45.42485" lon="4.68677">
        <ele>353.9</ele>
        <time>2021-01-09T14:44:46Z</time>
      </trkpt>
      <trkpt lat="45.42486" lon="4.68675">
        <ele>354.38</ele>
        <time>2021-01-09T14:44:47Z</time>
      </trkpt>
      <trkpt lat="45.42487" lon="4.68673">
        <ele>354.38</ele>
        <time>2021-01-09T14:44:48Z</time>
      </trkpt>
      <trkpt lat="45.42488" lon="4.68671">
        <ele>354.86</ele>
        <time>2021-01-09T14:44:49Z</time>
      </trkpt>
      <trkpt lat="45.42488" lon="4.68669">
        <ele>354.86</ele>
        <time>2021-01-09T14:44:50Z</time>
      </trkpt>
      <trkpt lat="45.42489" lon="4.6866">
        <ele>355.34</ele>
        <time>2021-01-09T14:44:54Z</time>
      </trkpt>
      <trkpt lat="45.4249" lon="4.68659">
        <ele>355.83</ele>
        <time>2021-01-09T14:44:55Z</time>
      </trkpt>
      <trkpt lat="45.42493" lon="4.68655">
        <ele>355.83</ele>
        <time>2021-01-09T14:44:58Z</time>
      </trkpt>
      <trkpt lat="45.42494" lon="4.68653">
        <ele>355.83</ele>
        <time>2021-01-09T14:44:59Z</time>
      </trkpt>
      <trkpt lat="45.42494" lon="4.68652">
        <ele>356.31</ele>
        <time>2021-01-09T14:45:00Z</time>
      </trkpt>
      <trkpt lat="45.42501" lon="4.68635">
        <ele>359.19</ele>
        <time>2021-01-09T14:45:12Z</time>
      </trkpt>
      <trkpt lat="45.42502" lon="4.68634">
        <ele>360.15</ele>
        <time>2021-01-09T14:45:13Z</time>
      </trkpt>
      <trkpt lat="45.42503" lon="4.68632">
        <ele>360.15</ele>
        <time>2021-01-09T14:45:14Z</time>
      </trkpt>
      <trkpt lat="45.42503" lon="4.68631">
        <ele>360.63</ele>
        <time>2021-01-09T14:45:15Z</time>
      </trkpt>
      <trkpt lat="45.42504" lon="4.68629">
        <ele>360.63</ele>
        <time>2021-01-09T14:45:16Z</time>
      </trkpt>
      <trkpt lat="45.42505" lon="4.68627">
        <ele>361.11</ele>
        <time>2021-01-09T14:45:17Z</time>
      </trkpt>
      <trkpt lat="45.42507" lon="4.6862">
        <ele>361.59</ele>
        <time>2021-01-09T14:45:21Z</time>
      </trkpt>
      <trkpt lat="45.42509" lon="4.68614">
        <ele>362.07</ele>
        <time>2021-01-09T14:45:24Z</time>
      </trkpt>
      <trkpt lat="45.42509" lon="4.68612">
        <ele>362.55</ele>
        <time>2021-01-09T14:45:25Z</time>
      </trkpt>
      <trkpt lat="45.42509" lon="4.6861">
        <ele>362.55</ele>
        <time>2021-01-09T14:45:26Z</time>
      </trkpt>
      <trkpt lat="45.42514" lon="4.68593">
        <ele>365.92</ele>
        <time>2021-01-09T14:45:37Z</time>
      </trkpt>
      <trkpt lat="45.42515" lon="4.68592">
        <ele>365.92</ele>
        <time>2021-01-09T14:45:38Z</time>
      </trkpt>
      <trkpt lat="45.4252" lon="4.68572">
        <ele>368.8</ele>
        <time>2021-01-09T14:45:49Z</time>
      </trkpt>
      <trkpt lat="45.42524" lon="4.68551">
        <ele>371.69</ele>
        <time>2021-01-09T14:46:01Z</time>
      </trkpt>
      <trkpt lat="45.42528" lon="4.68533">
        <ele>375.05</ele>
        <time>2021-01-09T14:46:15Z</time>
      </trkpt>
      <trkpt lat="45.42532" lon="4.68513">
        <ele>377.94</ele>
        <time>2021-01-09T14:46:28Z</time>
      </trkpt>
      <trkpt lat="45.42539" lon="4.68496">
        <ele>380.34</ele>
        <time>2021-01-09T14:46:41Z</time>
      </trkpt>
      <trkpt lat="45.42541" lon="4.68485">
        <ele>381.78</ele>
        <time>2021-01-09T14:46:48Z</time>
      </trkpt>
      <trkpt lat="45.42541" lon="4.68484">
        <ele>382.26</ele>
        <time>2021-01-09T14:46:49Z</time>
      </trkpt>
      <trkpt lat="45.42541" lon="4.68482">
        <ele>381.78</ele>
        <time>2021-01-09T14:46:50Z</time>
      </trkpt>
      <trkpt lat="45.42542" lon="4.6848">
        <ele>382.26</ele>
        <time>2021-01-09T14:46:51Z</time>
      </trkpt>
      <trkpt lat="45.42543" lon="4.68479">
        <ele>382.26</ele>
        <time>2021-01-09T14:46:52Z</time>
      </trkpt>
      <trkpt lat="45.42543" lon="4.68477">
        <ele>382.74</ele>
        <time>2021-01-09T14:46:53Z</time>
      </trkpt>
      <trkpt lat="45.42544" lon="4.68475">
        <ele>382.74</ele>
        <time>2021-01-09T14:46:54Z</time>
      </trkpt>
      <trkpt lat="45.42544" lon="4.68473">
        <ele>382.74</ele>
        <time>2021-01-09T14:46:55Z</time>
      </trkpt>
      <trkpt lat="45.42547" lon="4.68448">
        <ele>386.11</ele>
        <time>2021-01-09T14:47:10Z</time>
      </trkpt>
      <trkpt lat="45.42547" lon="4.68441">
        <ele>386.59</ele>
        <time>2021-01-09T14:47:14Z</time>
      </trkpt>
      <trkpt lat="45.4255" lon="4.68417">
        <ele>388.99</ele>
        <time>2021-01-09T14:47:28Z</time>
      </trkpt>
      <trkpt lat="45.42552" lon="4.68389">
        <ele>391.39</ele>
        <time>2021-01-09T14:47:43Z</time>
      </trkpt>
      <trkpt lat="45.42553" lon="4.68363">
        <ele>393.8</ele>
        <time>2021-01-09T14:47:58Z</time>
      </trkpt>
      <trkpt lat="45.42554" lon="4.68349">
        <ele>395.24</ele>
        <time>2021-01-09T14:48:06Z</time>
      </trkpt>
      <trkpt lat="45.42554" lon="4.68347">
        <ele>395.72</ele>
        <time>2021-01-09T14:48:07Z</time>
      </trkpt>
      <trkpt lat="45.42554" lon="4.68345">
        <ele>395.24</ele>
        <time>2021-01-09T14:48:08Z</time>
      </trkpt>
      <trkpt lat="45.42554" lon="4.68312">
        <ele>398.12</ele>
        <time>2021-01-09T14:48:25Z</time>
      </trkpt>
      <trkpt lat="45.42554" lon="4.68291">
        <ele>399.08</ele>
        <time>2021-01-09T14:48:34Z</time>
      </trkpt>
      <trkpt lat="45.42555" lon="4.68289">
        <ele>399.08</ele>
        <time>2021-01-09T14:48:35Z</time>
      </trkpt>
      <trkpt lat="45.42557" lon="4.68262">
        <ele>402.45</ele>
        <time>2021-01-09T14:48:46Z</time>
      </trkpt>
      <trkpt lat="45.42559" lon="4.68217">
        <ele>405.33</ele>
        <time>2021-01-09T14:49:03Z</time>
      </trkpt>
      <trkpt lat="45.42558" lon="4.68173">
        <ele>406.77</ele>
        <time>2021-01-09T14:49:18Z</time>
      </trkpt>
      <trkpt lat="45.42552" lon="4.68145">
        <ele>407.26</ele>
        <time>2021-01-09T14:49:27Z</time>
      </trkpt>
      <trkpt lat="45.42525" lon="4.68098">
        <ele>409.18</ele>
        <time>2021-01-09T14:49:44Z</time>
      </trkpt>
      <trkpt lat="45.42498" lon="4.68049">
        <ele>410.62</ele>
        <time>2021-01-09T14:50:00Z</time>
      </trkpt>
      <trkpt lat="45.42465" lon="4.67999">
        <ele>411.58</ele>
        <time>2021-01-09T14:50:16Z</time>
      </trkpt>
      <trkpt lat="45.42442" lon="4.67953">
        <ele>411.58</ele>
        <time>2021-01-09T14:50:28Z</time>
      </trkpt>
      <trkpt lat="45.42432" lon="4.67927">
        <ele>413.5</ele>
        <time>2021-01-09T14:50:36Z</time>
      </trkpt>
      <trkpt lat="45.4243" lon="4.67926">
        <ele>413.5</ele>
        <time>2021-01-09T14:50:37Z</time>
      </trkpt>
      <trkpt lat="45.42428" lon="4.67926">
        <ele>413.5</ele>
        <time>2021-01-09T14:50:38Z</time>
      </trkpt>
      <trkpt lat="45.42425" lon="4.67927">
        <ele>413.5</ele>
        <time>2021-01-09T14:50:39Z</time>
      </trkpt>
      <trkpt lat="45.42423" lon="4.67929">
        <ele>413.5</ele>
        <time>2021-01-09T14:50:40Z</time>
      </trkpt>
      <trkpt lat="45.42388" lon="4.67953">
        <ele>414.47</ele>
        <time>2021-01-09T14:50:53Z</time>
      </trkpt>
      <trkpt lat="45.42339" lon="4.67984">
        <ele>415.43</ele>
        <time>2021-01-09T14:51:11Z</time>
      </trkpt>
      <trkpt lat="45.4228" lon="4.67998">
        <ele>416.87</ele>
        <time>2021-01-09T14:51:29Z</time>
      </trkpt>
      <trkpt lat="45.42219" lon="4.68007">
        <ele>416.39</ele>
        <time>2021-01-09T14:51:46Z</time>
      </trkpt>
      <trkpt lat="45.42187" lon="4.68014">
        <ele>416.39</ele>
        <time>2021-01-09T14:51:54Z</time>
      </trkpt>
      <trkpt lat="45.4218" lon="4.68018">
        <ele>416.87</ele>
        <time>2021-01-09T14:51:56Z</time>
      </trkpt>
      <trkpt lat="45.42176" lon="4.6802">
        <ele>416.39</ele>
        <time>2021-01-09T14:51:57Z</time>
      </trkpt>
      <trkpt lat="45.42172" lon="4.68022">
        <ele>416.39</ele>
        <time>2021-01-09T14:51:58Z</time>
      </trkpt>
      <trkpt lat="45.42168" lon="4.68023">
        <ele>416.39</ele>
        <time>2021-01-09T14:51:59Z</time>
      </trkpt>
      <trkpt lat="45.42164" lon="4.68023">
        <ele>416.39</ele>
        <time>2021-01-09T14:52:00Z</time>
      </trkpt>
      <trkpt lat="45.42127" lon="4.68017">
        <ele>418.79</ele>
        <time>2021-01-09T14:52:12Z</time>
      </trkpt>
      <trkpt lat="45.42088" lon="4.67982">
        <ele>421.68</ele>
        <time>2021-01-09T14:52:28Z</time>
      </trkpt>
      <trkpt lat="45.42047" lon="4.67943">
        <ele>422.64</ele>
        <time>2021-01-09T14:52:44Z</time>
      </trkpt>
      <trkpt lat="45.41998" lon="4.67941">
        <ele>423.12</ele>
        <time>2021-01-09T14:52:58Z</time>
      </trkpt>
      <trkpt lat="45.41995" lon="4.67938">
        <ele>423.12</ele>
        <time>2021-01-09T14:52:59Z</time>
      </trkpt>
      <trkpt lat="45.41993" lon="4.67934">
        <ele>423.6</ele>
        <time>2021-01-09T14:53:00Z</time>
      </trkpt>
      <trkpt lat="45.41992" lon="4.67929">
        <ele>423.6</ele>
        <time>2021-01-09T14:53:01Z</time>
      </trkpt>
      <trkpt lat="45.41992" lon="4.67925">
        <ele>424.08</ele>
        <time>2021-01-09T14:53:02Z</time>
      </trkpt>
      <trkpt lat="45.41993" lon="4.67921">
        <ele>424.08</ele>
        <time>2021-01-09T14:53:03Z</time>
      </trkpt>
      <trkpt lat="45.41993" lon="4.67917">
        <ele>424.56</ele>
        <time>2021-01-09T14:53:04Z</time>
      </trkpt>
      <trkpt lat="45.41994" lon="4.67855">
        <ele>427.44</ele>
        <time>2021-01-09T14:53:21Z</time>
      </trkpt>
      <trkpt lat="45.41993" lon="4.67803">
        <ele>430.33</ele>
        <time>2021-01-09T14:53:36Z</time>
      </trkpt>
      <trkpt lat="45.41981" lon="4.67763">
        <ele>433.69</ele>
        <time>2021-01-09T14:53:49Z</time>
      </trkpt>
      <trkpt lat="45.41966" lon="4.67722">
        <ele>436.1</ele>
        <time>2021-01-09T14:54:04Z</time>
      </trkpt>
      <trkpt lat="45.41963" lon="4.67718">
        <ele>436.58</ele>
        <time>2021-01-09T14:54:06Z</time>
      </trkpt>
      <trkpt lat="45.41961" lon="4.67717">
        <ele>436.58</ele>
        <time>2021-01-09T14:54:07Z</time>
      </trkpt>
      <trkpt lat="45.41959" lon="4.67718">
        <ele>437.06</ele>
        <time>2021-01-09T14:54:08Z</time>
      </trkpt>
      <trkpt lat="45.41957" lon="4.67719">
        <ele>437.06</ele>
        <time>2021-01-09T14:54:09Z</time>
      </trkpt>
      <trkpt lat="45.41955" lon="4.67721">
        <ele>437.06</ele>
        <time>2021-01-09T14:54:10Z</time>
      </trkpt>
      <trkpt lat="45.41919" lon="4.67752">
        <ele>436.58</ele>
        <time>2021-01-09T14:54:25Z</time>
      </trkpt>
      <trkpt lat="45.41882" lon="4.67789">
        <ele>437.06</ele>
        <time>2021-01-09T14:54:40Z</time>
      </trkpt>
      <trkpt lat="45.41855" lon="4.67816">
        <ele>437.54</ele>
        <time>2021-01-09T14:54:50Z</time>
      </trkpt>
      <trkpt lat="45.41845" lon="4.67862">
        <ele>437.06</ele>
        <time>2021-01-09T14:55:00Z</time>
      </trkpt>
      <trkpt lat="45.41845" lon="4.67867">
        <ele>436.58</ele>
        <time>2021-01-09T14:55:01Z</time>
      </trkpt>
      <trkpt lat="45.41845" lon="4.67873">
        <ele>437.06</ele>
        <time>2021-01-09T14:55:02Z</time>
      </trkpt>
      <trkpt lat="45.41844" lon="4.67879">
        <ele>436.58</ele>
        <time>2021-01-09T14:55:03Z</time>
      </trkpt>
      <trkpt lat="45.41837" lon="4.67901">
        <ele>436.58</ele>
        <time>2021-01-09T14:55:07Z</time>
      </trkpt>
      <trkpt lat="45.41836" lon="4.67907">
        <ele>436.58</ele>
        <time>2021-01-09T14:55:08Z</time>
      </trkpt>
      <trkpt lat="45.41836" lon="4.67914">
        <ele>436.58</ele>
        <time>2021-01-09T14:55:09Z</time>
      </trkpt>
      <trkpt lat="45.41837" lon="4.6792">
        <ele>436.58</ele>
        <time>2021-01-09T14:55:10Z</time>
      </trkpt>
      <trkpt lat="45.41836" lon="4.67926">
        <ele>436.1</ele>
        <time>2021-01-09T14:55:11Z</time>
      </trkpt>
      <trkpt lat="45.41834" lon="4.67932">
        <ele>436.1</ele>
        <time>2021-01-09T14:55:12Z</time>
      </trkpt>
      <trkpt lat="45.4183" lon="4.67935">
        <ele>436.1</ele>
        <time>2021-01-09T14:55:13Z</time>
      </trkpt>
      <trkpt lat="45.41826" lon="4.67936">
        <ele>436.1</ele>
        <time>2021-01-09T14:55:14Z</time>
      </trkpt>
      <trkpt lat="45.41822" lon="4.67935">
        <ele>436.1</ele>
        <time>2021-01-09T14:55:15Z</time>
      </trkpt>
      <trkpt lat="45.41819" lon="4.67934">
        <ele>436.1</ele>
        <time>2021-01-09T14:55:16Z</time>
      </trkpt>
      <trkpt lat="45.41799" lon="4.6793">
        <ele>436.58</ele>
        <time>2021-01-09T14:55:23Z</time>
      </trkpt>
      <trkpt lat="45.41798" lon="4.6793">
        <ele>437.06</ele>
        <time>2021-01-09T14:55:24Z</time>
      </trkpt>
      <trkpt lat="45.41797" lon="4.6793">
        <ele>437.06</ele>
        <time>2021-01-09T14:55:25Z</time>
      </trkpt>
      <trkpt lat="45.41795" lon="4.67931">
        <ele>437.06</ele>
        <time>2021-01-09T14:55:26Z</time>
      </trkpt>
      <trkpt lat="45.41793" lon="4.67932">
        <ele>437.06</ele>
        <time>2021-01-09T14:55:27Z</time>
      </trkpt>
      <trkpt lat="45.4179" lon="4.67933">
        <ele>437.06</ele>
        <time>2021-01-09T14:55:28Z</time>
      </trkpt>
      <trkpt lat="45.41788" lon="4.67932">
        <ele>437.06</ele>
        <time>2021-01-09T14:55:29Z</time>
      </trkpt>
      <trkpt lat="45.41785" lon="4.6793">
        <ele>437.06</ele>
        <time>2021-01-09T14:55:30Z</time>
      </trkpt>
      <trkpt lat="45.41783" lon="4.67928">
        <ele>437.06</ele>
        <time>2021-01-09T14:55:31Z</time>
      </trkpt>
      <trkpt lat="45.4178" lon="4.67926">
        <ele>436.58</ele>
        <time>2021-01-09T14:55:32Z</time>
      </trkpt>
      <trkpt lat="45.41776" lon="4.67925">
        <ele>437.06</ele>
        <time>2021-01-09T14:55:33Z</time>
      </trkpt>
      <trkpt lat="45.41773" lon="4.67924">
        <ele>437.06</ele>
        <time>2021-01-09T14:55:34Z</time>
      </trkpt>
      <trkpt lat="45.41769" lon="4.67924">
        <ele>437.06</ele>
        <time>2021-01-09T14:55:35Z</time>
      </trkpt>
      <trkpt lat="45.41766" lon="4.67924">
        <ele>437.06</ele>
        <time>2021-01-09T14:55:36Z</time>
      </trkpt>
      <trkpt lat="45.41729" lon="4.67916">
        <ele>437.06</ele>
        <time>2021-01-09T14:55:46Z</time>
      </trkpt>
      <trkpt lat="45.41697" lon="4.67903">
        <ele>435.61</ele>
        <time>2021-01-09T14:55:54Z</time>
      </trkpt>
      <trkpt lat="45.41692" lon="4.67903">
        <ele>435.61</ele>
        <time>2021-01-09T14:55:55Z</time>
      </trkpt>
      <trkpt lat="45.41674" lon="4.67902">
        <ele>435.13</ele>
        <time>2021-01-09T14:55:59Z</time>
      </trkpt>
      <trkpt lat="45.4167" lon="4.67901">
        <ele>435.13</ele>
        <time>2021-01-09T14:56:00Z</time>
      </trkpt>
      <trkpt lat="45.4165" lon="4.67893">
        <ele>434.65</ele>
        <time>2021-01-09T14:56:05Z</time>
      </trkpt>
      <trkpt lat="45.41592" lon="4.67876">
        <ele>432.25</ele>
        <time>2021-01-09T14:56:18Z</time>
      </trkpt>
      <trkpt lat="45.41527" lon="4.67858">
        <ele>430.81</ele>
        <time>2021-01-09T14:56:31Z</time>
      </trkpt>
      <trkpt lat="45.41522" lon="4.67857">
        <ele>430.81</ele>
        <time>2021-01-09T14:56:32Z</time>
      </trkpt>
      <trkpt lat="45.41506" lon="4.67852">
        <ele>429.37</ele>
        <time>2021-01-09T14:56:35Z</time>
      </trkpt>
      <trkpt lat="45.415" lon="4.6785">
        <ele>429.37</ele>
        <time>2021-01-09T14:56:36Z</time>
      </trkpt>
      <trkpt lat="45.4145" lon="4.67835">
        <ele>427.44</ele>
        <time>2021-01-09T14:56:45Z</time>
      </trkpt>
      <trkpt lat="45.41425" lon="4.67831">
        <ele>427.44</ele>
        <time>2021-01-09T14:56:50Z</time>
      </trkpt>
      <trkpt lat="45.41421" lon="4.67831">
        <ele>427.44</ele>
        <time>2021-01-09T14:56:51Z</time>
      </trkpt>
      <trkpt lat="45.41418" lon="4.67829">
        <ele>427.92</ele>
        <time>2021-01-09T14:56:52Z</time>
      </trkpt>
      <trkpt lat="45.41414" lon="4.67828">
        <ele>427.92</ele>
        <time>2021-01-09T14:56:53Z</time>
      </trkpt>
      <trkpt lat="45.41411" lon="4.67828">
        <ele>428.4</ele>
        <time>2021-01-09T14:56:54Z</time>
      </trkpt>
      <trkpt lat="45.41407" lon="4.67829">
        <ele>428.4</ele>
        <time>2021-01-09T14:56:55Z</time>
      </trkpt>
      <trkpt lat="45.41405" lon="4.67831">
        <ele>428.89</ele>
        <time>2021-01-09T14:56:56Z</time>
      </trkpt>
      <trkpt lat="45.41402" lon="4.67832">
        <ele>428.89</ele>
        <time>2021-01-09T14:56:57Z</time>
      </trkpt>
      <trkpt lat="45.414" lon="4.67832">
        <ele>428.89</ele>
        <time>2021-01-09T14:56:58Z</time>
      </trkpt>
      <trkpt lat="45.41397" lon="4.67831">
        <ele>428.89</ele>
        <time>2021-01-09T14:56:59Z</time>
      </trkpt>
      <trkpt lat="45.41392" lon="4.67829">
        <ele>429.85</ele>
        <time>2021-01-09T14:57:01Z</time>
      </trkpt>
      <trkpt lat="45.41345" lon="4.67854">
        <ele>432.25</ele>
        <time>2021-01-09T14:57:18Z</time>
      </trkpt>
      <trkpt lat="45.41318" lon="4.67882">
        <ele>432.73</ele>
        <time>2021-01-09T14:57:30Z</time>
      </trkpt>
      <trkpt lat="45.41317" lon="4.67882">
        <ele>432.73</ele>
        <time>2021-01-09T14:57:31Z</time>
      </trkpt>
      <trkpt lat="45.41315" lon="4.67884">
        <ele>432.73</ele>
        <time>2021-01-09T14:57:32Z</time>
      </trkpt>
      <trkpt lat="45.41314" lon="4.67886">
        <ele>432.73</ele>
        <time>2021-01-09T14:57:33Z</time>
      </trkpt>
      <trkpt lat="45.41312" lon="4.67889">
        <ele>432.73</ele>
        <time>2021-01-09T14:57:34Z</time>
      </trkpt>
      <trkpt lat="45.4131" lon="4.67893">
        <ele>432.73</ele>
        <time>2021-01-09T14:57:35Z</time>
      </trkpt>
      <trkpt lat="45.4129" lon="4.67948">
        <ele>434.17</ele>
        <time>2021-01-09T14:57:49Z</time>
      </trkpt>
      <trkpt lat="45.41279" lon="4.68007">
        <ele>435.13</ele>
        <time>2021-01-09T14:58:02Z</time>
      </trkpt>
      <trkpt lat="45.41271" lon="4.68073">
        <ele>437.54</ele>
        <time>2021-01-09T14:58:17Z</time>
      </trkpt>
      <trkpt lat="45.41263" lon="4.68124">
        <ele>439.94</ele>
        <time>2021-01-09T14:58:30Z</time>
      </trkpt>
      <trkpt lat="45.41247" lon="4.68169">
        <ele>440.9</ele>
        <time>2021-01-09T14:58:42Z</time>
      </trkpt>
      <trkpt lat="45.41234" lon="4.68202">
        <ele>442.34</ele>
        <time>2021-01-09T14:58:51Z</time>
      </trkpt>
      <trkpt lat="45.41242" lon="4.68244">
        <ele>442.82</ele>
        <time>2021-01-09T14:59:02Z</time>
      </trkpt>
      <trkpt lat="45.41247" lon="4.68251">
        <ele>441.86</ele>
        <time>2021-01-09T14:59:04Z</time>
      </trkpt>
      <trkpt lat="45.4126" lon="4.6826">
        <ele>440.9</ele>
        <time>2021-01-09T14:59:07Z</time>
      </trkpt>
      <trkpt lat="45.41265" lon="4.68262">
        <ele>440.42</ele>
        <time>2021-01-09T14:59:08Z</time>
      </trkpt>
      <trkpt lat="45.41275" lon="4.68269">
        <ele>439.46</ele>
        <time>2021-01-09T14:59:10Z</time>
      </trkpt>
      <trkpt lat="45.41284" lon="4.68279">
        <ele>438.98</ele>
        <time>2021-01-09T14:59:12Z</time>
      </trkpt>
      <trkpt lat="45.41287" lon="4.68285">
        <ele>438.02</ele>
        <time>2021-01-09T14:59:13Z</time>
      </trkpt>
      <trkpt lat="45.41291" lon="4.68292">
        <ele>437.54</ele>
        <time>2021-01-09T14:59:14Z</time>
      </trkpt>
      <trkpt lat="45.41293" lon="4.683">
        <ele>437.54</ele>
        <time>2021-01-09T14:59:15Z</time>
      </trkpt>
      <trkpt lat="45.41293" lon="4.68309">
        <ele>437.06</ele>
        <time>2021-01-09T14:59:16Z</time>
      </trkpt>
      <trkpt lat="45.41292" lon="4.68316">
        <ele>437.54</ele>
        <time>2021-01-09T14:59:17Z</time>
      </trkpt>
      <trkpt lat="45.4129" lon="4.68322">
        <ele>438.5</ele>
        <time>2021-01-09T14:59:18Z</time>
      </trkpt>
      <trkpt lat="45.41288" lon="4.68327">
        <ele>438.5</ele>
        <time>2021-01-09T14:59:19Z</time>
      </trkpt>
      <trkpt lat="45.41287" lon="4.68331">
        <ele>438.98</ele>
        <time>2021-01-09T14:59:20Z</time>
      </trkpt>
      <trkpt lat="45.41286" lon="4.68382">
        <ele>439.46</ele>
        <time>2021-01-09T14:59:31Z</time>
      </trkpt>
      <trkpt lat="45.41289" lon="4.68403">
        <ele>438.5</ele>
        <time>2021-01-09T14:59:34Z</time>
      </trkpt>
      <trkpt lat="45.4129" lon="4.68409">
        <ele>438.5</ele>
        <time>2021-01-09T14:59:35Z</time>
      </trkpt>
      <trkpt lat="45.41291" lon="4.68415">
        <ele>438.02</ele>
        <time>2021-01-09T14:59:36Z</time>
      </trkpt>
      <trkpt lat="45.4129" lon="4.68421">
        <ele>438.02</ele>
        <time>2021-01-09T14:59:37Z</time>
      </trkpt>
      <trkpt lat="45.4129" lon="4.68427">
        <ele>438.02</ele>
        <time>2021-01-09T14:59:38Z</time>
      </trkpt>
      <trkpt lat="45.4129" lon="4.68433">
        <ele>438.02</ele>
        <time>2021-01-09T14:59:39Z</time>
      </trkpt>
      <trkpt lat="45.41291" lon="4.68452">
        <ele>437.06</ele>
        <time>2021-01-09T14:59:42Z</time>
      </trkpt>
      <trkpt lat="45.41292" lon="4.68459">
        <ele>436.58</ele>
        <time>2021-01-09T14:59:43Z</time>
      </trkpt>
      <trkpt lat="45.41292" lon="4.68465">
        <ele>435.61</ele>
        <time>2021-01-09T14:59:44Z</time>
      </trkpt>
      <trkpt lat="45.41296" lon="4.68501">
        <ele>431.77</ele>
        <time>2021-01-09T14:59:48Z</time>
      </trkpt>
      <trkpt lat="45.41296" lon="4.6851">
        <ele>430.81</ele>
        <time>2021-01-09T14:59:49Z</time>
      </trkpt>
      <trkpt lat="45.41296" lon="4.6852">
        <ele>430.33</ele>
        <time>2021-01-09T14:59:50Z</time>
      </trkpt>
      <trkpt lat="45.41293" lon="4.68529">
        <ele>429.85</ele>
        <time>2021-01-09T14:59:51Z</time>
      </trkpt>
      <trkpt lat="45.4129" lon="4.68538">
        <ele>429.37</ele>
        <time>2021-01-09T14:59:52Z</time>
      </trkpt>
      <trkpt lat="45.41287" lon="4.68545">
        <ele>429.37</ele>
        <time>2021-01-09T14:59:53Z</time>
      </trkpt>
      <trkpt lat="45.41283" lon="4.68552">
        <ele>429.85</ele>
        <time>2021-01-09T14:59:54Z</time>
      </trkpt>
      <trkpt lat="45.4128" lon="4.68556">
        <ele>430.81</ele>
        <time>2021-01-09T14:59:55Z</time>
      </trkpt>
      <trkpt lat="45.41277" lon="4.68559">
        <ele>431.29</ele>
        <time>2021-01-09T14:59:56Z</time>
      </trkpt>
      <trkpt lat="45.41274" lon="4.68562">
        <ele>432.25</ele>
        <time>2021-01-09T14:59:57Z</time>
      </trkpt>
      <trkpt lat="45.41272" lon="4.68566">
        <ele>432.73</ele>
        <time>2021-01-09T14:59:58Z</time>
      </trkpt>
      <trkpt lat="45.41264" lon="4.68583">
        <ele>434.17</ele>
        <time>2021-01-09T15:00:03Z</time>
      </trkpt>
      <trkpt lat="45.41257" lon="4.68609">
        <ele>436.1</ele>
        <time>2021-01-09T15:00:09Z</time>
      </trkpt>
      <trkpt lat="45.41258" lon="4.68613">
        <ele>436.1</ele>
        <time>2021-01-09T15:00:10Z</time>
      </trkpt>
      <trkpt lat="45.41258" lon="4.68618">
        <ele>436.1</ele>
        <time>2021-01-09T15:00:11Z</time>
      </trkpt>
      <trkpt lat="45.4126" lon="4.68624">
        <ele>435.13</ele>
        <time>2021-01-09T15:00:12Z</time>
      </trkpt>
      <trkpt lat="45.41261" lon="4.6863">
        <ele>435.13</ele>
        <time>2021-01-09T15:00:13Z</time>
      </trkpt>
      <trkpt lat="45.41262" lon="4.68634">
        <ele>435.61</ele>
        <time>2021-01-09T15:00:14Z</time>
      </trkpt>
      <trkpt lat="45.41262" lon="4.68639">
        <ele>435.61</ele>
        <time>2021-01-09T15:00:15Z</time>
      </trkpt>
      <trkpt lat="45.41263" lon="4.68654">
        <ele>436.58</ele>
        <time>2021-01-09T15:00:19Z</time>
      </trkpt>
      <trkpt lat="45.41264" lon="4.68657">
        <ele>437.06</ele>
        <time>2021-01-09T15:00:20Z</time>
      </trkpt>
      <trkpt lat="45.41284" lon="4.68683">
        <ele>433.69</ele>
        <time>2021-01-09T15:00:28Z</time>
      </trkpt>
      <trkpt lat="45.41285" lon="4.68685">
        <ele>433.69</ele>
        <time>2021-01-09T15:00:29Z</time>
      </trkpt>
      <trkpt lat="45.41285" lon="4.68687">
        <ele>433.69</ele>
        <time>2021-01-09T15:00:30Z</time>
      </trkpt>
      <trkpt lat="45.41286" lon="4.68696">
        <ele>434.17</ele>
        <time>2021-01-09T15:00:33Z</time>
      </trkpt>
      <trkpt lat="45.41284" lon="4.68699">
        <ele>433.69</ele>
        <time>2021-01-09T15:00:34Z</time>
      </trkpt>
      <trkpt lat="45.41283" lon="4.68701">
        <ele>433.69</ele>
        <time>2021-01-09T15:00:35Z</time>
      </trkpt>
      <trkpt lat="45.41282" lon="4.68704">
        <ele>434.17</ele>
        <time>2021-01-09T15:00:36Z</time>
      </trkpt>
      <trkpt lat="45.41282" lon="4.68708">
        <ele>434.17</ele>
        <time>2021-01-09T15:00:37Z</time>
      </trkpt>
      <trkpt lat="45.4128" lon="4.68712">
        <ele>433.69</ele>
        <time>2021-01-09T15:00:38Z</time>
      </trkpt>
      <trkpt lat="45.41265" lon="4.68726">
        <ele>435.13</ele>
        <time>2021-01-09T15:00:46Z</time>
      </trkpt>
      <trkpt lat="45.41263" lon="4.68725">
        <ele>435.13</ele>
        <time>2021-01-09T15:00:47Z</time>
      </trkpt>
      <trkpt lat="45.41262" lon="4.68724">
        <ele>435.13</ele>
        <time>2021-01-09T15:00:48Z</time>
      </trkpt>
      <trkpt lat="45.4126" lon="4.68723">
        <ele>435.13</ele>
        <time>2021-01-09T15:00:49Z</time>
      </trkpt>
      <trkpt lat="45.41257" lon="4.6872">
        <ele>436.1</ele>
        <time>2021-01-09T15:00:56Z</time>
      </trkpt>
      <trkpt lat="45.41256" lon="4.68719">
        <ele>435.61</ele>
        <time>2021-01-09T15:00:57Z</time>
      </trkpt>
      <trkpt lat="45.41255" lon="4.68717">
        <ele>435.61</ele>
        <time>2021-01-09T15:00:58Z</time>
      </trkpt>
      <trkpt lat="45.41253" lon="4.68716">
        <ele>435.61</ele>
        <time>2021-01-09T15:00:59Z</time>
      </trkpt>
      <trkpt lat="45.41251" lon="4.68713">
        <ele>435.61</ele>
        <time>2021-01-09T15:01:00Z</time>
      </trkpt>
      <trkpt lat="45.41248" lon="4.68708">
        <ele>436.1</ele>
        <time>2021-01-09T15:01:02Z</time>
      </trkpt>
      <trkpt lat="45.41246" lon="4.68707">
        <ele>436.1</ele>
        <time>2021-01-09T15:01:03Z</time>
      </trkpt>
      <trkpt lat="45.41245" lon="4.68705">
        <ele>436.1</ele>
        <time>2021-01-09T15:01:04Z</time>
      </trkpt>
      <trkpt lat="45.41242" lon="4.68703">
        <ele>436.1</ele>
        <time>2021-01-09T15:01:05Z</time>
      </trkpt>
      <trkpt lat="45.4124" lon="4.68702">
        <ele>436.1</ele>
        <time>2021-01-09T15:01:06Z</time>
      </trkpt>
      <trkpt lat="45.41238" lon="4.68699">
        <ele>436.1</ele>
        <time>2021-01-09T15:01:07Z</time>
      </trkpt>
      <trkpt lat="45.41236" lon="4.68697">
        <ele>436.1</ele>
        <time>2021-01-09T15:01:08Z</time>
      </trkpt>
      <trkpt lat="45.41233" lon="4.68696">
        <ele>436.1</ele>
        <time>2021-01-09T15:01:09Z</time>
      </trkpt>
      <trkpt lat="45.41232" lon="4.68695">
        <ele>436.1</ele>
        <time>2021-01-09T15:01:10Z</time>
      </trkpt>
      <trkpt lat="45.41228" lon="4.68691">
        <ele>436.1</ele>
        <time>2021-01-09T15:01:12Z</time>
      </trkpt>
      <trkpt lat="45.41217" lon="4.6866">
        <ele>436.1</ele>
        <time>2021-01-09T15:01:22Z</time>
      </trkpt>
      <trkpt lat="45.41213" lon="4.68644">
        <ele>437.06</ele>
        <time>2021-01-09T15:01:27Z</time>
      </trkpt>
      <trkpt lat="45.41212" lon="4.68641">
        <ele>437.54</ele>
        <time>2021-01-09T15:01:28Z</time>
      </trkpt>
      <trkpt lat="45.4121" lon="4.68638">
        <ele>437.06</ele>
        <time>2021-01-09T15:01:29Z</time>
      </trkpt>
      <trkpt lat="45.41208" lon="4.68631">
        <ele>438.02</ele>
        <time>2021-01-09T15:01:39Z</time>
      </trkpt>
      <trkpt lat="45.41208" lon="4.6863">
        <ele>438.5</ele>
        <time>2021-01-09T15:01:52Z</time>
      </trkpt>
      <trkpt lat="45.41208" lon="4.68632">
        <ele>438.5</ele>
        <time>2021-01-09T15:02:22Z</time>
      </trkpt>
      <trkpt lat="45.41209" lon="4.68632">
        <ele>438.5</ele>
        <time>2021-01-09T15:03:02Z</time>
      </trkpt>
      <trkpt lat="45.41209" lon="4.68632">
        <ele>438.5</ele>
        <time>2021-01-09T15:03:34Z</time>
      </trkpt>
      <trkpt lat="45.41207" lon="4.68626">
        <ele>438.98</ele>
        <time>2021-01-09T15:03:48Z</time>
      </trkpt>
      <trkpt lat="45.41207" lon="4.68623">
        <ele>439.46</ele>
        <time>2021-01-09T15:03:49Z</time>
      </trkpt>
      <trkpt lat="45.41207" lon="4.68621">
        <ele>439.46</ele>
        <time>2021-01-09T15:03:50Z</time>
      </trkpt>
      <trkpt lat="45.41206" lon="4.68619">
        <ele>439.46</ele>
        <time>2021-01-09T15:03:51Z</time>
      </trkpt>
      <trkpt lat="45.41205" lon="4.68617">
        <ele>439.46</ele>
        <time>2021-01-09T15:03:52Z</time>
      </trkpt>
      <trkpt lat="45.41204" lon="4.68613">
        <ele>439.94</ele>
        <time>2021-01-09T15:03:53Z</time>
      </trkpt>
      <trkpt lat="45.41204" lon="4.68609">
        <ele>439.46</ele>
        <time>2021-01-09T15:03:54Z</time>
      </trkpt>
      <trkpt lat="45.41203" lon="4.68605">
        <ele>439.46</ele>
        <time>2021-01-09T15:03:55Z</time>
      </trkpt>
      <trkpt lat="45.41197" lon="4.68558">
        <ele>438.5</ele>
        <time>2021-01-09T15:04:05Z</time>
      </trkpt>
      <trkpt lat="45.41195" lon="4.68555">
        <ele>438.98</ele>
        <time>2021-01-09T15:04:06Z</time>
      </trkpt>
      <trkpt lat="45.41193" lon="4.68552">
        <ele>439.46</ele>
        <time>2021-01-09T15:04:07Z</time>
      </trkpt>
      <trkpt lat="45.41191" lon="4.6855">
        <ele>439.94</ele>
        <time>2021-01-09T15:04:08Z</time>
      </trkpt>
      <trkpt lat="45.41188" lon="4.68547">
        <ele>440.42</ele>
        <time>2021-01-09T15:04:09Z</time>
      </trkpt>
      <trkpt lat="45.41185" lon="4.68545">
        <ele>439.94</ele>
        <time>2021-01-09T15:04:10Z</time>
      </trkpt>
      <trkpt lat="45.41182" lon="4.68542">
        <ele>439.94</ele>
        <time>2021-01-09T15:04:11Z</time>
      </trkpt>
      <trkpt lat="45.41178" lon="4.6854">
        <ele>439.46</ele>
        <time>2021-01-09T15:04:12Z</time>
      </trkpt>
      <trkpt lat="45.41151" lon="4.68525">
        <ele>438.5</ele>
        <time>2021-01-09T15:04:19Z</time>
      </trkpt>
      <trkpt lat="45.41138" lon="4.6852">
        <ele>437.06</ele>
        <time>2021-01-09T15:04:22Z</time>
      </trkpt>
      <trkpt lat="45.41127" lon="4.68516">
        <ele>436.1</ele>
        <time>2021-01-09T15:04:24Z</time>
      </trkpt>
      <trkpt lat="45.41116" lon="4.68517">
        <ele>435.13</ele>
        <time>2021-01-09T15:04:26Z</time>
      </trkpt>
      <trkpt lat="45.41098" lon="4.68519">
        <ele>433.21</ele>
        <time>2021-01-09T15:04:29Z</time>
      </trkpt>
      <trkpt lat="45.41077" lon="4.68512">
        <ele>431.29</ele>
        <time>2021-01-09T15:04:32Z</time>
      </trkpt>
      <trkpt lat="45.41063" lon="4.68508">
        <ele>430.81</ele>
        <time>2021-01-09T15:04:34Z</time>
      </trkpt>
      <trkpt lat="45.4102" lon="4.68503">
        <ele>426.96</ele>
        <time>2021-01-09T15:04:40Z</time>
      </trkpt>
      <trkpt lat="45.41008" lon="4.68501">
        <ele>426.48</ele>
        <time>2021-01-09T15:04:42Z</time>
      </trkpt>
      <trkpt lat="45.40973" lon="4.6849">
        <ele>425.04</ele>
        <time>2021-01-09T15:04:48Z</time>
      </trkpt>
      <trkpt lat="45.40897" lon="4.6846">
        <ele>422.64</ele>
        <time>2021-01-09T15:05:00Z</time>
      </trkpt>
      <trkpt lat="45.40885" lon="4.68457">
        <ele>422.64</ele>
        <time>2021-01-09T15:05:02Z</time>
      </trkpt>
      <trkpt lat="45.4088" lon="4.68461">
        <ele>422.16</ele>
        <time>2021-01-09T15:05:03Z</time>
      </trkpt>
      <trkpt lat="45.40876" lon="4.68469">
        <ele>421.68</ele>
        <time>2021-01-09T15:05:04Z</time>
      </trkpt>
      <trkpt lat="45.40873" lon="4.68478">
        <ele>420.71</ele>
        <time>2021-01-09T15:05:05Z</time>
      </trkpt>
      <trkpt lat="45.4087" lon="4.68488">
        <ele>420.23</ele>
        <time>2021-01-09T15:05:06Z</time>
      </trkpt>
      <trkpt lat="45.40857" lon="4.68532">
        <ele>416.39</ele>
        <time>2021-01-09T15:05:10Z</time>
      </trkpt>
      <trkpt lat="45.40843" lon="4.68579">
        <ele>413.98</ele>
        <time>2021-01-09T15:05:14Z</time>
      </trkpt>
      <trkpt lat="45.40829" lon="4.68631">
        <ele>412.54</ele>
        <time>2021-01-09T15:05:19Z</time>
      </trkpt>
      <trkpt lat="45.40829" lon="4.68639">
        <ele>412.06</ele>
        <time>2021-01-09T15:05:20Z</time>
      </trkpt>
    </trkseg>
  </trk>
</gpx>